<?xml version='1.0' encoding='UTF-8'?><gpx version="1.1" creator="JPX - https://github.com/jenetics/jpx" xmlns="http://www.topografix.com/GPX/1/1"><trk><trkseg><trkpt lat="41.17472935006132" lon="15.054735029130294"><ele>500.0</ele><time>2026-05-04T15:45:36.998Z</time></trkpt><trkpt lat="41.17478841541258" lon="15.054692403191229"><ele>500.0</ele><time>2026-05-04T15:45:39.998Z</time></trkpt><trkpt lat="41.174744605125284" lon="15.05476956257136"><ele>500.0</ele><time>2026-05-04T15:45:43.999Z</time></trkpt><trkpt lat="41.174595595669814" lon="15.054691334602722"><ele>500.0</ele><time>2026-05-04T15:46:25Z</time></trkpt><trkpt lat="41.17450298939987" lon="15.05458467046275"><ele>500.0</ele><time>2026-05-04T15:46:26Z</time></trkpt><trkpt lat="41.174418775947565" lon="15.054462212030163"><ele>500.0</ele><time>2026-05-04T15:46:27Z</time></trkpt><trkpt lat="41.17434751897172" lon="15.054333432379382"><ele>500.0</ele><time>2026-05-04T15:46:28Z</time></trkpt><trkpt lat="41.17428330010266" lon="15.054197073055914"><ele>500.0</ele><time>2026-05-04T15:46:29Z</time></trkpt><trkpt lat="41.174215154665006" lon="15.054135108775037"><ele>500.0</ele><time>2026-05-04T15:46:31Z</time></trkpt><trkpt lat="41.17413995021223" lon="15.054215244563165"><ele>500.0</ele><time>2026-05-04T15:46:33Z</time></trkpt><trkpt lat="41.174064185218676" lon="15.054327226640952"><ele>496.3333333333333</ele><time>2026-05-04T15:46:35Z</time></trkpt><trkpt lat="41.17401437986375" lon="15.054397964114708"><ele>492.66666666666663</ele><time>2026-05-04T15:46:36Z</time></trkpt><trkpt lat="41.17396200245936" lon="15.054479285006884"><ele>489.0</ele><time>2026-05-04T15:46:37Z</time></trkpt><trkpt lat="41.17390455637757" lon="15.05455386770333"><ele>485.33333333333337</ele><time>2026-05-04T15:46:38Z</time></trkpt><trkpt lat="41.17383823560682" lon="15.054624178167781"><ele>481.6666666666667</ele><time>2026-05-04T15:46:39Z</time></trkpt><trkpt lat="41.173778845798026" lon="15.054704003426108"><ele>478.0</ele><time>2026-05-04T15:46:40Z</time></trkpt><trkpt lat="41.17372752178444" lon="15.05477534260956"><ele>478.00000000000006</ele><time>2026-05-04T15:46:41Z</time></trkpt><trkpt lat="41.17367748237142" lon="15.054840928054626"><ele>478.0</ele><time>2026-05-04T15:46:42Z</time></trkpt><trkpt lat="41.173580781427496" lon="15.054845044400444"><ele>478.0</ele><time>2026-05-04T15:46:44Z</time></trkpt><trkpt lat="41.17348805548455" lon="15.054757782055667"><ele>478.0</ele><time>2026-05-04T15:46:46Z</time></trkpt><trkpt lat="41.17340918563663" lon="15.05473668495227"><ele>478.00000000000006</ele><time>2026-05-04T15:46:47Z</time></trkpt><trkpt lat="41.173350554426754" lon="15.054676214632707"><ele>478.0</ele><time>2026-05-04T15:46:48Z</time></trkpt><trkpt lat="41.17331598021885" lon="15.054568915593332"><ele>478.0</ele><time>2026-05-04T15:46:49Z</time></trkpt><trkpt lat="41.17333786261611" lon="15.054392112706278"><ele>478.0</ele><time>2026-05-04T15:46:50Z</time></trkpt><trkpt lat="41.17336667498727" lon="15.054219955183315"><ele>478.0</ele><time>2026-05-04T15:46:51Z</time></trkpt><trkpt lat="41.17337910229484" lon="15.054064898071188"><ele>478.0</ele><time>2026-05-04T15:46:52Z</time></trkpt><trkpt lat="41.17330157347031" lon="15.054047879805124"><ele>479.2</ele><time>2026-05-04T15:46:55Z</time></trkpt><trkpt lat="41.17322397071115" lon="15.054069074396724"><ele>480.4</ele><time>2026-05-04T15:47:02Z</time></trkpt><trkpt lat="41.17311702502245" lon="15.054093214280206"><ele>481.59999999999997</ele><time>2026-05-04T15:47:04Z</time></trkpt><trkpt lat="41.17300244185499" lon="15.054152419463254"><ele>482.79999999999995</ele><time>2026-05-04T15:47:06Z</time></trkpt><trkpt lat="41.17297476379533" lon="15.054256034168777"><ele>484.0</ele><time>2026-05-04T15:47:07Z</time></trkpt><trkpt lat="41.172955067324125" lon="15.054343883486439"><ele>478.4</ele><time>2026-05-04T15:47:08Z</time></trkpt><trkpt lat="41.17293468872389" lon="15.054430789624956"><ele>472.79999999999995</ele><time>2026-05-04T15:47:09Z</time></trkpt><trkpt lat="41.172885388725916" lon="15.05458045875638"><ele>467.20000000000005</ele><time>2026-05-04T15:47:11Z</time></trkpt><trkpt lat="41.17285382492415" lon="15.054721438113916"><ele>461.6</ele><time>2026-05-04T15:47:13Z</time></trkpt><trkpt lat="41.1728198963436" lon="15.05484968019074"><ele>456.0</ele><time>2026-05-04T15:47:15Z</time></trkpt><trkpt lat="41.17278875447086" lon="15.054966902376854"><ele>454.8333333333333</ele><time>2026-05-04T15:47:17Z</time></trkpt><trkpt lat="41.17280035729181" lon="15.055068298302539"><ele>453.66666666666663</ele><time>2026-05-04T15:47:19Z</time></trkpt><trkpt lat="41.17287433459049" lon="15.055108516785598"><ele>452.5</ele><time>2026-05-04T15:47:22Z</time></trkpt><trkpt lat="41.17292256095716" lon="15.055213351325929"><ele>451.3333333333333</ele><time>2026-05-04T15:47:24Z</time></trkpt><trkpt lat="41.17290368300791" lon="15.05533904609265"><ele>450.16666666666663</ele><time>2026-05-04T15:47:26Z</time></trkpt><trkpt lat="41.17284037408119" lon="15.055384232612656"><ele>449.0</ele><time>2026-05-04T15:47:29Z</time></trkpt><trkpt lat="41.17277122952025" lon="15.05540610892934"><ele>449.0</ele><time>2026-05-04T15:47:30Z</time></trkpt><trkpt lat="41.172739810233544" lon="15.055522666126437"><ele>449.0</ele><time>2026-05-04T15:47:34Z</time></trkpt><trkpt lat="41.17273397864268" lon="15.055707849015825"><ele>449.0</ele><time>2026-05-04T15:47:36Z</time></trkpt><trkpt lat="41.17275077596817" lon="15.055843851113673"><ele>449.0</ele><time>2026-05-04T15:47:38.001Z</time></trkpt><trkpt lat="41.17274440524258" lon="15.055936732293201"><ele>449.0</ele><time>2026-05-04T15:47:40.001Z</time></trkpt><trkpt lat="41.17273104752693" lon="15.056042868448156"><ele>444.79999999999995</ele><time>2026-05-04T15:47:43.001Z</time></trkpt><trkpt lat="41.172706287992526" lon="15.056176777256042"><ele>440.59999999999997</ele><time>2026-05-04T15:47:45.001Z</time></trkpt><trkpt lat="41.172664389587865" lon="15.056258260670589"><ele>436.4</ele><time>2026-05-04T15:47:47.001Z</time></trkpt><trkpt lat="41.172531203242364" lon="15.056244045800135"><ele>432.2</ele><time>2026-05-04T15:47:49.001Z</time></trkpt><trkpt lat="41.17245964780751" lon="15.056253078484536"><ele>428.0</ele><time>2026-05-04T15:47:51.001Z</time></trkpt><trkpt lat="41.1724355334154" lon="15.056372555753457"><ele>428.0</ele><time>2026-05-04T15:47:53.001Z</time></trkpt><trkpt lat="41.172448580046364" lon="15.056536643903929"><ele>427.99999999999994</ele><time>2026-05-04T15:47:55.001Z</time></trkpt><trkpt lat="41.17248518543472" lon="15.056656157618667"><ele>427.99999999999994</ele><time>2026-05-04T15:47:56.001Z</time></trkpt><trkpt lat="41.17251471314236" lon="15.056758863471085"><ele>428.0</ele><time>2026-05-04T15:47:59.001Z</time></trkpt><trkpt lat="41.17254743414809" lon="15.056861687740312"><ele>428.0</ele><time>2026-05-04T15:48:01Z</time></trkpt><trkpt lat="41.17260399205161" lon="15.057145906093558"><ele>425.2</ele><time>2026-05-04T15:48:03Z</time></trkpt><trkpt lat="41.17264372951833" lon="15.057220551627204"><ele>422.4</ele><time>2026-05-04T15:48:04Z</time></trkpt><trkpt lat="41.17273311168792" lon="15.057257758616833"><ele>419.59999999999997</ele><time>2026-05-04T15:48:07Z</time></trkpt><trkpt lat="41.17280289572391" lon="15.057093095217416"><ele>416.79999999999995</ele><time>2026-05-04T15:48:09Z</time></trkpt><trkpt lat="41.172833441005274" lon="15.056978741409377"><ele>414.0</ele><time>2026-05-04T15:48:10Z</time></trkpt><trkpt lat="41.17286648553442" lon="15.05689089369033"><ele>414.0</ele><time>2026-05-04T15:48:11Z</time></trkpt><trkpt lat="41.172906868503304" lon="15.056819200171004"><ele>414.0</ele><time>2026-05-04T15:48:12Z</time></trkpt><trkpt lat="41.17299858815801" lon="15.056748910279946"><ele>414.0</ele><time>2026-05-04T15:48:14Z</time></trkpt><trkpt lat="41.17306232947076" lon="15.056759119927554"><ele>414.0</ele><time>2026-05-04T15:48:15Z</time></trkpt><trkpt lat="41.173140080880415" lon="15.05678920718351"><ele>414.0</ele><time>2026-05-04T15:48:17Z</time></trkpt><trkpt lat="41.17312225501679" lon="15.056685803245898"><ele>414.0</ele><time>2026-05-04T15:48:20Z</time></trkpt><trkpt lat="41.173142040891996" lon="15.056598917865147"><ele>419.6</ele><time>2026-05-04T15:48:21Z</time></trkpt><trkpt lat="41.17321448270879" lon="15.056604366615273"><ele>425.2</ele><time>2026-05-04T15:48:23Z</time></trkpt><trkpt lat="41.17330552381138" lon="15.056615249170395"><ele>430.80000000000007</ele><time>2026-05-04T15:48:25Z</time></trkpt><trkpt lat="41.173412484943476" lon="15.056616742538875"><ele>436.40000000000003</ele><time>2026-05-04T15:48:26Z</time></trkpt><trkpt lat="41.17351338083844" lon="15.056640790490546"><ele>442.0</ele><time>2026-05-04T15:48:27Z</time></trkpt><trkpt lat="41.173597306555955" lon="15.056650481632733"><ele>444.40000000000003</ele><time>2026-05-04T15:48:28Z</time></trkpt><trkpt lat="41.17362311337346" lon="15.056546747160988"><ele>446.80000000000007</ele><time>2026-05-04T15:48:31Z</time></trkpt><trkpt lat="41.17357769967474" lon="15.056454662621611"><ele>449.2</ele><time>2026-05-04T15:48:33Z</time></trkpt><trkpt lat="41.173492954120256" lon="15.056355431796518"><ele>451.6</ele><time>2026-05-04T15:48:35Z</time></trkpt><trkpt lat="41.17348419655756" lon="15.056267707292852"><ele>454.0</ele><time>2026-05-04T15:48:36Z</time></trkpt><trkpt lat="41.173490243645006" lon="15.05610659633189"><ele>454.0</ele><time>2026-05-04T15:48:38Z</time></trkpt><trkpt lat="41.173554600492785" lon="15.056069812085395"><ele>454.0</ele><time>2026-05-04T15:48:40Z</time></trkpt><trkpt lat="41.17359937999596" lon="15.056167942632124"><ele>454.0</ele><time>2026-05-04T15:48:42Z</time></trkpt><trkpt lat="41.17368389759637" lon="15.056205581690445"><ele>454.0</ele><time>2026-05-04T15:48:46Z</time></trkpt><trkpt lat="41.17391602558423" lon="15.056290453856652"><ele>454.0</ele><time>2026-05-04T15:48:50Z</time></trkpt><trkpt lat="41.17401592877003" lon="15.05639608155199"><ele>454.0</ele><time>2026-05-04T15:48:52Z</time></trkpt><trkpt lat="41.17406822706198" lon="15.056565360512737"><ele>454.0</ele><time>2026-05-04T15:50:47Z</time></trkpt><trkpt lat="41.17408248581978" lon="15.056719970666807"><ele>454.0</ele><time>2026-05-04T15:50:48Z</time></trkpt><trkpt lat="41.17407698730588" lon="15.056876735551649"><ele>458.25</ele><time>2026-05-04T15:50:49Z</time></trkpt><trkpt lat="41.17420150880132" lon="15.05698774130506"><ele>462.5</ele><time>2026-05-04T15:50:51Z</time></trkpt><trkpt lat="41.174294461438684" lon="15.057079347182304"><ele>466.75</ele><time>2026-05-04T15:50:52Z</time></trkpt><trkpt lat="41.174368166403085" lon="15.05719404501401"><ele>471.0</ele><time>2026-05-04T15:50:53Z</time></trkpt><trkpt lat="41.174413432676005" lon="15.057292155712174"><ele>471.0</ele><time>2026-05-04T15:50:54Z</time></trkpt><trkpt lat="41.17452115526762" lon="15.057301369202474"><ele>471.0</ele><time>2026-05-04T15:50:56Z</time></trkpt><trkpt lat="41.17459126136353" lon="15.057347057617308"><ele>471.0</ele><time>2026-05-04T15:50:57Z</time></trkpt><trkpt lat="41.1746336357081" lon="15.057417956407342"><ele>471.0</ele><time>2026-05-04T15:50:58Z</time></trkpt><trkpt lat="41.17472940882955" lon="15.057462775590496"><ele>471.0</ele><time>2026-05-04T15:50:59Z</time></trkpt><trkpt lat="41.174843478454086" lon="15.057492164813546"><ele>469.8333333333333</ele><time>2026-05-04T15:51:00Z</time></trkpt><trkpt lat="41.17493321130032" lon="15.057510271160545"><ele>468.66666666666663</ele><time>2026-05-04T15:51:01Z</time></trkpt><trkpt lat="41.175001023038014" lon="15.057516809730688"><ele>467.5</ele><time>2026-05-04T15:51:02Z</time></trkpt><trkpt lat="41.17507412698913" lon="15.057580524136092"><ele>466.3333333333333</ele><time>2026-05-04T15:51:04Z</time></trkpt><trkpt lat="41.17510960759022" lon="15.057670613287057"><ele>465.16666666666663</ele><time>2026-05-04T15:51:05Z</time></trkpt><trkpt lat="41.175182952068795" lon="15.057756479955243"><ele>464.0</ele><time>2026-05-04T15:51:06Z</time></trkpt><trkpt lat="41.17528083617494" lon="15.057817208059024"><ele>464.0</ele><time>2026-05-04T15:51:08Z</time></trkpt><trkpt lat="41.17543349034854" lon="15.057771204083934"><ele>464.0</ele><time>2026-05-04T15:51:10Z</time></trkpt><trkpt lat="41.17550208667043" lon="15.057726524470908"><ele>464.0</ele><time>2026-05-04T15:51:11Z</time></trkpt><trkpt lat="41.17557833576705" lon="15.057708075660587"><ele>464.0</ele><time>2026-05-04T15:51:12Z</time></trkpt><trkpt lat="41.17564435470809" lon="15.057696335580127"><ele>464.0</ele><time>2026-05-04T15:51:13Z</time></trkpt><trkpt lat="41.17574221072485" lon="15.057734386326448"><ele>461.2</ele><time>2026-05-04T15:51:15Z</time></trkpt><trkpt lat="41.175711728081374" lon="15.057887184634767"><ele>458.4</ele><time>2026-05-04T15:51:17Z</time></trkpt><trkpt lat="41.17569298756432" lon="15.057967256924254"><ele>455.6</ele><time>2026-05-04T15:51:18Z</time></trkpt><trkpt lat="41.1757862903374" lon="15.05805982787766"><ele>452.8</ele><time>2026-05-04T15:51:20Z</time></trkpt><trkpt lat="41.17585031854794" lon="15.058089840545913"><ele>450.0</ele><time>2026-05-04T15:51:22Z</time></trkpt><trkpt lat="41.1757623332419" lon="15.058160993600092"><ele>450.0</ele><time>2026-05-04T15:51:24Z</time></trkpt><trkpt lat="41.1758094224755" lon="15.058224415648256"><ele>450.0</ele><time>2026-05-04T15:51:28Z</time></trkpt><trkpt lat="41.17589456717021" lon="15.05822872167927"><ele>450.0</ele><time>2026-05-04T15:51:30.999Z</time></trkpt><trkpt lat="41.1760162844201" lon="15.058222383287669"><ele>450.0</ele><time>2026-05-04T15:51:33.999Z</time></trkpt><trkpt lat="41.176081642310024" lon="15.058267317716787"><ele>450.0</ele><time>2026-05-04T15:51:37.999Z</time></trkpt><trkpt lat="41.176156763672246" lon="15.058340114184642"><ele>450.0</ele><time>2026-05-04T15:51:38.999Z</time></trkpt><trkpt lat="41.17624221979747" lon="15.05843414545172"><ele>450.0</ele><time>2026-05-04T15:51:40.999Z</time></trkpt><trkpt lat="41.17632764075814" lon="15.05850014102108"><ele>450.0</ele><time>2026-05-04T15:52:11Z</time></trkpt><trkpt lat="41.17624690441935" lon="15.058491727703512"><ele>450.0</ele><time>2026-05-04T15:52:56Z</time></trkpt><trkpt lat="41.17641614857772" lon="15.058332981850254"><ele>450.0</ele><time>2026-05-04T15:53:39.999Z</time></trkpt><trkpt lat="41.17650234280194" lon="15.058270998387668"><ele>448.1666666666667</ele><time>2026-05-04T15:53:40.999Z</time></trkpt><trkpt lat="41.17662059553359" lon="15.05820844465516"><ele>446.33333333333337</ele><time>2026-05-04T15:53:41.999Z</time></trkpt><trkpt lat="41.176714465817945" lon="15.05818708275693"><ele>444.5</ele><time>2026-05-04T15:53:42.999Z</time></trkpt><trkpt lat="41.1767925270535" lon="15.058185347172772"><ele>442.6666666666667</ele><time>2026-05-04T15:53:43.999Z</time></trkpt><trkpt lat="41.17685602141798" lon="15.05817337938759"><ele>440.83333333333337</ele><time>2026-05-04T15:53:44.999Z</time></trkpt><trkpt lat="41.17692060537785" lon="15.058137161245263"><ele>439.0</ele><time>2026-05-04T15:53:45.999Z</time></trkpt><trkpt lat="41.176984444931335" lon="15.058078368423107"><ele>439.0</ele><time>2026-05-04T15:53:46.999Z</time></trkpt><trkpt lat="41.17705140791064" lon="15.05801877290031"><ele>439.0</ele><time>2026-05-04T15:53:47.999Z</time></trkpt><trkpt lat="41.17709824619879" lon="15.05795287265189"><ele>439.0</ele><time>2026-05-04T15:53:48.999Z</time></trkpt><trkpt lat="41.177185186884174" lon="15.057859925160047"><ele>439.0</ele><time>2026-05-04T15:53:50.999Z</time></trkpt><trkpt lat="41.177281896565766" lon="15.057755723578946"><ele>439.0</ele><time>2026-05-04T15:53:52.999Z</time></trkpt><trkpt lat="41.177336494774465" lon="15.057699365289901"><ele>441.6</ele><time>2026-05-04T15:53:53.999Z</time></trkpt><trkpt lat="41.177410322233776" lon="15.057623489232979"><ele>444.2</ele><time>2026-05-04T15:53:54.999Z</time></trkpt><trkpt lat="41.177502204582616" lon="15.057510389020596"><ele>446.80000000000007</ele><time>2026-05-04T15:53:56.001Z</time></trkpt><trkpt lat="41.177579610197036" lon="15.057416522244166"><ele>449.40000000000003</ele><time>2026-05-04T15:53:57.001Z</time></trkpt><trkpt lat="41.17766840173438" lon="15.057305562217335"><ele>452.0</ele><time>2026-05-04T15:53:58.001Z</time></trkpt><trkpt lat="41.17774107774641" lon="15.057214275156364"><ele>453.0</ele><time>2026-05-04T15:53:59.001Z</time></trkpt><trkpt lat="41.17780774824307" lon="15.057120536357692"><ele>454.00000000000006</ele><time>2026-05-04T15:54:00.001Z</time></trkpt><trkpt lat="41.177880895309734" lon="15.057017974351977"><ele>455.00000000000006</ele><time>2026-05-04T15:54:01.001Z</time></trkpt><trkpt lat="41.17795739252015" lon="15.056937581902693"><ele>456.0</ele><time>2026-05-04T15:54:02.001Z</time></trkpt><trkpt lat="41.17803111694607" lon="15.056858542402843"><ele>457.0</ele><time>2026-05-04T15:54:03.001Z</time></trkpt><trkpt lat="41.17809172808093" lon="15.056783618969309"><ele>457.0</ele><time>2026-05-04T15:54:04Z</time></trkpt><trkpt lat="41.17815335255808" lon="15.056698899833448"><ele>457.00000000000006</ele><time>2026-05-04T15:54:05Z</time></trkpt><trkpt lat="41.17824682651108" lon="15.056604791965041"><ele>457.00000000000006</ele><time>2026-05-04T15:54:06Z</time></trkpt><trkpt lat="41.17830943869956" lon="15.0565274210446"><ele>457.0</ele><time>2026-05-04T15:54:07Z</time></trkpt><trkpt lat="41.178382321647696" lon="15.056459177911064"><ele>457.0</ele><time>2026-05-04T15:54:08Z</time></trkpt><trkpt lat="41.17845714090341" lon="15.056383945829712"><ele>460.20000000000005</ele><time>2026-05-04T15:54:09Z</time></trkpt><trkpt lat="41.17854151464756" lon="15.056326387577741"><ele>463.40000000000003</ele><time>2026-05-04T15:54:10Z</time></trkpt><trkpt lat="41.178617081887786" lon="15.056255882036579"><ele>466.59999999999997</ele><time>2026-05-04T15:54:11Z</time></trkpt><trkpt lat="41.17867380680276" lon="15.056176700128745"><ele>469.79999999999995</ele><time>2026-05-04T15:54:12Z</time></trkpt><trkpt lat="41.17871760260601" lon="15.056095164228513"><ele>473.0</ele><time>2026-05-04T15:54:13Z</time></trkpt><trkpt lat="41.178805476186824" lon="15.055977022164265"><ele>472.99999999999994</ele><time>2026-05-04T15:54:15Z</time></trkpt><trkpt lat="41.17887126756183" lon="15.055915282977875"><ele>473.0</ele><time>2026-05-04T15:54:16Z</time></trkpt><trkpt lat="41.17894502591887" lon="15.055849549531786"><ele>473.0</ele><time>2026-05-04T15:54:17Z</time></trkpt><trkpt lat="41.17902334896741" lon="15.055806811816684"><ele>473.0</ele><time>2026-05-04T15:54:18Z</time></trkpt><trkpt lat="41.17910198726072" lon="15.055774802757034"><ele>472.99999999999994</ele><time>2026-05-04T15:54:19Z</time></trkpt><trkpt lat="41.17917775207074" lon="15.05574560876987"><ele>473.0</ele><time>2026-05-04T15:54:20Z</time></trkpt><trkpt lat="41.1792549299935" lon="15.055706560218955"><ele>478.66666666666663</ele><time>2026-05-04T15:54:21Z</time></trkpt><trkpt lat="41.17932778854888" lon="15.055652202366106"><ele>484.3333333333333</ele><time>2026-05-04T15:54:22Z</time></trkpt><trkpt lat="41.17945014636425" lon="15.055595269071466"><ele>490.0</ele><time>2026-05-04T15:54:24Z</time></trkpt><trkpt lat="41.17952285208004" lon="15.055555223486456"><ele>495.66666666666663</ele><time>2026-05-04T15:54:25Z</time></trkpt><trkpt lat="41.179580207083895" lon="15.055511962128026"><ele>501.3333333333333</ele><time>2026-05-04T15:54:26Z</time></trkpt><trkpt lat="41.1795933007618" lon="15.055417436591652"><ele>507.0</ele><time>2026-05-04T15:55:14.999Z</time></trkpt><trkpt lat="41.179538358802056" lon="15.055323625284599"><ele>507.0</ele><time>2026-05-04T15:55:32.999Z</time></trkpt><trkpt lat="41.179496929928554" lon="15.055237177360016"><ele>507.0</ele><time>2026-05-04T15:55:34.999Z</time></trkpt><trkpt lat="41.17944523572911" lon="15.055100940101559"><ele>507.0</ele><time>2026-05-04T15:55:36.999Z</time></trkpt><trkpt lat="41.17941199588387" lon="15.055024821671008"><ele>507.0</ele><time>2026-05-04T15:55:37.999Z</time></trkpt><trkpt lat="41.1793776055587" lon="15.054929983712242"><ele>507.0</ele><time>2026-05-04T15:55:38.999Z</time></trkpt><trkpt lat="41.179359352192485" lon="15.054841908441192"><ele>507.0</ele><time>2026-05-04T15:55:39.999Z</time></trkpt><trkpt lat="41.17933316427681" lon="15.054757843595821"><ele>508.6666666666667</ele><time>2026-05-04T15:55:40.999Z</time></trkpt><trkpt lat="41.17925524223605" lon="15.054711972742673"><ele>510.33333333333337</ele><time>2026-05-04T15:55:42.999Z</time></trkpt><trkpt lat="41.17918059083397" lon="15.054620773870848"><ele>512.0</ele><time>2026-05-04T15:55:44.999Z</time></trkpt><trkpt lat="41.17913206639726" lon="15.054565974676958"><ele>513.6666666666667</ele><time>2026-05-04T15:55:45.999Z</time></trkpt><trkpt lat="41.17907519982979" lon="15.054504992512435"><ele>515.3333333333334</ele><time>2026-05-04T15:55:46.999Z</time></trkpt><trkpt lat="41.178985152612434" lon="15.054425037695898"><ele>517.0</ele><time>2026-05-04T15:55:48.999Z</time></trkpt><trkpt lat="41.178908271278154" lon="15.054318135566112"><ele>511.6</ele><time>2026-05-04T15:55:50.999Z</time></trkpt><trkpt lat="41.178835780014765" lon="15.054179287470294"><ele>506.20000000000005</ele><time>2026-05-04T15:55:52.999Z</time></trkpt><trkpt lat="41.17878652702038" lon="15.0540440189101"><ele>500.8</ele><time>2026-05-04T15:55:54.999Z</time></trkpt><trkpt lat="41.178765549643025" lon="15.053961696569276"><ele>495.4</ele><time>2026-05-04T15:55:55.999Z</time></trkpt><trkpt lat="41.178736212884644" lon="15.053860067279762"><ele>490.0</ele><time>2026-05-04T15:55:56.999Z</time></trkpt><trkpt lat="41.17871078434026" lon="15.053775454765624"><ele>490.00000000000006</ele><time>2026-05-04T15:55:57.999Z</time></trkpt><trkpt lat="41.17867918151928" lon="15.053673638068297"><ele>490.0</ele><time>2026-05-04T15:55:58.999Z</time></trkpt><trkpt lat="41.17864793682798" lon="15.053586367033475"><ele>490.0</ele><time>2026-05-04T15:55:59.999Z</time></trkpt><trkpt lat="41.17862837098972" lon="15.053476447948277"><ele>490.0</ele><time>2026-05-04T15:56:02Z</time></trkpt><trkpt lat="41.17855746648943" lon="15.05336448054459"><ele>490.00000000000006</ele><time>2026-05-04T15:56:04Z</time></trkpt><trkpt lat="41.178518072637964" lon="15.053292552448822"><ele>490.0</ele><time>2026-05-04T15:56:05Z</time></trkpt><trkpt lat="41.17848695549028" lon="15.053212654160466"><ele>491.1666666666667</ele><time>2026-05-04T15:56:06Z</time></trkpt><trkpt lat="41.17846182164299" lon="15.05311726409424"><ele>492.33333333333337</ele><time>2026-05-04T15:56:07Z</time></trkpt><trkpt lat="41.17844020381816" lon="15.053026451832793"><ele>493.5</ele><time>2026-05-04T15:56:08Z</time></trkpt><trkpt lat="41.1784227625892" lon="15.052944374717415"><ele>494.66666666666663</ele><time>2026-05-04T15:56:09Z</time></trkpt><trkpt lat="41.17841004075862" lon="15.052827116650764"><ele>495.8333333333333</ele><time>2026-05-04T15:56:11Z</time></trkpt><trkpt lat="41.17846525872881" lon="15.052701186303343"><ele>497.0</ele><time>2026-05-04T15:56:13Z</time></trkpt><trkpt lat="41.178491920664946" lon="15.052594986558232"><ele>496.99999999999994</ele><time>2026-05-04T15:56:15Z</time></trkpt><trkpt lat="41.178513604549416" lon="15.052499105212005"><ele>497.0</ele><time>2026-05-04T15:56:18Z</time></trkpt><trkpt lat="41.17855893181938" lon="15.052377741899358"><ele>497.0</ele><time>2026-05-04T15:56:21Z</time></trkpt><trkpt lat="41.17858640785639" lon="15.052284974643099"><ele>497.0</ele><time>2026-05-04T15:56:23Z</time></trkpt><trkpt lat="41.17861298406906" lon="15.052165102968239"><ele>496.99999999999994</ele><time>2026-05-04T15:56:25Z</time></trkpt><trkpt lat="41.17861649175262" lon="15.052070001206674"><ele>497.0</ele><time>2026-05-04T15:56:30Z</time></trkpt><trkpt lat="41.17852351561543" lon="15.051940716699807"><ele>498.99999999999994</ele><time>2026-05-04T15:56:41Z</time></trkpt><trkpt lat="41.178488889941164" lon="15.051809569273319"><ele>501.0</ele><time>2026-05-04T15:56:42Z</time></trkpt><trkpt lat="41.178524212400184" lon="15.051719403632115"><ele>503.0</ele><time>2026-05-04T15:56:44Z</time></trkpt><trkpt lat="41.17856056267371" lon="15.051638593109567"><ele>505.0</ele><time>2026-05-04T15:56:45Z</time></trkpt><trkpt lat="41.17859195210948" lon="15.0515648814912"><ele>506.99999999999994</ele><time>2026-05-04T15:56:47Z</time></trkpt><trkpt lat="41.178632780251924" lon="15.051446738813354"><ele>509.0</ele><time>2026-05-04T15:56:49Z</time></trkpt><trkpt lat="41.1787366398131" lon="15.051276187243872"><ele>512.2</ele><time>2026-05-04T15:56:51Z</time></trkpt><trkpt lat="41.17880329286289" lon="15.051191349590678"><ele>515.4</ele><time>2026-05-04T15:56:52Z</time></trkpt><trkpt lat="41.17887418324747" lon="15.051066540367895"><ele>518.6</ele><time>2026-05-04T15:56:53Z</time></trkpt><trkpt lat="41.17893379877679" lon="15.050969092656754"><ele>521.8</ele><time>2026-05-04T15:56:54Z</time></trkpt><trkpt lat="41.17900927451196" lon="15.050930518700184"><ele>525.0</ele><time>2026-05-04T15:56:55.999Z</time></trkpt><trkpt lat="41.179075072879535" lon="15.05093048004698"><ele>526.6666666666666</ele><time>2026-05-04T15:56:56.999Z</time></trkpt><trkpt lat="41.1791516895292" lon="15.050923310464134"><ele>528.3333333333334</ele><time>2026-05-04T15:56:57.999Z</time></trkpt><trkpt lat="41.17923146096487" lon="15.050945269314166"><ele>530.0</ele><time>2026-05-04T15:56:58.999Z</time></trkpt><trkpt lat="41.17930787910596" lon="15.050949793320072"><ele>531.6666666666667</ele><time>2026-05-04T15:56:59.999Z</time></trkpt><trkpt lat="41.17940815748751" lon="15.050901528492053"><ele>533.3333333333334</ele><time>2026-05-04T15:57:00.999Z</time></trkpt><trkpt lat="41.179497278705476" lon="15.050846727994484"><ele>535.0</ele><time>2026-05-04T15:57:01.999Z</time></trkpt><trkpt lat="41.17956472254463" lon="15.050801275050882"><ele>535.0</ele><time>2026-05-04T15:57:02.999Z</time></trkpt><trkpt lat="41.17963695869932" lon="15.050794912987717"><ele>535.0</ele><time>2026-05-04T15:57:06.999Z</time></trkpt><trkpt lat="41.17971680767968" lon="15.050792877555342"><ele>535.0</ele><time>2026-05-04T15:57:10.999Z</time></trkpt><trkpt lat="41.17982065294984" lon="15.050808662593154"><ele>535.0</ele><time>2026-05-04T15:57:55.999Z</time></trkpt><trkpt lat="41.179897562898624" lon="15.050830008468754"><ele>535.0</ele><time>2026-05-04T15:57:57.999Z</time></trkpt><trkpt lat="41.179994163746635" lon="15.050871417379701"><ele>535.0</ele><time>2026-05-04T15:57:59.999Z</time></trkpt><trkpt lat="41.1800756141727" lon="15.050904146980685"><ele>538.8</ele><time>2026-05-04T15:58:01.999Z</time></trkpt><trkpt lat="41.18013897945363" lon="15.050930856234915"><ele>542.6</ele><time>2026-05-04T15:58:02.999Z</time></trkpt><trkpt lat="41.180261321915566" lon="15.050807791171009"><ele>546.4</ele><time>2026-05-04T15:58:04.999Z</time></trkpt><trkpt lat="41.18035474512009" lon="15.050706289887373"><ele>550.2</ele><time>2026-05-04T15:58:06.998Z</time></trkpt><trkpt lat="41.180383848310626" lon="15.05063028432877"><ele>554.0</ele><time>2026-05-04T15:58:08Z</time></trkpt><trkpt lat="41.18041331206133" lon="15.050544000969872"><ele>555.6666666666666</ele><time>2026-05-04T15:58:09Z</time></trkpt><trkpt lat="41.18044583312831" lon="15.050407636707213"><ele>557.3333333333333</ele><time>2026-05-04T15:58:11Z</time></trkpt><trkpt lat="41.18037643703249" lon="15.050354011450244"><ele>559.0</ele><time>2026-05-04T15:58:13Z</time></trkpt><trkpt lat="41.18031100121902" lon="15.050306870332113"><ele>560.6666666666666</ele><time>2026-05-04T15:58:15Z</time></trkpt><trkpt lat="41.1802709442476" lon="15.050210518828797"><ele>562.3333333333334</ele><time>2026-05-04T15:58:18Z</time></trkpt><trkpt lat="41.18024873209934" lon="15.05012807176871"><ele>564.0</ele><time>2026-05-04T15:58:19Z</time></trkpt><trkpt lat="41.180238610642974" lon="15.050026595696387"><ele>566.0</ele><time>2026-05-04T15:58:20Z</time></trkpt><trkpt lat="41.18024091856627" lon="15.049892651690168"><ele>568.0</ele><time>2026-05-04T15:58:21Z</time></trkpt><trkpt lat="41.180257514670934" lon="15.04977328480165"><ele>570.0</ele><time>2026-05-04T15:58:22Z</time></trkpt><trkpt lat="41.18028623520477" lon="15.049685140321948"><ele>572.0</ele><time>2026-05-04T15:58:23Z</time></trkpt><trkpt lat="41.18033455878751" lon="15.049618025533984"><ele>574.0</ele><time>2026-05-04T15:58:24Z</time></trkpt><trkpt lat="41.18039314226548" lon="15.049550361492972"><ele>576.0</ele><time>2026-05-04T15:58:25Z</time></trkpt><trkpt lat="41.180413583996334" lon="15.049470091598451"><ele>576.0</ele><time>2026-05-04T15:58:26Z</time></trkpt><trkpt lat="41.18043857461814" lon="15.049327261622429"><ele>576.0</ele><time>2026-05-04T15:58:27Z</time></trkpt><trkpt lat="41.18045932180515" lon="15.049219825693733"><ele>576.0</ele><time>2026-05-04T15:58:28Z</time></trkpt><trkpt lat="41.18050382314599" lon="15.049139646103955"><ele>576.0</ele><time>2026-05-04T15:58:29Z</time></trkpt><trkpt lat="41.18054870225554" lon="15.049054318215138"><ele>576.0</ele><time>2026-05-04T15:58:30Z</time></trkpt><trkpt lat="41.180576087925715" lon="15.048953614605075"><ele>576.0</ele><time>2026-05-04T15:58:31Z</time></trkpt><trkpt lat="41.1806111467971" lon="15.04885292854693"><ele>578.4</ele><time>2026-05-04T15:58:32Z</time></trkpt><trkpt lat="41.1806516706137" lon="15.04876511400722"><ele>580.8</ele><time>2026-05-04T15:58:33Z</time></trkpt><trkpt lat="41.18069422676074" lon="15.048681899387361"><ele>583.1999999999999</ele><time>2026-05-04T15:58:34Z</time></trkpt><trkpt lat="41.180722650941" lon="15.048582268580441"><ele>585.6</ele><time>2026-05-04T15:58:35Z</time></trkpt><trkpt lat="41.18062915065909" lon="15.048454353765292"><ele>588.0</ele><time>2026-05-04T15:58:36Z</time></trkpt><trkpt lat="41.180627677091664" lon="15.048344432707642"><ele>589.6666666666666</ele><time>2026-05-04T15:58:39Z</time></trkpt><trkpt lat="41.18056238453168" lon="15.04828225921245"><ele>591.3333333333334</ele><time>2026-05-04T15:58:41Z</time></trkpt><trkpt lat="41.180490909951885" lon="15.048276535214052"><ele>593.0</ele><time>2026-05-04T15:59:16.999Z</time></trkpt><trkpt lat="41.18040641957992" lon="15.048205385455331"><ele>594.6666666666667</ele><time>2026-05-04T15:59:18.999Z</time></trkpt><trkpt lat="41.18032886074271" lon="15.04816036315166"><ele>596.3333333333334</ele><time>2026-05-04T15:59:19.999Z</time></trkpt><trkpt lat="41.180239375707124" lon="15.048098062332231"><ele>598.0</ele><time>2026-05-04T15:59:20.999Z</time></trkpt><trkpt lat="41.180148975466665" lon="15.048028970669556"><ele>598.0</ele><time>2026-05-04T15:59:21.999Z</time></trkpt><trkpt lat="41.18008848708019" lon="15.04792535548297"><ele>598.0</ele><time>2026-05-04T15:59:22.999Z</time></trkpt><trkpt lat="41.180027307076365" lon="15.04786954447109"><ele>598.0</ele><time>2026-05-04T15:59:23.999Z</time></trkpt><trkpt lat="41.179969289047534" lon="15.047826243048437"><ele>598.0</ele><time>2026-05-04T15:59:25.999Z</time></trkpt><trkpt lat="41.180035286943806" lon="15.047877378197397"><ele>598.0</ele><time>2026-05-04T15:59:30.999Z</time></trkpt><trkpt lat="41.180006473498985" lon="15.048018387110174"><ele>598.0</ele><time>2026-05-04T15:59:31.999Z</time></trkpt><trkpt lat="41.1800700840026" lon="15.048101534462678"><ele>598.0</ele><time>2026-05-04T15:59:32.999Z</time></trkpt><trkpt lat="41.18013701948344" lon="15.048193816296115"><ele>598.0</ele><time>2026-05-04T15:59:33.999Z</time></trkpt><trkpt lat="41.18021560758992" lon="15.048302750793786"><ele>598.0</ele><time>2026-05-04T15:59:34.999Z</time></trkpt><trkpt lat="41.180300990688245" lon="15.04838298460435"><ele>598.0</ele><time>2026-05-04T15:59:35.999Z</time></trkpt><trkpt lat="41.18037563441199" lon="15.048444829987355"><ele>598.0</ele><time>2026-05-04T15:59:36.999Z</time></trkpt><trkpt lat="41.180430130003394" lon="15.04848998183819"><ele>595.5</ele><time>2026-05-04T15:59:37.999Z</time></trkpt><trkpt lat="41.1804840197376" lon="15.048534631707756"><ele>593.0</ele><time>2026-05-04T15:59:39.999Z</time></trkpt><trkpt lat="41.18057138150815" lon="15.048596257111504"><ele>590.5</ele><time>2026-05-04T15:59:41.999Z</time></trkpt><trkpt lat="41.180653141620944" lon="15.048659504596728"><ele>588.0</ele><time>2026-05-04T15:59:44.999Z</time></trkpt><trkpt lat="41.180417340532" lon="15.048627739120883"><ele>576.0</ele><time>2026-05-04T15:59:45.999Z</time></trkpt><trkpt lat="41.18044170084715" lon="15.049348117909867"><ele>576.0</ele><time>2026-05-04T15:59:54.999Z</time></trkpt><trkpt lat="41.180423914595195" lon="15.049433678186226"><ele>576.0</ele><time>2026-05-04T15:59:55.999Z</time></trkpt><trkpt lat="41.18040182941602" lon="15.04952271776264"><ele>576.0</ele><time>2026-05-04T15:59:56.999Z</time></trkpt><trkpt lat="41.18036342445931" lon="15.049606018221397"><ele>576.0</ele><time>2026-05-04T15:59:57.999Z</time></trkpt><trkpt lat="41.18031049949927" lon="15.049685551603888"><ele>576.0</ele><time>2026-05-04T15:59:58.999Z</time></trkpt><trkpt lat="41.180257215456564" lon="15.049747593851269"><ele>576.0</ele><time>2026-05-04T15:59:59.999Z</time></trkpt><trkpt lat="41.18021255694048" lon="15.049859862295865"><ele>573.6</ele><time>2026-05-04T16:00:01.999Z</time></trkpt><trkpt lat="41.18017464215967" lon="15.050001942541194"><ele>571.2</ele><time>2026-05-04T16:00:03.999Z</time></trkpt><trkpt lat="41.180200745496464" lon="15.050121886298882"><ele>568.8</ele><time>2026-05-04T16:00:05.999Z</time></trkpt><trkpt lat="41.180294030868524" lon="15.050240393457248"><ele>566.4</ele><time>2026-05-04T16:00:07.998Z</time></trkpt><trkpt lat="41.18035416152306" lon="15.050299112757838"><ele>564.0</ele><time>2026-05-04T16:00:09.998Z</time></trkpt><trkpt lat="41.18030744531156" lon="15.050232654507568"><ele>564.0</ele><time>2026-05-04T16:01:02.999Z</time></trkpt><trkpt lat="41.18026647370338" lon="15.050150419369379"><ele>564.0</ele><time>2026-05-04T16:01:04.999Z</time></trkpt><trkpt lat="41.180247768300134" lon="15.04999558504452"><ele>564.0</ele><time>2026-05-04T16:01:06.999Z</time></trkpt><trkpt lat="41.1802483015917" lon="15.049885934213423"><ele>564.0</ele><time>2026-05-04T16:01:07.999Z</time></trkpt><trkpt lat="41.180263862580496" lon="15.049779561678154"><ele>564.0</ele><time>2026-05-04T16:01:08.999Z</time></trkpt><trkpt lat="41.1802923218897" lon="15.049685373847112"><ele>564.0</ele><time>2026-05-04T16:01:09.999Z</time></trkpt><trkpt lat="41.18033436178093" lon="15.049607169788667"><ele>566.0</ele><time>2026-05-04T16:01:10.999Z</time></trkpt><trkpt lat="41.18038792510415" lon="15.049545807954194"><ele>568.0</ele><time>2026-05-04T16:01:11.999Z</time></trkpt><trkpt lat="41.18043254537302" lon="15.049447086122068"><ele>570.0</ele><time>2026-05-04T16:01:12.999Z</time></trkpt><trkpt lat="41.180447988388195" lon="15.049322556549374"><ele>572.0</ele><time>2026-05-04T16:01:13.999Z</time></trkpt><trkpt lat="41.18047743336188" lon="15.04920214328529"><ele>574.0</ele><time>2026-05-04T16:01:14.999Z</time></trkpt><trkpt lat="41.18052208929607" lon="15.049108491799602"><ele>576.0</ele><time>2026-05-04T16:01:15.999Z</time></trkpt><trkpt lat="41.180566214208135" lon="15.049025367669874"><ele>578.4</ele><time>2026-05-04T16:01:16.999Z</time></trkpt><trkpt lat="41.180593327011486" lon="15.04891344549173"><ele>580.8</ele><time>2026-05-04T16:01:17.999Z</time></trkpt><trkpt lat="41.18063741510835" lon="15.048794854738881"><ele>583.1999999999999</ele><time>2026-05-04T16:01:18.999Z</time></trkpt><trkpt lat="41.18070154251851" lon="15.048676636695298"><ele>585.6</ele><time>2026-05-04T16:01:19.999Z</time></trkpt><trkpt lat="41.180737522853505" lon="15.048564536687259"><ele>588.0</ele><time>2026-05-04T16:01:20.999Z</time></trkpt><trkpt lat="41.180743018849576" lon="15.048476000680127"><ele>588.0</ele><time>2026-05-04T16:01:21.999Z</time></trkpt><trkpt lat="41.18068250653124" lon="15.048369302261458"><ele>588.0</ele><time>2026-05-04T16:01:23.999Z</time></trkpt><trkpt lat="41.18056677153885" lon="15.048319904887007"><ele>588.0</ele><time>2026-05-04T16:01:25.999Z</time></trkpt><trkpt lat="41.18050885256323" lon="15.048266499138537"><ele>588.0</ele><time>2026-05-04T16:01:29.999Z</time></trkpt><trkpt lat="41.18037624811263" lon="15.048135987018771"><ele>590.0</ele><time>2026-05-04T16:01:30.999Z</time></trkpt><trkpt lat="41.18028119812114" lon="15.048070156546439"><ele>592.0</ele><time>2026-05-04T16:01:31.999Z</time></trkpt><trkpt lat="41.180192521677185" lon="15.048017312560615"><ele>594.0</ele><time>2026-05-04T16:01:32.999Z</time></trkpt><trkpt lat="41.180087590985956" lon="15.047951405182364"><ele>596.0</ele><time>2026-05-04T16:01:33.999Z</time></trkpt><trkpt lat="41.179999945932764" lon="15.04787401750589"><ele>598.0</ele><time>2026-05-04T16:01:34.999Z</time></trkpt><trkpt lat="41.17992413838283" lon="15.047765715432714"><ele>598.6</ele><time>2026-05-04T16:01:35.999Z</time></trkpt><trkpt lat="41.179840448005365" lon="15.047670814590367"><ele>599.1999999999999</ele><time>2026-05-04T16:01:36.999Z</time></trkpt><trkpt lat="41.17974032132949" lon="15.0475952992011"><ele>599.8</ele><time>2026-05-04T16:01:37.999Z</time></trkpt><trkpt lat="41.17963575373207" lon="15.047563984565901"><ele>600.4</ele><time>2026-05-04T16:01:38.999Z</time></trkpt><trkpt lat="41.17953848278036" lon="15.047487367470262"><ele>601.0</ele><time>2026-05-04T16:01:39.999Z</time></trkpt><trkpt lat="41.17943984657494" lon="15.047430790130536"><ele>601.0</ele><time>2026-05-04T16:01:40.999Z</time></trkpt><trkpt lat="41.179342505319774" lon="15.047402538092747"><ele>601.0</ele><time>2026-05-04T16:01:41.999Z</time></trkpt><trkpt lat="41.179237672020825" lon="15.04743121269063"><ele>601.0</ele><time>2026-05-04T16:01:42.999Z</time></trkpt><trkpt lat="41.17913925984269" lon="15.047480548521373"><ele>601.0</ele><time>2026-05-04T16:01:43.999Z</time></trkpt><trkpt lat="41.17904984530051" lon="15.047530688999919"><ele>601.0</ele><time>2026-05-04T16:01:44.999Z</time></trkpt><trkpt lat="41.17894876349125" lon="15.0475790108147"><ele>598.8333333333334</ele><time>2026-05-04T16:01:45.999Z</time></trkpt><trkpt lat="41.17885172341007" lon="15.047604398781091"><ele>596.6666666666667</ele><time>2026-05-04T16:01:46.999Z</time></trkpt><trkpt lat="41.17875666685859" lon="15.047618788360067"><ele>594.5</ele><time>2026-05-04T16:01:47.999Z</time></trkpt><trkpt lat="41.178681205291284" lon="15.047640209331764"><ele>592.3333333333334</ele><time>2026-05-04T16:01:48.999Z</time></trkpt><trkpt lat="41.178617335033636" lon="15.047639113348612"><ele>590.1666666666666</ele><time>2026-05-04T16:01:49.999Z</time></trkpt><trkpt lat="41.17855658331733" lon="15.04753809630045"><ele>588.0</ele><time>2026-05-04T16:01:51.999Z</time></trkpt><trkpt lat="41.17859992743729" lon="15.047465970095244"><ele>588.0</ele><time>2026-05-04T16:01:52.999Z</time></trkpt><trkpt lat="41.17855411767787" lon="15.047385716230485"><ele>601.0</ele><time>2026-05-04T16:01:55.999Z</time></trkpt></trkseg><trkseg><trkpt lat="41.17764650382211" lon="15.046148188426201"><ele>619.0</ele><time>2026-05-04T16:12:53.993Z</time></trkpt><trkpt lat="41.17758128941177" lon="15.046194977613666"><ele>619.0</ele><time>2026-05-04T16:13:04.999Z</time></trkpt><trkpt lat="41.17739520802891" lon="15.046236934258602"><ele>619.0</ele><time>2026-05-04T16:13:07Z</time></trkpt><trkpt lat="41.17729017633266" lon="15.046227120628043"><ele>619.0</ele><time>2026-05-04T16:13:08Z</time></trkpt><trkpt lat="41.1771409180812" lon="15.0461618313905"><ele>619.2</ele><time>2026-05-04T16:13:09Z</time></trkpt><trkpt lat="41.177016631666305" lon="15.046116786848351"><ele>619.4</ele><time>2026-05-04T16:13:10Z</time></trkpt><trkpt lat="41.17689270447109" lon="15.046065282534778"><ele>619.6</ele><time>2026-05-04T16:13:11Z</time></trkpt><trkpt lat="41.17679618703704" lon="15.045994289828895"><ele>619.8</ele><time>2026-05-04T16:13:12Z</time></trkpt><trkpt lat="41.17674156859067" lon="15.045919649815502"><ele>620.0</ele><time>2026-05-04T16:13:13Z</time></trkpt><trkpt lat="41.17670354779227" lon="15.045831850950494"><ele>621.25</ele><time>2026-05-04T16:13:14Z</time></trkpt><trkpt lat="41.176657518277615" lon="15.045719539380785"><ele>622.5</ele><time>2026-05-04T16:13:15Z</time></trkpt><trkpt lat="41.17658678222698" lon="15.045601133660359"><ele>623.75</ele><time>2026-05-04T16:13:16Z</time></trkpt><trkpt lat="41.17650897439214" lon="15.045486328582637"><ele>625.0</ele><time>2026-05-04T16:13:17Z</time></trkpt><trkpt lat="41.17642058003472" lon="15.045365510476907"><ele>624.0</ele><time>2026-05-04T16:13:18Z</time></trkpt><trkpt lat="41.17632325520033" lon="15.045238576208153"><ele>623.0</ele><time>2026-05-04T16:13:19Z</time></trkpt><trkpt lat="41.17623391902948" lon="15.045120928018628"><ele>622.0</ele><time>2026-05-04T16:13:20Z</time></trkpt><trkpt lat="41.176145726761234" lon="15.045021198292032"><ele>621.0</ele><time>2026-05-04T16:13:21Z</time></trkpt><trkpt lat="41.176062496809095" lon="15.044913840222103"><ele>621.0</ele><time>2026-05-04T16:13:22Z</time></trkpt><trkpt lat="41.175989822920585" lon="15.044821479866036"><ele>621.0</ele><time>2026-05-04T16:13:23Z</time></trkpt><trkpt lat="41.175946766154375" lon="15.044754724931764"><ele>621.0</ele><time>2026-05-04T16:13:24Z</time></trkpt><trkpt lat="41.17600235047568" lon="15.044575942183943"><ele>621.0</ele><time>2026-05-04T16:13:28Z</time></trkpt><trkpt lat="41.17606734782245" lon="15.044516451694637"><ele>621.0</ele><time>2026-05-04T16:13:29Z</time></trkpt><trkpt lat="41.17613979839085" lon="15.044450561338975"><ele>621.0</ele><time>2026-05-04T16:13:30Z</time></trkpt><trkpt lat="41.17625193587926" lon="15.044438602785041"><ele>621.0</ele><time>2026-05-04T16:13:31Z</time></trkpt><trkpt lat="41.17640002683816" lon="15.044410278621674"><ele>621.0</ele><time>2026-05-04T16:13:32Z</time></trkpt><trkpt lat="41.1765752738185" lon="15.044365038713067"><ele>621.0</ele><time>2026-05-04T16:13:33Z</time></trkpt><trkpt lat="41.17668838267696" lon="15.044338485726318"><ele>621.8</ele><time>2026-05-04T16:13:34Z</time></trkpt><trkpt lat="41.17677504409302" lon="15.044324078197796"><ele>622.6</ele><time>2026-05-04T16:13:35Z</time></trkpt><trkpt lat="41.17679610089583" lon="15.04421893029737"><ele>623.4</ele><time>2026-05-04T16:13:37Z</time></trkpt><trkpt lat="41.17678610216088" lon="15.0440958481533"><ele>624.2</ele><time>2026-05-04T16:13:39Z</time></trkpt><trkpt lat="41.17677410595495" lon="15.043963026930353"><ele>625.0</ele><time>2026-05-04T16:13:41Z</time></trkpt><trkpt lat="41.17673861890643" lon="15.04385308354177"><ele>621.6666666666667</ele><time>2026-05-04T16:13:42.999Z</time></trkpt><trkpt lat="41.17669982071488" lon="15.043744453088664"><ele>618.3333333333334</ele><time>2026-05-04T16:13:44.999Z</time></trkpt><trkpt lat="41.17675932958311" lon="15.043645005318295"><ele>615.0</ele><time>2026-05-04T16:13:46.999Z</time></trkpt><trkpt lat="41.17682817950594" lon="15.043620690031316"><ele>611.6666666666666</ele><time>2026-05-04T16:13:48.999Z</time></trkpt><trkpt lat="41.17693798725161" lon="15.04360389755984"><ele>608.3333333333333</ele><time>2026-05-04T16:13:50.999Z</time></trkpt><trkpt lat="41.17701631584137" lon="15.043592829157127"><ele>605.0</ele><time>2026-05-04T16:13:52.999Z</time></trkpt><trkpt lat="41.17710472566253" lon="15.04355954596118"><ele>605.0</ele><time>2026-05-04T16:13:54.999Z</time></trkpt><trkpt lat="41.17716060081488" lon="15.043491789454269"><ele>605.0</ele><time>2026-05-04T16:13:55.999Z</time></trkpt><trkpt lat="41.17715565890233" lon="15.043362395682141"><ele>605.0</ele><time>2026-05-04T16:13:57.999Z</time></trkpt><trkpt lat="41.17707882997051" lon="15.043359098254454"><ele>605.0</ele><time>2026-05-04T16:13:59.999Z</time></trkpt><trkpt lat="41.17701084260296" lon="15.043393451345374"><ele>605.0</ele><time>2026-05-04T16:14:00.999Z</time></trkpt><trkpt lat="41.1769130495665" lon="15.043406832133165"><ele>605.0</ele><time>2026-05-04T16:14:02.999Z</time></trkpt><trkpt lat="41.176832932818634" lon="15.04333984545607"><ele>600.0</ele><time>2026-05-04T16:14:04.999Z</time></trkpt><trkpt lat="41.17674068220448" lon="15.043271205450395"><ele>595.0</ele><time>2026-05-04T16:14:06.999Z</time></trkpt><trkpt lat="41.176655972544275" lon="15.043192305707413"><ele>590.0</ele><time>2026-05-04T16:14:08.999Z</time></trkpt><trkpt lat="41.17666747498222" lon="15.043108761521447"><ele>585.0</ele><time>2026-05-04T16:14:12.999Z</time></trkpt><trkpt lat="41.17674741135152" lon="15.043059112224949"><ele>580.0</ele><time>2026-05-04T16:14:14.999Z</time></trkpt><trkpt lat="41.17681595662062" lon="15.043036927355573"><ele>575.0</ele><time>2026-05-04T16:14:17.999Z</time></trkpt><trkpt lat="41.17686848627889" lon="15.042989753414808"><ele>575.0</ele><time>2026-05-04T16:14:19.999Z</time></trkpt><trkpt lat="41.176962704861275" lon="15.042914910399661"><ele>575.0</ele><time>2026-05-04T16:14:21.999Z</time></trkpt><trkpt lat="41.17703375878838" lon="15.04283911684398"><ele>575.0</ele><time>2026-05-04T16:14:23.999Z</time></trkpt><trkpt lat="41.17709328226431" lon="15.042713958671767"><ele>575.0</ele><time>2026-05-04T16:14:25.999Z</time></trkpt><trkpt lat="41.17715933277476" lon="15.042581317753688"><ele>575.0</ele><time>2026-05-04T16:14:27.999Z</time></trkpt><trkpt lat="41.1772202198054" lon="15.042486938275228"><ele>575.0</ele><time>2026-05-04T16:14:29.999Z</time></trkpt><trkpt lat="41.177294349704006" lon="15.042415682883071"><ele>575.0</ele><time>2026-05-04T16:14:31.999Z</time></trkpt><trkpt lat="41.17725789015707" lon="15.042345871728974"><ele>575.0</ele><time>2026-05-04T16:14:33.999Z</time></trkpt><trkpt lat="41.17719487581975" lon="15.04236799326574"><ele>575.0</ele><time>2026-05-04T16:14:35.999Z</time></trkpt><trkpt lat="41.177138549205345" lon="15.04243083412302"><ele>575.0</ele><time>2026-05-04T16:14:39.999Z</time></trkpt><trkpt lat="41.177068495581516" lon="15.042449183374675"><ele>575.0</ele><time>2026-05-04T16:14:52.999Z</time></trkpt><trkpt lat="41.17700078467268" lon="15.042497551364008"><ele>575.0</ele><time>2026-05-04T16:14:55.999Z</time></trkpt><trkpt lat="41.17692976692801" lon="15.042489568967131"><ele>575.0</ele><time>2026-05-04T16:14:56.999Z</time></trkpt><trkpt lat="41.176824786263" lon="15.04247220051885"><ele>575.0</ele><time>2026-05-04T16:14:58.999Z</time></trkpt><trkpt lat="41.17677648536644" lon="15.042405393199347"><ele>575.0</ele><time>2026-05-04T16:15:03Z</time></trkpt><trkpt lat="41.17669287156009" lon="15.04238184495406"><ele>575.0</ele><time>2026-05-04T16:15:07Z</time></trkpt><trkpt lat="41.1766020670391" lon="15.042312153357253"><ele>575.0</ele><time>2026-05-04T16:15:10Z</time></trkpt><trkpt lat="41.176456935573434" lon="15.042259815551894"><ele>573.6666666666666</ele><time>2026-05-04T16:15:12Z</time></trkpt><trkpt lat="41.176390792687286" lon="15.042196997614129"><ele>572.3333333333333</ele><time>2026-05-04T16:15:14Z</time></trkpt><trkpt lat="41.176351504359374" lon="15.042085001939302"><ele>571.0</ele><time>2026-05-04T16:15:16Z</time></trkpt><trkpt lat="41.176301867218854" lon="15.042003002883936"><ele>569.6666666666666</ele><time>2026-05-04T16:15:18Z</time></trkpt><trkpt lat="41.1762388584511" lon="15.041961177023321"><ele>568.3333333333334</ele><time>2026-05-04T16:15:20Z</time></trkpt><trkpt lat="41.17617512008883" lon="15.041938202757407"><ele>567.0</ele><time>2026-05-04T16:15:22Z</time></trkpt><trkpt lat="41.176113366725815" lon="15.04187059402001"><ele>567.0</ele><time>2026-05-04T16:15:24Z</time></trkpt><trkpt lat="41.17605253674752" lon="15.04181137839634"><ele>567.0</ele><time>2026-05-04T16:15:26Z</time></trkpt><trkpt lat="41.17605390722485" lon="15.04171465878933"><ele>567.0</ele><time>2026-05-04T16:15:28Z</time></trkpt><trkpt lat="41.17609766500697" lon="15.041562421888612"><ele>567.0</ele><time>2026-05-04T16:15:30Z</time></trkpt><trkpt lat="41.1761242150774" lon="15.041480227332238"><ele>567.0</ele><time>2026-05-04T16:15:31Z</time></trkpt><trkpt lat="41.1761764484728" lon="15.041339176960362"><ele>563.2</ele><time>2026-05-04T16:15:33Z</time></trkpt><trkpt lat="41.176254196132994" lon="15.041219379813482"><ele>559.4000000000001</ele><time>2026-05-04T16:15:35Z</time></trkpt><trkpt lat="41.17627914789765" lon="15.041090098353104"><ele>555.5999999999999</ele><time>2026-05-04T16:15:37Z</time></trkpt><trkpt lat="41.17630871542643" lon="15.04097951970661"><ele>551.8</ele><time>2026-05-04T16:15:39Z</time></trkpt><trkpt lat="41.17633728389301" lon="15.040871089743671"><ele>548.0</ele><time>2026-05-04T16:15:41Z</time></trkpt><trkpt lat="41.17640755685187" lon="15.040800892947887"><ele>544.6</ele><time>2026-05-04T16:15:43Z</time></trkpt><trkpt lat="41.17648367706604" lon="15.040704950090197"><ele>541.1999999999999</ele><time>2026-05-04T16:15:45Z</time></trkpt><trkpt lat="41.17653299900145" lon="15.040603859000075"><ele>537.8</ele><time>2026-05-04T16:15:47Z</time></trkpt><trkpt lat="41.17654641693424" lon="15.040498309706155"><ele>534.4</ele><time>2026-05-04T16:15:49Z</time></trkpt><trkpt lat="41.176481330980025" lon="15.040395540681981"><ele>531.0</ele><time>2026-05-04T16:15:52Z</time></trkpt><trkpt lat="41.176411261254685" lon="15.040309841522408"><ele>531.0</ele><time>2026-05-04T16:15:54Z</time></trkpt><trkpt lat="41.17637989317328" lon="15.040236656211931"><ele>531.0</ele><time>2026-05-04T16:15:55Z</time></trkpt><trkpt lat="41.176320372634734" lon="15.040163092278252"><ele>531.0</ele><time>2026-05-04T16:15:57Z</time></trkpt><trkpt lat="41.1762655305443" lon="15.040110693737942"><ele>531.0</ele><time>2026-05-04T16:15:59.999Z</time></trkpt><trkpt lat="41.17634537433021" lon="15.040077078711478"><ele>531.0</ele><time>2026-05-04T16:16:10.999Z</time></trkpt><trkpt lat="41.17644349728158" lon="15.040145221375388"><ele>531.0</ele><time>2026-05-04T16:16:12.999Z</time></trkpt><trkpt lat="41.176510540534935" lon="15.040187848490158"><ele>526.8</ele><time>2026-05-04T16:16:13.999Z</time></trkpt><trkpt lat="41.17662256028793" lon="15.040287214800907"><ele>522.6</ele><time>2026-05-04T16:16:15.999Z</time></trkpt><trkpt lat="41.17670947161975" lon="15.040348706368697"><ele>518.4</ele><time>2026-05-04T16:16:16.999Z</time></trkpt><trkpt lat="41.17676235518318" lon="15.040408051365729"><ele>514.2</ele><time>2026-05-04T16:16:17.999Z</time></trkpt><trkpt lat="41.176818498915345" lon="15.040461879828893"><ele>510.0</ele><time>2026-05-04T16:16:18.999Z</time></trkpt><trkpt lat="41.176933016484426" lon="15.040482322686893"><ele>510.0</ele><time>2026-05-04T16:16:19.999Z</time></trkpt><trkpt lat="41.177013468319224" lon="15.040491832541989"><ele>510.0</ele><time>2026-05-04T16:16:20.999Z</time></trkpt><trkpt lat="41.177097278940806" lon="15.04052906617552"><ele>510.0</ele><time>2026-05-04T16:16:21.999Z</time></trkpt><trkpt lat="41.17717424869093" lon="15.04057871044891"><ele>510.0</ele><time>2026-05-04T16:16:22.999Z</time></trkpt><trkpt lat="41.1772510948311" lon="15.040605570243656"><ele>510.0</ele><time>2026-05-04T16:16:23.999Z</time></trkpt><trkpt lat="41.177353188299485" lon="15.040676158076332"><ele>510.0</ele><time>2026-05-04T16:16:24.999Z</time></trkpt><trkpt lat="41.177446174494555" lon="15.040690032459572"><ele>509.4</ele><time>2026-05-04T16:16:25.999Z</time></trkpt><trkpt lat="41.17755741089841" lon="15.040743672394843"><ele>508.8</ele><time>2026-05-04T16:16:26.999Z</time></trkpt><trkpt lat="41.177673452288104" lon="15.04081744786892"><ele>508.20000000000005</ele><time>2026-05-04T16:16:27.999Z</time></trkpt><trkpt lat="41.17777947760509" lon="15.040866694469019"><ele>507.6</ele><time>2026-05-04T16:16:28.999Z</time></trkpt><trkpt lat="41.17785973562098" lon="15.040871190909403"><ele>507.0</ele><time>2026-05-04T16:16:29.999Z</time></trkpt><trkpt lat="41.17795091322528" lon="15.040858327789328"><ele>507.0</ele><time>2026-05-04T16:16:30.999Z</time></trkpt><trkpt lat="41.178024571944164" lon="15.040792064746231"><ele>507.00000000000006</ele><time>2026-05-04T16:16:31.999Z</time></trkpt><trkpt lat="41.17809257253386" lon="15.040807406466948"><ele>507.00000000000006</ele><time>2026-05-04T16:16:32.999Z</time></trkpt><trkpt lat="41.178195738126895" lon="15.040837657262644"><ele>507.0</ele><time>2026-05-04T16:16:34.999Z</time></trkpt><trkpt lat="41.17829315434356" lon="15.040889796263658"><ele>507.0</ele><time>2026-05-04T16:16:36.999Z</time></trkpt><trkpt lat="41.17841948581278" lon="15.040776857348"><ele>509.8333333333333</ele><time>2026-05-04T16:16:39.999Z</time></trkpt><trkpt lat="41.178480087915474" lon="15.040688571320835"><ele>512.6666666666666</ele><time>2026-05-04T16:16:41.999Z</time></trkpt><trkpt lat="41.1785598287285" lon="15.040561902007674"><ele>515.5</ele><time>2026-05-04T16:16:43.999Z</time></trkpt><trkpt lat="41.178604158951856" lon="15.040484937167188"><ele>518.3333333333333</ele><time>2026-05-04T16:16:44.999Z</time></trkpt><trkpt lat="41.178655783267644" lon="15.040432481021655"><ele>521.1666666666666</ele><time>2026-05-04T16:16:45.999Z</time></trkpt><trkpt lat="41.17871176872785" lon="15.040328921447827"><ele>524.0</ele><time>2026-05-04T16:16:47.999Z</time></trkpt><trkpt lat="41.178753046271744" lon="15.040262851849542"><ele>524.0</ele><time>2026-05-04T16:16:48.999Z</time></trkpt><trkpt lat="41.17879917448982" lon="15.040203735923374"><ele>524.0</ele><time>2026-05-04T16:16:49.999Z</time></trkpt><trkpt lat="41.17886421586692" lon="15.04014622634497"><ele>524.0</ele><time>2026-05-04T16:16:50.999Z</time></trkpt><trkpt lat="41.17894684035665" lon="15.040097809521503"><ele>524.0</ele><time>2026-05-04T16:16:51.999Z</time></trkpt><trkpt lat="41.17901172601035" lon="15.040044936896079"><ele>524.0</ele><time>2026-05-04T16:16:52.999Z</time></trkpt><trkpt lat="41.17909351500019" lon="15.03997799300462"><ele>524.0</ele><time>2026-05-04T16:16:53.999Z</time></trkpt><trkpt lat="41.17917477481569" lon="15.03988569229995"><ele>526.5</ele><time>2026-05-04T16:16:54.999Z</time></trkpt><trkpt lat="41.17927353103163" lon="15.039791124818972"><ele>529.0</ele><time>2026-05-04T16:16:55.999Z</time></trkpt><trkpt lat="41.17937068814277" lon="15.039688310913208"><ele>531.5</ele><time>2026-05-04T16:16:56.999Z</time></trkpt><trkpt lat="41.179474365789005" lon="15.039608713267269"><ele>534.0</ele><time>2026-05-04T16:16:57.999Z</time></trkpt><trkpt lat="41.1795663507744" lon="15.039527869174519"><ele>534.0</ele><time>2026-05-04T16:16:58.999Z</time></trkpt><trkpt lat="41.17964760330455" lon="15.039465491613784"><ele>534.0</ele><time>2026-05-04T16:16:59.999Z</time></trkpt><trkpt lat="41.179706183417146" lon="15.039428763715048"><ele>534.0</ele><time>2026-05-04T16:17:00.999Z</time></trkpt><trkpt lat="41.17977605980934" lon="15.039394812976498"><ele>534.0</ele><time>2026-05-04T16:17:02.999Z</time></trkpt><trkpt lat="41.179812496648225" lon="15.039250852693328"><ele>534.0</ele><time>2026-05-04T16:17:05.999Z</time></trkpt><trkpt lat="41.179815164312465" lon="15.039152150911496"><ele>534.0</ele><time>2026-05-04T16:17:07Z</time></trkpt><trkpt lat="41.179808335886804" lon="15.039026632153858"><ele>533.0</ele><time>2026-05-04T16:17:08Z</time></trkpt><trkpt lat="41.17979973297675" lon="15.038889249813826"><ele>532.0</ele><time>2026-05-04T16:17:09Z</time></trkpt><trkpt lat="41.179768025988935" lon="15.038766370040282"><ele>531.0</ele><time>2026-05-04T16:17:10Z</time></trkpt><trkpt lat="41.17972546534865" lon="15.038650711758683"><ele>530.0</ele><time>2026-05-04T16:17:11Z</time></trkpt><trkpt lat="41.179673769661925" lon="15.038533617928573"><ele>529.0</ele><time>2026-05-04T16:17:12Z</time></trkpt><trkpt lat="41.17962527677661" lon="15.038411083512608"><ele>528.2</ele><time>2026-05-04T16:17:13Z</time></trkpt><trkpt lat="41.179573668229786" lon="15.038293907037998"><ele>527.4</ele><time>2026-05-04T16:17:14Z</time></trkpt><trkpt lat="41.17953433321387" lon="15.038171932312666"><ele>526.6</ele><time>2026-05-04T16:17:15Z</time></trkpt><trkpt lat="41.17950299153296" lon="15.038057918924617"><ele>525.8</ele><time>2026-05-04T16:17:16Z</time></trkpt><trkpt lat="41.179496326399004" lon="15.037951253051803"><ele>525.0</ele><time>2026-05-04T16:17:17Z</time></trkpt><trkpt lat="41.179525584907495" lon="15.037844579065757"><ele>525.0</ele><time>2026-05-04T16:17:18Z</time></trkpt><trkpt lat="41.17956236290441" lon="15.037741022644742"><ele>525.0</ele><time>2026-05-04T16:17:19Z</time></trkpt><trkpt lat="41.17959054328298" lon="15.0376371745767"><ele>525.0</ele><time>2026-05-04T16:17:20Z</time></trkpt><trkpt lat="41.17962482501757" lon="15.037534113329274"><ele>525.0</ele><time>2026-05-04T16:17:21Z</time></trkpt><trkpt lat="41.17962347716938" lon="15.037444085674466"><ele>525.0</ele><time>2026-05-04T16:17:22Z</time></trkpt><trkpt lat="41.17957801973513" lon="15.037363045630045"><ele>525.0</ele><time>2026-05-04T16:17:23Z</time></trkpt><trkpt lat="41.179534403996584" lon="15.037267358984348"><ele>523.1666666666666</ele><time>2026-05-04T16:17:24Z</time></trkpt><trkpt lat="41.179460660968786" lon="15.037181467198081"><ele>521.3333333333334</ele><time>2026-05-04T16:17:25Z</time></trkpt><trkpt lat="41.179376559832725" lon="15.037104370432584"><ele>519.5</ele><time>2026-05-04T16:17:26Z</time></trkpt><trkpt lat="41.17931077411712" lon="15.037030738578398"><ele>517.6666666666667</ele><time>2026-05-04T16:17:27Z</time></trkpt><trkpt lat="41.17925580637704" lon="15.036955904232082"><ele>515.8333333333334</ele><time>2026-05-04T16:17:28Z</time></trkpt><trkpt lat="41.17920091901447" lon="15.036897965339506"><ele>514.0</ele><time>2026-05-04T16:17:29Z</time></trkpt><trkpt lat="41.179189925065025" lon="15.036687482943146"><ele>512.4</ele><time>2026-05-04T16:17:31Z</time></trkpt><trkpt lat="41.17921607880369" lon="15.036531849625726"><ele>510.79999999999995</ele><time>2026-05-04T16:17:32Z</time></trkpt><trkpt lat="41.179235653788986" lon="15.036371117160297"><ele>509.20000000000005</ele><time>2026-05-04T16:17:33Z</time></trkpt><trkpt lat="41.179235654798674" lon="15.03624634613792"><ele>507.6</ele><time>2026-05-04T16:17:34Z</time></trkpt><trkpt lat="41.1792218309999" lon="15.036136155065963"><ele>506.0</ele><time>2026-05-04T16:17:35Z</time></trkpt><trkpt lat="41.179208110100916" lon="15.03603046672571"><ele>505.99999999999994</ele><time>2026-05-04T16:17:36Z</time></trkpt><trkpt lat="41.17918716791595" lon="15.03594770756304"><ele>506.0</ele><time>2026-05-04T16:17:37Z</time></trkpt><trkpt lat="41.179185220331235" lon="15.035844073466029"><ele>506.0</ele><time>2026-05-04T16:17:40Z</time></trkpt><trkpt lat="41.17917675018413" lon="15.035726017152085"><ele>506.0</ele><time>2026-05-04T16:17:43Z</time></trkpt><trkpt lat="41.179167872028835" lon="15.03560952964308"><ele>505.99999999999994</ele><time>2026-05-04T16:17:45Z</time></trkpt><trkpt lat="41.179162000566876" lon="15.035525562848994"><ele>506.0</ele><time>2026-05-04T16:17:46Z</time></trkpt><trkpt lat="41.17915334401057" lon="15.035433051947809"><ele>505.0</ele><time>2026-05-04T16:17:47Z</time></trkpt><trkpt lat="41.17914456725267" lon="15.035339256358963"><ele>504.0</ele><time>2026-05-04T16:17:48Z</time></trkpt><trkpt lat="41.178810923237776" lon="15.035375975750451"><ele>503.0</ele><time>2026-05-04T16:17:50Z</time></trkpt><trkpt lat="41.1787322116796" lon="15.03536993170864"><ele>502.49999999999994</ele><time>2026-05-04T16:17:51Z</time></trkpt><trkpt lat="41.17865200907152" lon="15.035365494650797"><ele>502.0</ele><time>2026-05-04T16:17:52Z</time></trkpt><trkpt lat="41.178588785512815" lon="15.035339535215941"><ele>501.5</ele><time>2026-05-04T16:17:53Z</time></trkpt><trkpt lat="41.178500059473905" lon="15.03532666880756"><ele>501.0</ele><time>2026-05-04T16:17:54Z</time></trkpt><trkpt lat="41.178406073805306" lon="15.03531414754291"><ele>500.49999999999994</ele><time>2026-05-04T16:17:55Z</time></trkpt><trkpt lat="41.178322023002096" lon="15.035299111879029"><ele>500.0</ele><time>2026-05-04T16:17:56Z</time></trkpt><trkpt lat="41.17823294377224" lon="15.035286645741403"><ele>495.66666666666663</ele><time>2026-05-04T16:17:57Z</time></trkpt><trkpt lat="41.17815631123248" lon="15.035284048830821"><ele>491.3333333333333</ele><time>2026-05-04T16:17:58Z</time></trkpt><trkpt lat="41.17807532258095" lon="15.035274596770371"><ele>487.0</ele><time>2026-05-04T16:17:59Z</time></trkpt><trkpt lat="41.17799730689171" lon="15.035278792858525"><ele>482.66666666666663</ele><time>2026-05-04T16:18:00Z</time></trkpt><trkpt lat="41.17792019122035" lon="15.035297444569792"><ele>478.3333333333333</ele><time>2026-05-04T16:18:01Z</time></trkpt><trkpt lat="41.17783637965906" lon="15.035301062414538"><ele>474.0</ele><time>2026-05-04T16:18:02Z</time></trkpt><trkpt lat="41.177740515751374" lon="15.035311474181782"><ele>474.0</ele><time>2026-05-04T16:18:02.999Z</time></trkpt><trkpt lat="41.17766373310251" lon="15.035293730511903"><ele>474.0</ele><time>2026-05-04T16:18:03.999Z</time></trkpt><trkpt lat="41.17759074553422" lon="15.035224493010222"><ele>474.0</ele><time>2026-05-04T16:18:05.999Z</time></trkpt><trkpt lat="41.177544930689486" lon="15.035088219648504"><ele>474.0</ele><time>2026-05-04T16:18:07.999Z</time></trkpt><trkpt lat="41.177524732128916" lon="15.034869678059636"><ele>474.0</ele><time>2026-05-04T16:18:08.999Z</time></trkpt><trkpt lat="41.1774990543852" lon="15.034647048806411"><ele>474.25</ele><time>2026-05-04T16:18:09.999Z</time></trkpt><trkpt lat="41.17748778744647" lon="15.034441749042037"><ele>474.5</ele><time>2026-05-04T16:18:10.999Z</time></trkpt><trkpt lat="41.17750085802808" lon="15.03426499969636"><ele>474.75</ele><time>2026-05-04T16:18:11.999Z</time></trkpt><trkpt lat="41.17750715644467" lon="15.034089176542697"><ele>475.0</ele><time>2026-05-04T16:18:12.999Z</time></trkpt><trkpt lat="41.17754460249833" lon="15.03391137741585"><ele>472.8</ele><time>2026-05-04T16:18:13.999Z</time></trkpt><trkpt lat="41.177598004272284" lon="15.033751760048014"><ele>470.6</ele><time>2026-05-04T16:18:14.999Z</time></trkpt><trkpt lat="41.177681526048254" lon="15.033647336087242"><ele>468.4</ele><time>2026-05-04T16:18:15.999Z</time></trkpt><trkpt lat="41.17775995218078" lon="15.033576397512874"><ele>466.2</ele><time>2026-05-04T16:18:16.999Z</time></trkpt><trkpt lat="41.177841161014484" lon="15.033542474262957"><ele>464.0</ele><time>2026-05-04T16:18:17.999Z</time></trkpt><trkpt lat="41.17794166720912" lon="15.03349541969331"><ele>464.0</ele><time>2026-05-04T16:18:18.999Z</time></trkpt><trkpt lat="41.17806587037332" lon="15.033413878279012"><ele>464.0</ele><time>2026-05-04T16:18:19.999Z</time></trkpt><trkpt lat="41.17820127969477" lon="15.033340284062872"><ele>464.0</ele><time>2026-05-04T16:18:20.999Z</time></trkpt><trkpt lat="41.178257901710666" lon="15.033301287888479"><ele>464.0</ele><time>2026-05-04T16:18:21.999Z</time></trkpt><trkpt lat="41.17828250625834" lon="15.033199688042254"><ele>464.0</ele><time>2026-05-04T16:18:34.999Z</time></trkpt><trkpt lat="41.17828895362937" lon="15.033096494685203"><ele>465.16666666666663</ele><time>2026-05-04T16:18:36.999Z</time></trkpt><trkpt lat="41.17829158035534" lon="15.032982899994574"><ele>466.3333333333333</ele><time>2026-05-04T16:18:38.999Z</time></trkpt><trkpt lat="41.178282073908484" lon="15.032870554582182"><ele>467.5</ele><time>2026-05-04T16:18:40.999Z</time></trkpt><trkpt lat="41.178228053080254" lon="15.032791220427661"><ele>468.66666666666663</ele><time>2026-05-04T16:18:42.999Z</time></trkpt><trkpt lat="41.178150630725284" lon="15.03275330998406"><ele>469.8333333333333</ele><time>2026-05-04T16:18:45.999Z</time></trkpt><trkpt lat="41.1780994282035" lon="15.032691219073866"><ele>471.0</ele><time>2026-05-04T16:18:48.999Z</time></trkpt><trkpt lat="41.17808926324422" lon="15.032601679927803"><ele>466.1666666666667</ele><time>2026-05-04T16:18:51.999Z</time></trkpt><trkpt lat="41.178088945466975" lon="15.032488553443827"><ele>461.33333333333337</ele><time>2026-05-04T16:18:53.999Z</time></trkpt><trkpt lat="41.178097481354115" lon="15.032376482671665"><ele>456.5</ele><time>2026-05-04T16:18:55.999Z</time></trkpt><trkpt lat="41.178073040398154" lon="15.03224990216423"><ele>451.6666666666667</ele><time>2026-05-04T16:20:05.999Z</time></trkpt><trkpt lat="41.178075653548234" lon="15.032143375562923"><ele>446.83333333333337</ele><time>2026-05-04T16:20:07.999Z</time></trkpt><trkpt lat="41.17813302319986" lon="15.032053498695841"><ele>442.0</ele><time>2026-05-04T16:20:10.999Z</time></trkpt><trkpt lat="41.17817201402628" lon="15.031956990494054"><ele>442.1666666666667</ele><time>2026-05-04T16:20:12.999Z</time></trkpt><trkpt lat="41.178191666081" lon="15.031857218636516"><ele>442.33333333333337</ele><time>2026-05-04T16:20:15.999Z</time></trkpt><trkpt lat="41.178232635359905" lon="15.031739207608258"><ele>442.5</ele><time>2026-05-04T16:20:17.999Z</time></trkpt><trkpt lat="41.17825921555897" lon="15.031656025276595"><ele>442.66666666666663</ele><time>2026-05-04T16:20:18.999Z</time></trkpt><trkpt lat="41.17829319960601" lon="15.031547563590534"><ele>442.8333333333333</ele><time>2026-05-04T16:20:20.999Z</time></trkpt><trkpt lat="41.178358103814716" lon="15.031483612173496"><ele>443.0</ele><time>2026-05-04T16:20:22.999Z</time></trkpt><trkpt lat="41.17838654899771" lon="15.031364052057107"><ele>443.0</ele><time>2026-05-04T16:20:24.999Z</time></trkpt><trkpt lat="41.178432385324946" lon="15.031254887562975"><ele>442.99999999999994</ele><time>2026-05-04T16:20:27.999Z</time></trkpt><trkpt lat="41.178512022729" lon="15.031117251404966"><ele>442.99999999999994</ele><time>2026-05-04T16:20:29.999Z</time></trkpt><trkpt lat="41.17856612807061" lon="15.031038796467552"><ele>443.0</ele><time>2026-05-04T16:20:30.999Z</time></trkpt><trkpt lat="41.17862539857101" lon="15.030963311662642"><ele>443.0</ele><time>2026-05-04T16:20:31.999Z</time></trkpt><trkpt lat="41.1786786415093" lon="15.030884161243353"><ele>442.99999999999994</ele><time>2026-05-04T16:20:32.999Z</time></trkpt><trkpt lat="41.17872394089788" lon="15.030810775749574"><ele>443.0</ele><time>2026-05-04T16:20:33.999Z</time></trkpt><trkpt lat="41.17876278364177" lon="15.030696046817075"><ele>443.0</ele><time>2026-05-04T16:20:35.999Z</time></trkpt><trkpt lat="41.17876214962026" lon="15.030573868790878"><ele>443.0</ele><time>2026-05-04T16:20:37.999Z</time></trkpt><trkpt lat="41.17873979054438" lon="15.030452663296298"><ele>442.99999999999994</ele><time>2026-05-04T16:20:39.999Z</time></trkpt><trkpt lat="41.178714354016044" lon="15.030330969285723"><ele>443.0</ele><time>2026-05-04T16:20:41.999Z</time></trkpt><trkpt lat="41.17871179792527" lon="15.030210693418313"><ele>439.99999999999994</ele><time>2026-05-04T16:20:43.999Z</time></trkpt><trkpt lat="41.17871621517049" lon="15.030125237490731"><ele>437.0</ele><time>2026-05-04T16:20:44.999Z</time></trkpt><trkpt lat="41.178722503722284" lon="15.030034109464497"><ele>434.0</ele><time>2026-05-04T16:20:45.999Z</time></trkpt><trkpt lat="41.178728665590214" lon="15.029950757610049"><ele>431.0</ele><time>2026-05-04T16:20:46.999Z</time></trkpt><trkpt lat="41.1787379455046" lon="15.029795310144962"><ele>427.99999999999994</ele><time>2026-05-04T16:20:48.999Z</time></trkpt><trkpt lat="41.17873441363917" lon="15.029691608031273"><ele>425.0</ele><time>2026-05-04T16:20:49.999Z</time></trkpt><trkpt lat="41.17871389967977" lon="15.029590322193151"><ele>423.4</ele><time>2026-05-04T16:20:51.999Z</time></trkpt><trkpt lat="41.17871704757709" lon="15.029485151569396"><ele>421.8</ele><time>2026-05-04T16:20:54.999Z</time></trkpt><trkpt lat="41.17873662113579" lon="15.029256960040756"><ele>420.20000000000005</ele><time>2026-05-04T16:21:14.999Z</time></trkpt><trkpt lat="41.17877111053493" lon="15.029144817874524"><ele>418.6</ele><time>2026-05-04T16:21:15.999Z</time></trkpt><trkpt lat="41.178817417103296" lon="15.029046987130691"><ele>417.0</ele><time>2026-05-04T16:21:16.999Z</time></trkpt><trkpt lat="41.17889038663819" lon="15.028942689931538"><ele>418.5</ele><time>2026-05-04T16:21:17.999Z</time></trkpt><trkpt lat="41.178976171103685" lon="15.028819731156927"><ele>420.0</ele><time>2026-05-04T16:21:19Z</time></trkpt><trkpt lat="41.17903532256808" lon="15.028675053206777"><ele>421.5</ele><time>2026-05-04T16:21:20Z</time></trkpt><trkpt lat="41.1790836145626" lon="15.028555153325938"><ele>423.0</ele><time>2026-05-04T16:21:21Z</time></trkpt><trkpt lat="41.179114053134064" lon="15.028431446092016"><ele>423.0</ele><time>2026-05-04T16:21:22Z</time></trkpt><trkpt lat="41.179156268090935" lon="15.028369290313638"><ele>423.0</ele><time>2026-05-04T16:21:23Z</time></trkpt><trkpt lat="41.17922537340523" lon="15.02828689877791"><ele>423.0</ele><time>2026-05-04T16:21:24Z</time></trkpt><trkpt lat="41.17929949545496" lon="15.028199666285499"><ele>423.0</ele><time>2026-05-04T16:21:25Z</time></trkpt><trkpt lat="41.17937688016994" lon="15.028118641605944"><ele>423.0</ele><time>2026-05-04T16:21:26Z</time></trkpt><trkpt lat="41.17945802898839" lon="15.028043368107053"><ele>419.0</ele><time>2026-05-04T16:21:27Z</time></trkpt><trkpt lat="41.17952882492815" lon="15.027996574074061"><ele>415.0</ele><time>2026-05-04T16:21:28Z</time></trkpt><trkpt lat="41.17961468646159" lon="15.027967976380552"><ele>411.0</ele><time>2026-05-04T16:21:29Z</time></trkpt><trkpt lat="41.179715075393766" lon="15.027959161166192"><ele>407.0</ele><time>2026-05-04T16:21:30Z</time></trkpt><trkpt lat="41.179816086292966" lon="15.027953542826356"><ele>403.0</ele><time>2026-05-04T16:21:31Z</time></trkpt><trkpt lat="41.17990813774497" lon="15.02792717977698"><ele>402.4</ele><time>2026-05-04T16:21:32Z</time></trkpt><trkpt lat="41.17998558576989" lon="15.027876686818665"><ele>401.79999999999995</ele><time>2026-05-04T16:21:33Z</time></trkpt><trkpt lat="41.18006700774817" lon="15.02779130999862"><ele>401.2</ele><time>2026-05-04T16:21:34Z</time></trkpt><trkpt lat="41.180135868308035" lon="15.027714856972427"><ele>400.6</ele><time>2026-05-04T16:21:35Z</time></trkpt><trkpt lat="41.18021332956248" lon="15.027633910125331"><ele>400.0</ele><time>2026-05-04T16:21:36Z</time></trkpt><trkpt lat="41.180285224132724" lon="15.027570067399008"><ele>400.0</ele><time>2026-05-04T16:21:37Z</time></trkpt><trkpt lat="41.180361035684555" lon="15.027495266476542"><ele>400.0</ele><time>2026-05-04T16:21:38Z</time></trkpt><trkpt lat="41.180436683052754" lon="15.027418859668614"><ele>400.0</ele><time>2026-05-04T16:21:39Z</time></trkpt><trkpt lat="41.18050909253561" lon="15.02734694400326"><ele>400.0</ele><time>2026-05-04T16:21:40Z</time></trkpt><trkpt lat="41.180579836309384" lon="15.027267656696223"><ele>400.0</ele><time>2026-05-04T16:21:41Z</time></trkpt><trkpt lat="41.18065227203894" lon="15.027186632115237"><ele>394.8</ele><time>2026-05-04T16:21:42Z</time></trkpt><trkpt lat="41.18072673382824" lon="15.027104011819201"><ele>389.6</ele><time>2026-05-04T16:21:43Z</time></trkpt><trkpt lat="41.180801193310636" lon="15.027021274424001"><ele>384.4</ele><time>2026-05-04T16:21:44Z</time></trkpt><trkpt lat="41.180872857738045" lon="15.026944208164377"><ele>379.2</ele><time>2026-05-04T16:21:45Z</time></trkpt><trkpt lat="41.18095630916161" lon="15.026875516622395"><ele>374.0</ele><time>2026-05-04T16:21:46Z</time></trkpt><trkpt lat="41.181044922987546" lon="15.026810651440657"><ele>374.0</ele><time>2026-05-04T16:21:47Z</time></trkpt><trkpt lat="41.18112826765957" lon="15.026750983235878"><ele>374.0</ele><time>2026-05-04T16:21:48Z</time></trkpt><trkpt lat="41.18120902572544" lon="15.026697349794706"><ele>374.0</ele><time>2026-05-04T16:21:49Z</time></trkpt><trkpt lat="41.18127343253024" lon="15.02664797993592"><ele>374.0</ele><time>2026-05-04T16:21:50Z</time></trkpt><trkpt lat="41.1813400181337" lon="15.026601161462752"><ele>374.0</ele><time>2026-05-04T16:21:51Z</time></trkpt><trkpt lat="41.18141801146656" lon="15.02654987836906"><ele>374.0</ele><time>2026-05-04T16:21:52Z</time></trkpt><trkpt lat="41.181493735260005" lon="15.026501209170766"><ele>369.33333333333337</ele><time>2026-05-04T16:21:53Z</time></trkpt><trkpt lat="41.18156813620003" lon="15.026452610603503"><ele>364.6666666666667</ele><time>2026-05-04T16:21:54Z</time></trkpt><trkpt lat="41.181636537885424" lon="15.026401077646623"><ele>360.0</ele><time>2026-05-04T16:21:55Z</time></trkpt><trkpt lat="41.181691443332674" lon="15.026333770556413"><ele>355.3333333333333</ele><time>2026-05-04T16:21:56Z</time></trkpt><trkpt lat="41.1817315207229" lon="15.026239648297297"><ele>350.66666666666663</ele><time>2026-05-04T16:21:57Z</time></trkpt><trkpt lat="41.18177206874847" lon="15.026140508360097"><ele>346.0</ele><time>2026-05-04T16:21:58Z</time></trkpt><trkpt lat="41.181830432360364" lon="15.026031502291904"><ele>346.0</ele><time>2026-05-04T16:22:00Z</time></trkpt><trkpt lat="41.181904905224265" lon="15.026031747155931"><ele>346.0</ele><time>2026-05-04T16:22:03Z</time></trkpt><trkpt lat="41.18199738051461" lon="15.026048417676924"><ele>346.0</ele><time>2026-05-04T16:22:07Z</time></trkpt><trkpt lat="41.182076101488725" lon="15.026065012440641"><ele>346.0</ele><time>2026-05-04T16:22:09Z</time></trkpt><trkpt lat="41.182171671258565" lon="15.026064026817428"><ele>346.0</ele><time>2026-05-04T16:22:11Z</time></trkpt><trkpt lat="41.182246423923864" lon="15.026048302560982"><ele>346.0</ele><time>2026-05-04T16:22:13Z</time></trkpt><trkpt lat="41.18232709427362" lon="15.026025055725441"><ele>346.3333333333333</ele><time>2026-05-04T16:22:16Z</time></trkpt><trkpt lat="41.18240968548906" lon="15.026006877169221"><ele>346.6666666666667</ele><time>2026-05-04T16:22:19Z</time></trkpt><trkpt lat="41.18251846356002" lon="15.025979515134923"><ele>347.0</ele><time>2026-05-04T16:22:21.999Z</time></trkpt><trkpt lat="41.18279115284501" lon="15.025889089686064"><ele>343.25</ele><time>2026-05-04T16:22:23.999Z</time></trkpt><trkpt lat="41.182869652269815" lon="15.025768241718412"><ele>339.5</ele><time>2026-05-04T16:22:25.999Z</time></trkpt><trkpt lat="41.1829098576138" lon="15.02563683801021"><ele>335.75</ele><time>2026-05-04T16:22:27.999Z</time></trkpt><trkpt lat="41.18295035716556" lon="15.025497042632782"><ele>332.0</ele><time>2026-05-04T16:22:29.999Z</time></trkpt><trkpt lat="41.18299019818904" lon="15.025357888078002"><ele>332.0</ele><time>2026-05-04T16:22:31.999Z</time></trkpt><trkpt lat="41.183033203100926" lon="15.025288965653697"><ele>332.0</ele><time>2026-05-04T16:22:32.999Z</time></trkpt><trkpt lat="41.18307908484067" lon="15.025195255430157"><ele>332.0</ele><time>2026-05-04T16:22:33.999Z</time></trkpt><trkpt lat="41.18311676964865" lon="15.025035946251402"><ele>332.0</ele><time>2026-05-04T16:22:35.999Z</time></trkpt><trkpt lat="41.18307931615052" lon="15.024880447924026"><ele>332.0</ele><time>2026-05-04T16:22:37.999Z</time></trkpt><trkpt lat="41.18302951592035" lon="15.02477035554847"><ele>332.57142857142856</ele><time>2026-05-04T16:22:39.999Z</time></trkpt><trkpt lat="41.18297778826518" lon="15.024717201246107"><ele>333.14285714285717</ele><time>2026-05-04T16:22:41.999Z</time></trkpt><trkpt lat="41.18295396289896" lon="15.024628488052823"><ele>333.7142857142857</ele><time>2026-05-04T16:22:43.999Z</time></trkpt><trkpt lat="41.18300895288618" lon="15.02467660173242"><ele>334.2857142857143</ele><time>2026-05-04T16:22:47.999Z</time></trkpt><trkpt lat="41.182957412531536" lon="15.024618802470012"><ele>334.8571428571429</ele><time>2026-05-04T16:23:06.999Z</time></trkpt><trkpt lat="41.183001643371234" lon="15.024537450976078"><ele>335.42857142857144</ele><time>2026-05-04T16:23:08.999Z</time></trkpt><trkpt lat="41.18302285750898" lon="15.02444611989093"><ele>336.0</ele><time>2026-05-04T16:23:10.999Z</time></trkpt><trkpt lat="41.183104043019036" lon="15.024452539000908"><ele>336.0</ele><time>2026-05-04T16:23:15.999Z</time></trkpt><trkpt lat="41.1831750415422" lon="15.024441184954949"><ele>336.0</ele><time>2026-05-04T16:23:17.999Z</time></trkpt><trkpt lat="41.18327870468273" lon="15.024458553074775"><ele>336.0</ele><time>2026-05-04T16:23:19.999Z</time></trkpt><trkpt lat="41.18335734339202" lon="15.02446401295734"><ele>336.0</ele><time>2026-05-04T16:23:20.999Z</time></trkpt><trkpt lat="41.18350389995117" lon="15.024606082589203"><ele>336.0</ele><time>2026-05-04T16:23:23.999Z</time></trkpt><trkpt lat="41.18358916373045" lon="15.024678250609051"><ele>337.0</ele><time>2026-05-04T16:23:25Z</time></trkpt><trkpt lat="41.18372199274969" lon="15.02472314832318"><ele>338.0</ele><time>2026-05-04T16:23:26Z</time></trkpt><trkpt lat="41.18389896303106" lon="15.024722153184099"><ele>339.0</ele><time>2026-05-04T16:23:27Z</time></trkpt><trkpt lat="41.18401131863114" lon="15.024757861418982"><ele>340.0</ele><time>2026-05-04T16:23:28Z</time></trkpt><trkpt lat="41.18412572179874" lon="15.024845822131903"><ele>340.0</ele><time>2026-05-04T16:23:29Z</time></trkpt><trkpt lat="41.18425462789663" lon="15.02492644838066"><ele>340.0</ele><time>2026-05-04T16:23:30Z</time></trkpt><trkpt lat="41.184322653502775" lon="15.024934774378163"><ele>340.0</ele><time>2026-05-04T16:23:31Z</time></trkpt><trkpt lat="41.184411934063625" lon="15.024923029910399"><ele>340.0</ele><time>2026-05-04T16:23:32Z</time></trkpt><trkpt lat="41.18450561901499" lon="15.024919472079409"><ele>340.0</ele><time>2026-05-04T16:23:33Z</time></trkpt><trkpt lat="41.184611248649354" lon="15.024899935289104"><ele>340.0</ele><time>2026-05-04T16:23:34Z</time></trkpt><trkpt lat="41.18473353027086" lon="15.024874226177566"><ele>340.0</ele><time>2026-05-04T16:23:35Z</time></trkpt><trkpt lat="41.1848557505499" lon="15.024870947680482"><ele>340.0</ele><time>2026-05-04T16:23:36Z</time></trkpt><trkpt lat="41.18497472843904" lon="15.024846420975283"><ele>340.0</ele><time>2026-05-04T16:23:37Z</time></trkpt><trkpt lat="41.1850737114954" lon="15.024826015874405"><ele>344.6</ele><time>2026-05-04T16:23:38Z</time></trkpt><trkpt lat="41.18517240937807" lon="15.024811542514467"><ele>349.2</ele><time>2026-05-04T16:23:39Z</time></trkpt><trkpt lat="41.185259908858164" lon="15.02482019152919"><ele>353.79999999999995</ele><time>2026-05-04T16:23:40Z</time></trkpt><trkpt lat="41.18534621749236" lon="15.024873240485405"><ele>358.4</ele><time>2026-05-04T16:23:41Z</time></trkpt><trkpt lat="41.18546562855221" lon="15.024940930890358"><ele>363.0</ele><time>2026-05-04T16:23:42Z</time></trkpt><trkpt lat="41.1855909772933" lon="15.024997546453701"><ele>368.0</ele><time>2026-05-04T16:23:43Z</time></trkpt><trkpt lat="41.18570410549584" lon="15.025024813146258"><ele>373.0</ele><time>2026-05-04T16:23:44Z</time></trkpt><trkpt lat="41.18578658649533" lon="15.025073129659123"><ele>378.0</ele><time>2026-05-04T16:23:45Z</time></trkpt><trkpt lat="41.18585570753116" lon="15.025098957628485"><ele>383.0</ele><time>2026-05-04T16:23:46Z</time></trkpt><trkpt lat="41.18593242827999" lon="15.025127625362202"><ele>388.0</ele><time>2026-05-04T16:23:47Z</time></trkpt><trkpt lat="41.186008347803565" lon="15.025156673058065"><ele>393.0</ele><time>2026-05-04T16:23:48Z</time></trkpt><trkpt lat="41.186087366281434" lon="15.025188725355108"><ele>393.0</ele><time>2026-05-04T16:23:49Z</time></trkpt><trkpt lat="41.18617855708428" lon="15.025231416163479"><ele>393.0</ele><time>2026-05-04T16:23:50Z</time></trkpt><trkpt lat="41.18628005918928" lon="15.02528387678711"><ele>393.0</ele><time>2026-05-04T16:23:51Z</time></trkpt><trkpt lat="41.1863828211643" lon="15.02533748375261"><ele>393.0</ele><time>2026-05-04T16:23:52Z</time></trkpt><trkpt lat="41.186478863568055" lon="15.02539183065106"><ele>393.0</ele><time>2026-05-04T16:23:53Z</time></trkpt><trkpt lat="41.186571439771505" lon="15.025458115627703"><ele>397.5</ele><time>2026-05-04T16:23:54Z</time></trkpt><trkpt lat="41.18667703974281" lon="15.02554049203403"><ele>402.0</ele><time>2026-05-04T16:23:55Z</time></trkpt><trkpt lat="41.18677429060421" lon="15.025616355459075"><ele>406.5</ele><time>2026-05-04T16:23:56Z</time></trkpt><trkpt lat="41.18687525678243" lon="15.025678384176206"><ele>411.0</ele><time>2026-05-04T16:23:57Z</time></trkpt><trkpt lat="41.18697137162976" lon="15.025745255738343"><ele>413.6</ele><time>2026-05-04T16:23:58Z</time></trkpt><trkpt lat="41.187090559844904" lon="15.025838463527736"><ele>416.20000000000005</ele><time>2026-05-04T16:23:59Z</time></trkpt><trkpt lat="41.18718039716134" lon="15.025871769319346"><ele>418.79999999999995</ele><time>2026-05-04T16:24:00Z</time></trkpt><trkpt lat="41.187261546965004" lon="15.025898819238854"><ele>421.4</ele><time>2026-05-04T16:24:01Z</time></trkpt><trkpt lat="41.18735542874566" lon="15.025930113174141"><ele>424.0</ele><time>2026-05-04T16:24:02Z</time></trkpt><trkpt lat="41.18746990577898" lon="15.02597345022889"><ele>427.33333333333337</ele><time>2026-05-04T16:24:03Z</time></trkpt><trkpt lat="41.187561734326785" lon="15.026021155970156"><ele>430.6666666666667</ele><time>2026-05-04T16:24:04Z</time></trkpt><trkpt lat="41.18764213547019" lon="15.026064938221818"><ele>434.0</ele><time>2026-05-04T16:24:05Z</time></trkpt><trkpt lat="41.18770711179558" lon="15.026101767761675"><ele>437.33333333333337</ele><time>2026-05-04T16:24:06Z</time></trkpt><trkpt lat="41.187777369656835" lon="15.026146490173714"><ele>440.6666666666667</ele><time>2026-05-04T16:24:07Z</time></trkpt><trkpt lat="41.18783997684598" lon="15.02619714375728"><ele>444.0</ele><time>2026-05-04T16:24:08Z</time></trkpt><trkpt lat="41.187894018399476" lon="15.026256362002709"><ele>444.0</ele><time>2026-05-04T16:24:09Z</time></trkpt><trkpt lat="41.187947772455566" lon="15.026321871336206"><ele>444.0</ele><time>2026-05-04T16:24:10Z</time></trkpt><trkpt lat="41.18800784727523" lon="15.026392986439104"><ele>444.0</ele><time>2026-05-04T16:24:11Z</time></trkpt><trkpt lat="41.18805673204156" lon="15.026447870872586"><ele>444.0</ele><time>2026-05-04T16:24:12Z</time></trkpt><trkpt lat="41.18811343314751" lon="15.026489701027419"><ele>444.0</ele><time>2026-05-04T16:24:13Z</time></trkpt><trkpt lat="41.188182821039575" lon="15.026559893515168"><ele>444.0</ele><time>2026-05-04T16:24:15Z</time></trkpt><trkpt lat="41.188283072095544" lon="15.026597680188058"><ele>445.8333333333333</ele><time>2026-05-04T16:24:40.999Z</time></trkpt><trkpt lat="41.18834602348133" lon="15.02663515511841"><ele>447.66666666666663</ele><time>2026-05-04T16:24:41.999Z</time></trkpt><trkpt lat="41.18841092860056" lon="15.026663879482625"><ele>449.5</ele><time>2026-05-04T16:24:42.999Z</time></trkpt><trkpt lat="41.188471931595586" lon="15.026726870191284"><ele>451.3333333333333</ele><time>2026-05-04T16:24:43.999Z</time></trkpt><trkpt lat="41.18856653625189" lon="15.026763137448567"><ele>453.16666666666663</ele><time>2026-05-04T16:24:44.999Z</time></trkpt><trkpt lat="41.18865093761092" lon="15.026796075739385"><ele>455.0</ele><time>2026-05-04T16:24:45.999Z</time></trkpt><trkpt lat="41.188735756760586" lon="15.02683474953111"><ele>458.0</ele><time>2026-05-04T16:24:46.999Z</time></trkpt><trkpt lat="41.18881763639112" lon="15.026882498667026"><ele>461.0</ele><time>2026-05-04T16:24:47.999Z</time></trkpt><trkpt lat="41.188904566172994" lon="15.026938001335324"><ele>464.0</ele><time>2026-05-04T16:24:48.999Z</time></trkpt><trkpt lat="41.18898652644455" lon="15.026982357123556"><ele>467.0</ele><time>2026-05-04T16:24:49.999Z</time></trkpt><trkpt lat="41.189115227783354" lon="15.02702567679062"><ele>470.0</ele><time>2026-05-04T16:24:51.999Z</time></trkpt><trkpt lat="41.18918335853301" lon="15.027058818245816"><ele>470.8</ele><time>2026-05-04T16:24:52.999Z</time></trkpt><trkpt lat="41.18925486024136" lon="15.027090965772611"><ele>471.6</ele><time>2026-05-04T16:24:53.999Z</time></trkpt><trkpt lat="41.18933491041442" lon="15.027114881774217"><ele>472.4</ele><time>2026-05-04T16:24:54.999Z</time></trkpt><trkpt lat="41.18942542672689" lon="15.027176639421628"><ele>473.2</ele><time>2026-05-04T16:24:55.999Z</time></trkpt><trkpt lat="41.18952458952451" lon="15.027230947318765"><ele>474.0</ele><time>2026-05-04T16:24:56.999Z</time></trkpt><trkpt lat="41.18963168871851" lon="15.027292084637473"><ele>474.0</ele><time>2026-05-04T16:24:57.999Z</time></trkpt><trkpt lat="41.18974826688035" lon="15.027356162661095"><ele>474.0</ele><time>2026-05-04T16:24:58.999Z</time></trkpt><trkpt lat="41.18987212957942" lon="15.027396174534964"><ele>474.0</ele><time>2026-05-04T16:24:59.999Z</time></trkpt><trkpt lat="41.18998501974747" lon="15.027488871642767"><ele>474.0</ele><time>2026-05-04T16:25:00.999Z</time></trkpt><trkpt lat="41.19010147554905" lon="15.027568981463746"><ele>478.75</ele><time>2026-05-04T16:25:01.999Z</time></trkpt><trkpt lat="41.19021524526339" lon="15.02765127917021"><ele>483.5</ele><time>2026-05-04T16:25:02.999Z</time></trkpt><trkpt lat="41.190325601783094" lon="15.02773675949773"><ele>488.25</ele><time>2026-05-04T16:25:03.999Z</time></trkpt><trkpt lat="41.190437251507525" lon="15.027825525401687"><ele>493.0</ele><time>2026-05-04T16:25:04.999Z</time></trkpt><trkpt lat="41.19052065313142" lon="15.027924089657583"><ele>493.0</ele><time>2026-05-04T16:25:05.999Z</time></trkpt><trkpt lat="41.19059497880596" lon="15.028026058676554"><ele>492.99999999999994</ele><time>2026-05-04T16:25:06.999Z</time></trkpt><trkpt lat="41.19066567580892" lon="15.028147978550761"><ele>492.99999999999994</ele><time>2026-05-04T16:25:07.999Z</time></trkpt><trkpt lat="41.190734271718604" lon="15.02826661469057"><ele>493.0</ele><time>2026-05-04T16:25:08.999Z</time></trkpt><trkpt lat="41.190813568433285" lon="15.028368844170204"><ele>493.0</ele><time>2026-05-04T16:25:09.999Z</time></trkpt><trkpt lat="41.19088902122088" lon="15.02847061711737"><ele>498.79999999999995</ele><time>2026-05-04T16:25:10.999Z</time></trkpt><trkpt lat="41.19096892863552" lon="15.028539963399933"><ele>504.59999999999997</ele><time>2026-05-04T16:25:11.999Z</time></trkpt><trkpt lat="41.191034795858066" lon="15.028576380235569"><ele>510.40000000000003</ele><time>2026-05-04T16:25:12.999Z</time></trkpt><trkpt lat="41.191105732454375" lon="15.028527672492073"><ele>516.2</ele><time>2026-05-04T16:25:14.999Z</time></trkpt><trkpt lat="41.19104446499607" lon="15.028386309884667"><ele>522.0</ele><time>2026-05-04T16:25:16.999Z</time></trkpt><trkpt lat="41.190992920183184" lon="15.028301092252125"><ele>524.5</ele><time>2026-05-04T16:25:17.999Z</time></trkpt><trkpt lat="41.19093827162022" lon="15.028192254753858"><ele>527.0</ele><time>2026-05-04T16:25:18.999Z</time></trkpt><trkpt lat="41.190897440491284" lon="15.028066349635667"><ele>529.5</ele><time>2026-05-04T16:25:19.999Z</time></trkpt><trkpt lat="41.19083142524114" lon="15.027915768291894"><ele>532.0</ele><time>2026-05-04T16:25:20.999Z</time></trkpt><trkpt lat="41.19077417003236" lon="15.027754843706038"><ele>532.0</ele><time>2026-05-04T16:25:21.999Z</time></trkpt><trkpt lat="41.19071539553997" lon="15.027625158848336"><ele>532.0</ele><time>2026-05-04T16:25:22.999Z</time></trkpt><trkpt lat="41.19067140631806" lon="15.027508863483304"><ele>532.0</ele><time>2026-05-04T16:25:23.999Z</time></trkpt><trkpt lat="41.1906825816979" lon="15.027393229681822"><ele>532.0</ele><time>2026-05-04T16:25:24.999Z</time></trkpt><trkpt lat="41.190686724000415" lon="15.027264806395657"><ele>532.0</ele><time>2026-05-04T16:25:25.999Z</time></trkpt><trkpt lat="41.19069769655957" lon="15.027091720921122"><ele>530.5</ele><time>2026-05-04T16:25:26.999Z</time></trkpt><trkpt lat="41.19071299260012" lon="15.026930988886601"><ele>529.0</ele><time>2026-05-04T16:25:27.999Z</time></trkpt><trkpt lat="41.19070267277009" lon="15.026768588780454"><ele>527.5</ele><time>2026-05-04T16:25:28.999Z</time></trkpt><trkpt lat="41.190673949570304" lon="15.026586566206012"><ele>526.0</ele><time>2026-05-04T16:25:29.999Z</time></trkpt><trkpt lat="41.1906480582109" lon="15.02639522025942"><ele>516.25</ele><time>2026-05-04T16:25:31Z</time></trkpt><trkpt lat="41.19062725668375" lon="15.02621385457445"><ele>506.5</ele><time>2026-05-04T16:25:32Z</time></trkpt><trkpt lat="41.190606921170314" lon="15.026037407678004"><ele>496.75</ele><time>2026-05-04T16:25:33Z</time></trkpt><trkpt lat="41.19055533121812" lon="15.025873828406896"><ele>487.0</ele><time>2026-05-04T16:25:34Z</time></trkpt><trkpt lat="41.190486577062096" lon="15.025725761969573"><ele>487.0</ele><time>2026-05-04T16:25:35Z</time></trkpt><trkpt lat="41.19041845762404" lon="15.025585941475372"><ele>487.00000000000006</ele><time>2026-05-04T16:25:36Z</time></trkpt><trkpt lat="41.19036474824269" lon="15.02547260339842"><ele>487.00000000000006</ele><time>2026-05-04T16:25:37Z</time></trkpt><trkpt lat="41.19032724080812" lon="15.025387651365339"><ele>487.0</ele><time>2026-05-04T16:25:38Z</time></trkpt><trkpt lat="41.19031028929315" lon="15.025232971169183"><ele>487.0</ele><time>2026-05-04T16:25:40Z</time></trkpt><trkpt lat="41.19040938000757" lon="15.02506087706538"><ele>487.0</ele><time>2026-05-04T16:25:42Z</time></trkpt><trkpt lat="41.190474415664454" lon="15.025003910941283"><ele>487.00000000000006</ele><time>2026-05-04T16:25:43Z</time></trkpt><trkpt lat="41.190541845325576" lon="15.024949089400694"><ele>487.00000000000006</ele><time>2026-05-04T16:25:44Z</time></trkpt><trkpt lat="41.190616828470326" lon="15.024961690006617"><ele>487.0</ele><time>2026-05-04T16:25:45Z</time></trkpt><trkpt lat="41.19073558569042" lon="15.025057872885236"><ele>487.0</ele><time>2026-05-04T16:25:47Z</time></trkpt><trkpt lat="41.19081226677794" lon="15.025097697944302"><ele>491.33333333333337</ele><time>2026-05-04T16:25:48Z</time></trkpt><trkpt lat="41.19088566962375" lon="15.02511786211683"><ele>495.6666666666667</ele><time>2026-05-04T16:25:49Z</time></trkpt><trkpt lat="41.19096832150436" lon="15.025102824858825"><ele>500.0</ele><time>2026-05-04T16:25:50Z</time></trkpt><trkpt lat="41.1910463223288" lon="15.025103646308285"><ele>504.33333333333337</ele><time>2026-05-04T16:25:51Z</time></trkpt><trkpt lat="41.19112406348832" lon="15.025098167318417"><ele>508.6666666666667</ele><time>2026-05-04T16:25:52Z</time></trkpt><trkpt lat="41.19120908717186" lon="15.025107532837966"><ele>513.0</ele><time>2026-05-04T16:25:53Z</time></trkpt><trkpt lat="41.19129709453742" lon="15.02510837366591"><ele>513.0</ele><time>2026-05-04T16:25:54Z</time></trkpt><trkpt lat="41.1913853856195" lon="15.025109217203646"><ele>513.0</ele><time>2026-05-04T16:25:55Z</time></trkpt><trkpt lat="41.191479675179224" lon="15.025110095925445"><ele>513.0</ele><time>2026-05-04T16:25:56Z</time></trkpt><trkpt lat="41.19156652786204" lon="15.025098487071181"><ele>513.0</ele><time>2026-05-04T16:25:57Z</time></trkpt><trkpt lat="41.191659126548004" lon="15.02509548876582"><ele>513.0</ele><time>2026-05-04T16:25:58Z</time></trkpt><trkpt lat="41.19175514045554" lon="15.025100794964876"><ele>518.1999999999999</ele><time>2026-05-04T16:25:59Z</time></trkpt><trkpt lat="41.19184143268963" lon="15.025104574459895"><ele>523.4</ele><time>2026-05-04T16:26:00Z</time></trkpt><trkpt lat="41.19194080343481" lon="15.025110686335639"><ele>528.5999999999999</ele><time>2026-05-04T16:26:01Z</time></trkpt><trkpt lat="41.19202850999904" lon="15.025091630088264"><ele>533.8</ele><time>2026-05-04T16:26:02Z</time></trkpt><trkpt lat="41.19212799644967" lon="15.025077525942084"><ele>539.0</ele><time>2026-05-04T16:26:03Z</time></trkpt><trkpt lat="41.19223962274067" lon="15.025070913551117"><ele>539.0</ele><time>2026-05-04T16:26:04Z</time></trkpt><trkpt lat="41.19232840870345" lon="15.025044448476145"><ele>539.0</ele><time>2026-05-04T16:26:05Z</time></trkpt><trkpt lat="41.19240251576848" lon="15.025015935329543"><ele>539.0</ele><time>2026-05-04T16:26:06Z</time></trkpt><trkpt lat="41.192488662287005" lon="15.024974269586986"><ele>539.0</ele><time>2026-05-04T16:26:08Z</time></trkpt><trkpt lat="41.19256026752181" lon="15.02493938715995"><ele>539.0</ele><time>2026-05-04T16:26:12Z</time></trkpt><trkpt lat="41.192536586336324" lon="15.024782066165894"><ele>541.2</ele><time>2026-05-04T16:26:13Z</time></trkpt><trkpt lat="41.19253437687664" lon="15.024677788099106"><ele>543.4</ele><time>2026-05-04T16:26:14Z</time></trkpt><trkpt lat="41.192516126739704" lon="15.024561599868886"><ele>545.6</ele><time>2026-05-04T16:26:15Z</time></trkpt><trkpt lat="41.19250382216664" lon="15.024439893101789"><ele>547.8</ele><time>2026-05-04T16:26:16Z</time></trkpt><trkpt lat="41.19250347937497" lon="15.024303368782912"><ele>550.0</ele><time>2026-05-04T16:26:17Z</time></trkpt><trkpt lat="41.192487456905496" lon="15.02415977956667"><ele>550.5</ele><time>2026-05-04T16:26:18Z</time></trkpt><trkpt lat="41.19245774730033" lon="15.023999563728285"><ele>551.0</ele><time>2026-05-04T16:26:19Z</time></trkpt><trkpt lat="41.19245014154238" lon="15.02382434823371"><ele>551.5</ele><time>2026-05-04T16:26:20Z</time></trkpt><trkpt lat="41.192447016492956" lon="15.023651240835987"><ele>552.0</ele><time>2026-05-04T16:26:21Z</time></trkpt><trkpt lat="41.192448025170485" lon="15.023482391337598"><ele>552.5</ele><time>2026-05-04T16:26:22Z</time></trkpt><trkpt lat="41.192460572371395" lon="15.02329456960253"><ele>553.0</ele><time>2026-05-04T16:26:23Z</time></trkpt><trkpt lat="41.1924718341337" lon="15.023114815541375"><ele>553.5</ele><time>2026-05-04T16:26:24Z</time></trkpt><trkpt lat="41.192476675076634" lon="15.022945481495066"><ele>554.0</ele><time>2026-05-04T16:26:25Z</time></trkpt><trkpt lat="41.192477248246426" lon="15.022770554577484"><ele>554.0</ele><time>2026-05-04T16:26:26Z</time></trkpt><trkpt lat="41.19247996364525" lon="15.022611987224321"><ele>554.0</ele><time>2026-05-04T16:26:27Z</time></trkpt><trkpt lat="41.19248251026074" lon="15.022452201802567"><ele>554.0</ele><time>2026-05-04T16:26:28Z</time></trkpt><trkpt lat="41.19248210897115" lon="15.022306922568625"><ele>554.0</ele><time>2026-05-04T16:26:28.999Z</time></trkpt><trkpt lat="41.192484431940386" lon="15.02215786967548"><ele>552.8333333333333</ele><time>2026-05-04T16:26:29.999Z</time></trkpt><trkpt lat="41.192483603467366" lon="15.022025748490098"><ele>551.6666666666666</ele><time>2026-05-04T16:26:30.999Z</time></trkpt><trkpt lat="41.19247863551894" lon="15.021909478120163"><ele>550.5</ele><time>2026-05-04T16:26:31.999Z</time></trkpt><trkpt lat="41.19247752656945" lon="15.021791509900202"><ele>549.3333333333334</ele><time>2026-05-04T16:26:32.999Z</time></trkpt><trkpt lat="41.192469632698874" lon="15.021696870879282"><ele>548.1666666666667</ele><time>2026-05-04T16:26:33.999Z</time></trkpt><trkpt lat="41.19247089243018" lon="15.021579122867564"><ele>547.0</ele><time>2026-05-04T16:26:34.999Z</time></trkpt><trkpt lat="41.19246592663439" lon="15.021473608072519"><ele>546.8000000000001</ele><time>2026-05-04T16:26:35.999Z</time></trkpt><trkpt lat="41.19244228534208" lon="15.02131845790024"><ele>546.6</ele><time>2026-05-04T16:26:37.999Z</time></trkpt><trkpt lat="41.19241455535465" lon="15.021242713609045"><ele>546.4000000000001</ele><time>2026-05-04T16:26:41.999Z</time></trkpt><trkpt lat="41.192401437768105" lon="15.021333276114923"><ele>546.2</ele><time>2026-05-04T16:26:44.999Z</time></trkpt><trkpt lat="41.192410726689765" lon="15.02145211068345"><ele>546.0</ele><time>2026-05-04T16:26:46.999Z</time></trkpt><trkpt lat="41.192390806351085" lon="15.021600483721766"><ele>546.1666666666666</ele><time>2026-05-04T16:26:48.999Z</time></trkpt><trkpt lat="41.192393467428786" lon="15.021739663791141"><ele>546.3333333333334</ele><time>2026-05-04T16:26:50.999Z</time></trkpt><trkpt lat="41.19233260483058" lon="15.021667384287328"><ele>546.5</ele><time>2026-05-04T16:26:56.999Z</time></trkpt><trkpt lat="41.1922948971912" lon="15.021561315316736"><ele>546.6666666666667</ele><time>2026-05-04T16:26:58.999Z</time></trkpt><trkpt lat="41.19226262886635" lon="15.021481206849487"><ele>546.8333333333334</ele><time>2026-05-04T16:27:00.999Z</time></trkpt><trkpt lat="41.1922080658183" lon="15.021380562305184"><ele>547.0</ele><time>2026-05-04T16:27:03.999Z</time></trkpt><trkpt lat="41.19216154491207" lon="15.021289257057019"><ele>545.0</ele><time>2026-05-04T16:27:05.999Z</time></trkpt><trkpt lat="41.19215367998082" lon="15.021176268072457"><ele>543.0</ele><time>2026-05-04T16:27:07.999Z</time></trkpt><trkpt lat="41.192143263092575" lon="15.021050779215292"><ele>541.0</ele><time>2026-05-04T16:27:09.999Z</time></trkpt><trkpt lat="41.19212942083592" lon="15.020921366078575"><ele>539.0</ele><time>2026-05-04T16:27:11.999Z</time></trkpt><trkpt lat="41.19209710748725" lon="15.020825638649843"><ele>537.0</ele><time>2026-05-04T16:27:13.999Z</time></trkpt><trkpt lat="41.192039678232376" lon="15.020686722597558"><ele>537.0</ele><time>2026-05-04T16:27:15.999Z</time></trkpt><trkpt lat="41.19198530437947" lon="15.020590973848696"><ele>537.0</ele><time>2026-05-04T16:27:16.999Z</time></trkpt><trkpt lat="41.19192284197371" lon="15.02048616492665"><ele>537.0</ele><time>2026-05-04T16:27:17.999Z</time></trkpt><trkpt lat="41.19186122787952" lon="15.020414752206706"><ele>537.0</ele><time>2026-05-04T16:27:18.999Z</time></trkpt><trkpt lat="41.191765698776216" lon="15.020312762681696"><ele>537.0</ele><time>2026-05-04T16:27:19.999Z</time></trkpt><trkpt lat="41.19165105479114" lon="15.020192962252752"><ele>537.0</ele><time>2026-05-04T16:27:20.999Z</time></trkpt><trkpt lat="41.19155759099055" lon="15.020045004006473"><ele>537.0</ele><time>2026-05-04T16:27:21.999Z</time></trkpt><trkpt lat="41.191453950124156" lon="15.019926342723387"><ele>537.0</ele><time>2026-05-04T16:27:22.999Z</time></trkpt><trkpt lat="41.191372116600725" lon="15.019809072784964"><ele>537.0</ele><time>2026-05-04T16:27:23.999Z</time></trkpt><trkpt lat="41.19130695927039" lon="15.019714252617304"><ele>530.0</ele><time>2026-05-04T16:27:24.999Z</time></trkpt><trkpt lat="41.19125777249198" lon="15.019622335030169"><ele>523.0</ele><time>2026-05-04T16:27:25.999Z</time></trkpt><trkpt lat="41.19122737612604" lon="15.019502114542579"><ele>516.0</ele><time>2026-05-04T16:27:26.999Z</time></trkpt><trkpt lat="41.19119414136331" lon="15.019377783653972"><ele>509.0</ele><time>2026-05-04T16:27:27.999Z</time></trkpt><trkpt lat="41.19117135972323" lon="15.019217070503215"><ele>502.0</ele><time>2026-05-04T16:27:28.999Z</time></trkpt><trkpt lat="41.191158505550796" lon="15.019055620798628"><ele>499.8</ele><time>2026-05-04T16:27:29.999Z</time></trkpt><trkpt lat="41.191148074933935" lon="15.018912935120335"><ele>497.6</ele><time>2026-05-04T16:27:30.999Z</time></trkpt><trkpt lat="41.191150791812376" lon="15.018778203847344"><ele>495.40000000000003</ele><time>2026-05-04T16:27:31.999Z</time></trkpt><trkpt lat="41.19116562391508" lon="15.018638488471831"><ele>493.20000000000005</ele><time>2026-05-04T16:27:32.999Z</time></trkpt><trkpt lat="41.1911939462083" lon="15.018496245953415"><ele>491.0</ele><time>2026-05-04T16:27:33.999Z</time></trkpt><trkpt lat="41.19122276706448" lon="15.018365857197143"><ele>488.25</ele><time>2026-05-04T16:27:34.999Z</time></trkpt><trkpt lat="41.1912581359718" lon="15.01822340449844"><ele>485.5</ele><time>2026-05-04T16:27:35.999Z</time></trkpt><trkpt lat="41.19126408497104" lon="15.018078677082615"><ele>482.75</ele><time>2026-05-04T16:27:37Z</time></trkpt><trkpt lat="41.19125767969713" lon="15.017929771924434"><ele>480.0</ele><time>2026-05-04T16:27:38Z</time></trkpt><trkpt lat="41.1912437958532" lon="15.017772757108045"><ele>480.0</ele><time>2026-05-04T16:27:39Z</time></trkpt><trkpt lat="41.191219060942274" lon="15.017626871660672"><ele>480.0</ele><time>2026-05-04T16:27:40Z</time></trkpt><trkpt lat="41.191190967746024" lon="15.017475692169342"><ele>480.0</ele><time>2026-05-04T16:27:41Z</time></trkpt><trkpt lat="41.19117387578947" lon="15.017298869695898"><ele>480.0</ele><time>2026-05-04T16:27:42Z</time></trkpt><trkpt lat="41.191163992137454" lon="15.017120357741678"><ele>479.25</ele><time>2026-05-04T16:27:43Z</time></trkpt><trkpt lat="41.19115894649644" lon="15.016931141266447"><ele>478.5</ele><time>2026-05-04T16:27:44Z</time></trkpt><trkpt lat="41.191124648312794" lon="15.016764021357563"><ele>477.75</ele><time>2026-05-04T16:27:45Z</time></trkpt><trkpt lat="41.19108555064987" lon="15.016593571444323"><ele>477.0</ele><time>2026-05-04T16:27:46Z</time></trkpt><trkpt lat="41.19105162644741" lon="15.01639391456857"><ele>478.5</ele><time>2026-05-04T16:27:47Z</time></trkpt><trkpt lat="41.19102163534514" lon="15.016203189391078"><ele>480.0</ele><time>2026-05-04T16:27:48Z</time></trkpt><trkpt lat="41.19099478369175" lon="15.016045313574768"><ele>481.5</ele><time>2026-05-04T16:27:49Z</time></trkpt><trkpt lat="41.19095683560634" lon="15.015892021566527"><ele>483.0</ele><time>2026-05-04T16:27:50Z</time></trkpt><trkpt lat="41.19091860659781" lon="15.015766167107207"><ele>485.79999999999995</ele><time>2026-05-04T16:27:51Z</time></trkpt><trkpt lat="41.190889579843514" lon="15.015655781639113"><ele>488.59999999999997</ele><time>2026-05-04T16:27:52Z</time></trkpt><trkpt lat="41.190845578815" lon="15.015556414869783"><ele>491.40000000000003</ele><time>2026-05-04T16:27:53Z</time></trkpt><trkpt lat="41.19080603024015" lon="15.015467280725042"><ele>494.20000000000005</ele><time>2026-05-04T16:27:54Z</time></trkpt><trkpt lat="41.19073609984315" lon="15.015363974953194"><ele>497.0</ele><time>2026-05-04T16:27:56Z</time></trkpt><trkpt lat="41.19064858895043" lon="15.015287786121345"><ele>490.0</ele><time>2026-05-04T16:27:58Z</time></trkpt><trkpt lat="41.19057183231505" lon="15.01535927210081"><ele>483.00000000000006</ele><time>2026-05-04T16:27:59Z</time></trkpt><trkpt lat="41.19045337185571" lon="15.015406958889447"><ele>476.00000000000006</ele><time>2026-05-04T16:28:01Z</time></trkpt><trkpt lat="41.190365364694095" lon="15.015424808429259"><ele>469.0</ele><time>2026-05-04T16:28:02Z</time></trkpt><trkpt lat="41.19026392549015" lon="15.015414965220058"><ele>462.0</ele><time>2026-05-04T16:28:03Z</time></trkpt><trkpt lat="41.19019500215012" lon="15.015447200933883"><ele>462.0</ele><time>2026-05-04T16:28:04Z</time></trkpt><trkpt lat="41.19011099167226" lon="15.015461663106834"><ele>462.0</ele><time>2026-05-04T16:28:05Z</time></trkpt><trkpt lat="41.190035883665416" lon="15.015469365861675"><ele>462.0</ele><time>2026-05-04T16:28:06Z</time></trkpt><trkpt lat="41.18995924174947" lon="15.015474809379812"><ele>462.0</ele><time>2026-05-04T16:28:07Z</time></trkpt><trkpt lat="41.18989290850327" lon="15.015464036309162"><ele>462.0</ele><time>2026-05-04T16:28:08Z</time></trkpt><trkpt lat="41.1898193264519" lon="15.015432670760825"><ele>462.0</ele><time>2026-05-04T16:28:09Z</time></trkpt><trkpt lat="41.189741056447744" lon="15.015384377775957"><ele>457.0</ele><time>2026-05-04T16:28:10Z</time></trkpt><trkpt lat="41.189677454065226" lon="15.015330200320221"><ele>452.0</ele><time>2026-05-04T16:28:11Z</time></trkpt><trkpt lat="41.189621236029176" lon="15.015282875524727"><ele>447.0</ele><time>2026-05-04T16:28:12Z</time></trkpt><trkpt lat="41.18956134883738" lon="15.015248509045632"><ele>442.0</ele><time>2026-05-04T16:28:13Z</time></trkpt><trkpt lat="41.189428626232726" lon="15.015298072486893"><ele>437.0</ele><time>2026-05-04T16:28:15Z</time></trkpt><trkpt lat="41.18934784404485" lon="15.01536051348653"><ele>432.0</ele><time>2026-05-04T16:28:16Z</time></trkpt><trkpt lat="41.189267551357844" lon="15.015430788356802"><ele>432.0</ele><time>2026-05-04T16:28:17Z</time></trkpt><trkpt lat="41.18917198933535" lon="15.015494662586251"><ele>432.0</ele><time>2026-05-04T16:28:18Z</time></trkpt><trkpt lat="41.189067552957816" lon="15.01554741109305"><ele>432.0</ele><time>2026-05-04T16:28:19Z</time></trkpt><trkpt lat="41.18894471021046" lon="15.015608986712284"><ele>432.0</ele><time>2026-05-04T16:28:20Z</time></trkpt><trkpt lat="41.18883137288872" lon="15.015675752168983"><ele>428.0</ele><time>2026-05-04T16:28:21Z</time></trkpt><trkpt lat="41.188720543846564" lon="15.0157437662184"><ele>424.00000000000006</ele><time>2026-05-04T16:28:22Z</time></trkpt><trkpt lat="41.188624790545894" lon="15.015802501689066"><ele>420.0</ele><time>2026-05-04T16:28:23Z</time></trkpt><trkpt lat="41.188531343743215" lon="15.015838094594258"><ele>416.0</ele><time>2026-05-04T16:28:24Z</time></trkpt><trkpt lat="41.18845297813421" lon="15.01587302361785"><ele>412.0</ele><time>2026-05-04T16:28:25Z</time></trkpt><trkpt lat="41.188381194095186" lon="15.015905337152423"><ele>412.0</ele><time>2026-05-04T16:28:26Z</time></trkpt><trkpt lat="41.188299361645015" lon="15.015923870027827"><ele>412.0</ele><time>2026-05-04T16:28:27Z</time></trkpt><trkpt lat="41.188199254322775" lon="15.015926574867475"><ele>412.0</ele><time>2026-05-04T16:28:28Z</time></trkpt><trkpt lat="41.188105323665376" lon="15.01592966319228"><ele>412.0</ele><time>2026-05-04T16:28:29Z</time></trkpt><trkpt lat="41.18801327402991" lon="15.015926726909782"><ele>412.0</ele><time>2026-05-04T16:28:30Z</time></trkpt><trkpt lat="41.18789299978882" lon="15.015937496760642"><ele>407.6</ele><time>2026-05-04T16:28:31Z</time></trkpt><trkpt lat="41.18781228915215" lon="15.01590925487595"><ele>403.20000000000005</ele><time>2026-05-04T16:28:32Z</time></trkpt><trkpt lat="41.18771755781709" lon="15.015920240127343"><ele>398.8</ele><time>2026-05-04T16:28:33Z</time></trkpt><trkpt lat="41.18762587525584" lon="15.01592472269525"><ele>394.4</ele><time>2026-05-04T16:28:34Z</time></trkpt><trkpt lat="41.187543449680085" lon="15.015917677353862"><ele>390.0</ele><time>2026-05-04T16:28:35Z</time></trkpt><trkpt lat="41.187450813204194" lon="15.01587958651953"><ele>390.0</ele><time>2026-05-04T16:28:36Z</time></trkpt><trkpt lat="41.18738293676472" lon="15.015846508511903"><ele>390.0</ele><time>2026-05-04T16:28:36.999Z</time></trkpt><trkpt lat="41.18730400265172" lon="15.015805283327518"><ele>390.0</ele><time>2026-05-04T16:28:37.999Z</time></trkpt><trkpt lat="41.18722415981879" lon="15.015774647942862"><ele>390.0</ele><time>2026-05-04T16:28:38.999Z</time></trkpt><trkpt lat="41.187129947798915" lon="15.015750380623373"><ele>390.0</ele><time>2026-05-04T16:28:39.999Z</time></trkpt><trkpt lat="41.18705110312814" lon="15.015725633408726"><ele>390.0</ele><time>2026-05-04T16:28:40.999Z</time></trkpt><trkpt lat="41.18698015490634" lon="15.015724030906691"><ele>386.1666666666667</ele><time>2026-05-04T16:28:41.999Z</time></trkpt><trkpt lat="41.1869120942392" lon="15.015705970140889"><ele>382.3333333333333</ele><time>2026-05-04T16:28:42.999Z</time></trkpt><trkpt lat="41.18683380169755" lon="15.015680544459572"><ele>378.5</ele><time>2026-05-04T16:28:43.999Z</time></trkpt><trkpt lat="41.186771884186605" lon="15.015659637381841"><ele>374.66666666666663</ele><time>2026-05-04T16:28:44.999Z</time></trkpt><trkpt lat="41.18670786655759" lon="15.015640569589635"><ele>370.8333333333333</ele><time>2026-05-04T16:28:45.999Z</time></trkpt><trkpt lat="41.18662742836263" lon="15.015601510938396"><ele>367.0</ele><time>2026-05-04T16:28:47.999Z</time></trkpt><trkpt lat="41.18652709942446" lon="15.015583767647078"><ele>363.20000000000005</ele><time>2026-05-04T16:28:49.999Z</time></trkpt><trkpt lat="41.18643912036482" lon="15.015562722260741"><ele>359.4</ele><time>2026-05-04T16:28:51.999Z</time></trkpt><trkpt lat="41.18637987829079" lon="15.015494087910346"><ele>355.6</ele><time>2026-05-04T16:28:53.999Z</time></trkpt><trkpt lat="41.18633337816065" lon="15.015423976218596"><ele>351.79999999999995</ele><time>2026-05-04T16:28:54.999Z</time></trkpt><trkpt lat="41.186262503133136" lon="15.01525335802762"><ele>348.0</ele><time>2026-05-04T16:28:56.999Z</time></trkpt><trkpt lat="41.18622454399361" lon="15.015166335292204"><ele>348.0</ele><time>2026-05-04T16:28:57.999Z</time></trkpt><trkpt lat="41.18618434921952" lon="15.015057767491477"><ele>348.0</ele><time>2026-05-04T16:28:58.999Z</time></trkpt><trkpt lat="41.18614022764206" lon="15.014990601555615"><ele>348.0</ele><time>2026-05-04T16:28:59.999Z</time></trkpt><trkpt lat="41.18607324573046" lon="15.01495164781854"><ele>348.0</ele><time>2026-05-04T16:29:01.999Z</time></trkpt><trkpt lat="41.18599798138717" lon="15.014880959326732"><ele>348.0</ele><time>2026-05-04T16:29:03.999Z</time></trkpt><trkpt lat="41.18594172825238" lon="15.014834285598178"><ele>348.0</ele><time>2026-05-04T16:29:04.999Z</time></trkpt><trkpt lat="41.18590005848411" lon="15.014766352595688"><ele>347.0</ele><time>2026-05-04T16:29:05.999Z</time></trkpt><trkpt lat="41.1858260440809" lon="15.014685977301005"><ele>346.0</ele><time>2026-05-04T16:29:07.999Z</time></trkpt><trkpt lat="41.18576375130205" lon="15.014607251871862"><ele>345.0</ele><time>2026-05-04T16:29:09.999Z</time></trkpt><trkpt lat="41.185691702949484" lon="15.014541931464482"><ele>344.0</ele><time>2026-05-04T16:29:11.999Z</time></trkpt><trkpt lat="41.185616148354356" lon="15.014455174463945"><ele>343.0</ele><time>2026-05-04T16:29:13.999Z</time></trkpt><trkpt lat="41.18553830159961" lon="15.014354314849196"><ele>338.3333333333333</ele><time>2026-05-04T16:29:15.999Z</time></trkpt><trkpt lat="41.18546263861939" lon="15.014242615098366"><ele>333.66666666666663</ele><time>2026-05-04T16:29:17.999Z</time></trkpt><trkpt lat="41.18541796209842" lon="15.014183184188504"><ele>329.0</ele><time>2026-05-04T16:29:19.999Z</time></trkpt><trkpt lat="41.185366871571134" lon="15.014122455613414"><ele>324.3333333333333</ele><time>2026-05-04T16:29:21.999Z</time></trkpt><trkpt lat="41.18526239293217" lon="15.014060314885382"><ele>319.6666666666667</ele><time>2026-05-04T16:29:23.999Z</time></trkpt><trkpt lat="41.18519137877694" lon="15.014053260038805"><ele>315.0</ele><time>2026-05-04T16:29:24.999Z</time></trkpt><trkpt lat="41.18509732444943" lon="15.01397695171713"><ele>314.2</ele><time>2026-05-04T16:29:26.999Z</time></trkpt><trkpt lat="41.185048764520474" lon="15.013860903527522"><ele>313.4</ele><time>2026-05-04T16:29:28.999Z</time></trkpt><trkpt lat="41.185032495251235" lon="15.013752836796316"><ele>312.6</ele><time>2026-05-04T16:29:30.999Z</time></trkpt><trkpt lat="41.185015075813006" lon="15.01363472685971"><ele>311.8</ele><time>2026-05-04T16:29:33.999Z</time></trkpt><trkpt lat="41.185002397817996" lon="15.013502563405588"><ele>311.0</ele><time>2026-05-04T16:29:36.999Z</time></trkpt><trkpt lat="41.18502231723683" lon="15.013386267874127"><ele>311.6</ele><time>2026-05-04T16:29:38.999Z</time></trkpt><trkpt lat="41.18505096473394" lon="15.013244606453792"><ele>312.20000000000005</ele><time>2026-05-04T16:29:40.999Z</time></trkpt><trkpt lat="41.18504686114628" lon="15.01311355257117"><ele>312.79999999999995</ele><time>2026-05-04T16:29:43Z</time></trkpt><trkpt lat="41.18498571956871" lon="15.012968279030936"><ele>313.4</ele><time>2026-05-04T16:29:45Z</time></trkpt><trkpt lat="41.184953819692666" lon="15.012877235277982"><ele>314.0</ele><time>2026-05-04T16:29:46Z</time></trkpt><trkpt lat="41.18490589588786" lon="15.012770271377088"><ele>314.0</ele><time>2026-05-04T16:29:47Z</time></trkpt><trkpt lat="41.184873763668136" lon="15.012648016514445"><ele>314.0</ele><time>2026-05-04T16:29:48Z</time></trkpt><trkpt lat="41.1848371002386" lon="15.012522409636333"><ele>314.0</ele><time>2026-05-04T16:29:49Z</time></trkpt><trkpt lat="41.18481241767363" lon="15.012391873994869"><ele>314.0</ele><time>2026-05-04T16:29:50Z</time></trkpt><trkpt lat="41.18478968507014" lon="15.012293819811973"><ele>314.0</ele><time>2026-05-04T16:29:51Z</time></trkpt><trkpt lat="41.184764235654" lon="15.012174273490004"><ele>310.59999999999997</ele><time>2026-05-04T16:29:53Z</time></trkpt><trkpt lat="41.184737751145974" lon="15.012035781705475"><ele>307.2</ele><time>2026-05-04T16:29:55Z</time></trkpt><trkpt lat="41.184722254143594" lon="15.011942174408706"><ele>303.79999999999995</ele><time>2026-05-04T16:29:56Z</time></trkpt><trkpt lat="41.18470089812073" lon="15.011856682789437"><ele>300.4</ele><time>2026-05-04T16:29:57Z</time></trkpt><trkpt lat="41.18465595737459" lon="15.011696142779616"><ele>297.0</ele><time>2026-05-04T16:29:59Z</time></trkpt><trkpt lat="41.184624366118385" lon="15.011603832970911"><ele>296.8333333333333</ele><time>2026-05-04T16:30:00Z</time></trkpt><trkpt lat="41.18457982413407" lon="15.01150238795843"><ele>296.6666666666667</ele><time>2026-05-04T16:30:01Z</time></trkpt><trkpt lat="41.184551239107336" lon="15.011416351283199"><ele>296.5</ele><time>2026-05-04T16:30:02Z</time></trkpt><trkpt lat="41.184526936970656" lon="15.01133342444476"><ele>296.33333333333337</ele><time>2026-05-04T16:30:03Z</time></trkpt><trkpt lat="41.18448792383166" lon="15.011184156229161"><ele>296.1666666666667</ele><time>2026-05-04T16:30:05Z</time></trkpt><trkpt lat="41.18446631412409" lon="15.011104134736753"><ele>296.0</ele><time>2026-05-04T16:30:06Z</time></trkpt><trkpt lat="41.18445347514207" lon="15.011009858699861"><ele>296.0</ele><time>2026-05-04T16:30:07Z</time></trkpt><trkpt lat="41.184453698708474" lon="15.01090235023854"><ele>296.0</ele><time>2026-05-04T16:30:08Z</time></trkpt><trkpt lat="41.18445823708717" lon="15.010792749918387"><ele>296.0</ele><time>2026-05-04T16:30:09Z</time></trkpt><trkpt lat="41.184461600726706" lon="15.010679442521203"><ele>296.0</ele><time>2026-05-04T16:30:10Z</time></trkpt><trkpt lat="41.18445194197483" lon="15.010575328983725"><ele>296.0</ele><time>2026-05-04T16:30:11Z</time></trkpt><trkpt lat="41.18436480229035" lon="15.010437683705486"><ele>295.5</ele><time>2026-05-04T16:30:13Z</time></trkpt><trkpt lat="41.184314093426" lon="15.010359955264379"><ele>295.0</ele><time>2026-05-04T16:30:14Z</time></trkpt><trkpt lat="41.18422573235469" lon="15.0102606749606"><ele>294.5</ele><time>2026-05-04T16:30:16Z</time></trkpt><trkpt lat="41.184179294617174" lon="15.01020038476406"><ele>294.0</ele><time>2026-05-04T16:30:18Z</time></trkpt><trkpt lat="41.18414888092184" lon="15.01012252261727"><ele>293.5</ele><time>2026-05-04T16:32:30Z</time></trkpt><trkpt lat="41.18409888393267" lon="15.009984238234289"><ele>293.0</ele><time>2026-05-04T16:32:34Z</time></trkpt><trkpt lat="41.18408347827342" lon="15.009879189348293"><ele>293.0</ele><time>2026-05-04T16:32:35Z</time></trkpt><trkpt lat="41.184101873289926" lon="15.009680530545669"><ele>293.0</ele><time>2026-05-04T16:32:37Z</time></trkpt><trkpt lat="41.184130207736075" lon="15.00956279239505"><ele>293.0</ele><time>2026-05-04T16:32:38Z</time></trkpt><trkpt lat="41.184170008856654" lon="15.009467466477778"><ele>293.0</ele><time>2026-05-04T16:32:39Z</time></trkpt><trkpt lat="41.18421718196749" lon="15.009391233890664"><ele>293.0</ele><time>2026-05-04T16:32:40Z</time></trkpt><trkpt lat="41.184289063417495" lon="15.00930841429509"><ele>293.0</ele><time>2026-05-04T16:32:41Z</time></trkpt><trkpt lat="41.18435711514104" lon="15.00922698121521"><ele>293.0</ele><time>2026-05-04T16:32:42Z</time></trkpt><trkpt lat="41.184409150571234" lon="15.009153130049711"><ele>293.0</ele><time>2026-05-04T16:32:43Z</time></trkpt><trkpt lat="41.18443296383824" lon="15.009016934795632"><ele>293.0</ele><time>2026-05-04T16:32:45Z</time></trkpt><trkpt lat="41.184431910644044" lon="15.008882331871838"><ele>293.0</ele><time>2026-05-04T16:32:46.999Z</time></trkpt><trkpt lat="41.18447484283413" lon="15.008784578031557"><ele>293.0</ele><time>2026-05-04T16:32:48.999Z</time></trkpt><trkpt lat="41.1845371557671" lon="15.008599499413265"><ele>293.0</ele><time>2026-05-04T16:32:50.999Z</time></trkpt><trkpt lat="41.18459597201998" lon="15.008480131623756"><ele>293.0</ele><time>2026-05-04T16:32:52.999Z</time></trkpt><trkpt lat="41.184633048038485" lon="15.00840203947076"><ele>293.0</ele><time>2026-05-04T16:32:55.999Z</time></trkpt><trkpt lat="41.18467816760439" lon="15.008308516635655"><ele>293.0</ele><time>2026-05-04T16:32:56.999Z</time></trkpt><trkpt lat="41.184720549675944" lon="15.008183992676537"><ele>293.0</ele><time>2026-05-04T16:32:59.999Z</time></trkpt><trkpt lat="41.1847125761687" lon="15.008078414425853"><ele>293.0</ele><time>2026-05-04T16:33:03.999Z</time></trkpt><trkpt lat="41.18465974525309" lon="15.00802838427609"><ele>293.0</ele><time>2026-05-04T16:33:05.999Z</time></trkpt><trkpt lat="41.18465656548448" lon="15.007941037576714"><ele>293.0</ele><time>2026-05-04T16:33:07.999Z</time></trkpt><trkpt lat="41.184493179390145" lon="15.007354240925885"><ele>293.0</ele><time>2026-05-04T16:33:09.999Z</time></trkpt><trkpt lat="41.18447361793029" lon="15.00725430018577"><ele>293.0</ele><time>2026-05-04T16:33:10.999Z</time></trkpt><trkpt lat="41.184475697446196" lon="15.007157858971672"><ele>293.0</ele><time>2026-05-04T16:33:11.999Z</time></trkpt><trkpt lat="41.18452459592674" lon="15.007084145489648"><ele>293.0</ele><time>2026-05-04T16:33:12.999Z</time></trkpt><trkpt lat="41.18459480823266" lon="15.007061133896281"><ele>293.0</ele><time>2026-05-04T16:33:13.999Z</time></trkpt><trkpt lat="41.18469327957756" lon="15.006976056900623"><ele>293.0</ele><time>2026-05-04T16:33:15.999Z</time></trkpt><trkpt lat="41.18473373215901" lon="15.006756869367406"><ele>294.6</ele><time>2026-05-04T16:33:17.999Z</time></trkpt><trkpt lat="41.18476709896593" lon="15.00663727864656"><ele>296.20000000000005</ele><time>2026-05-04T16:33:18.999Z</time></trkpt><trkpt lat="41.184794557158" lon="15.006534184009965"><ele>297.8</ele><time>2026-05-04T16:33:19.999Z</time></trkpt><trkpt lat="41.184835960429915" lon="15.006412253179086"><ele>299.40000000000003</ele><time>2026-05-04T16:33:20.999Z</time></trkpt><trkpt lat="41.184900433546886" lon="15.006277726274483"><ele>301.0</ele><time>2026-05-04T16:33:22.999Z</time></trkpt><trkpt lat="41.184991373010035" lon="15.00609543838521"><ele>305.0</ele><time>2026-05-04T16:33:24.999Z</time></trkpt><trkpt lat="41.18503753856604" lon="15.005996778626063"><ele>309.0</ele><time>2026-05-04T16:33:25.999Z</time></trkpt><trkpt lat="41.18506163985759" lon="15.00588963646184"><ele>313.0</ele><time>2026-05-04T16:33:26.999Z</time></trkpt><trkpt lat="41.18507162840288" lon="15.005748893964864"><ele>317.0</ele><time>2026-05-04T16:33:27.999Z</time></trkpt><trkpt lat="41.18509626370675" lon="15.005615471068316"><ele>321.0</ele><time>2026-05-04T16:33:28.999Z</time></trkpt><trkpt lat="41.185138149689976" lon="15.005505183936119"><ele>321.0</ele><time>2026-05-04T16:33:30.999Z</time></trkpt><trkpt lat="41.18518931358425" lon="15.005423533763214"><ele>321.0</ele><time>2026-05-04T16:33:32.999Z</time></trkpt><trkpt lat="41.185228100295525" lon="15.005520209626836"><ele>321.0</ele><time>2026-05-04T16:33:35.999Z</time></trkpt><trkpt lat="41.185237708296704" lon="15.005653805167285"><ele>321.0</ele><time>2026-05-04T16:33:37.999Z</time></trkpt><trkpt lat="41.18527677782408" lon="15.005735693443116"><ele>321.0</ele><time>2026-05-04T16:33:40.999Z</time></trkpt><trkpt lat="41.18532775740106" lon="15.005793694753134"><ele>321.0</ele><time>2026-05-04T16:33:42.999Z</time></trkpt><trkpt lat="41.18535631151893" lon="15.00589679026033"><ele>321.8333333333333</ele><time>2026-05-04T16:33:45.999Z</time></trkpt><trkpt lat="41.18541099461444" lon="15.005989326937717"><ele>322.6666666666667</ele><time>2026-05-04T16:33:48.999Z</time></trkpt><trkpt lat="41.185472211278025" lon="15.006091439614158"><ele>323.5</ele><time>2026-05-04T16:33:50.999Z</time></trkpt><trkpt lat="41.18552966589678" lon="15.006135391742918"><ele>324.33333333333337</ele><time>2026-05-04T16:33:52.999Z</time></trkpt><trkpt lat="41.18557000522358" lon="15.006206795329872"><ele>325.1666666666667</ele><time>2026-05-04T16:33:56Z</time></trkpt><trkpt lat="41.18564290182149" lon="15.006290956743777"><ele>326.0</ele><time>2026-05-04T16:34:13Z</time></trkpt><trkpt lat="41.18566725013299" lon="15.006410907166876"><ele>325.6666666666667</ele><time>2026-05-04T16:34:15Z</time></trkpt><trkpt lat="41.18568944648744" lon="15.006531831138076"><ele>325.33333333333337</ele><time>2026-05-04T16:34:17Z</time></trkpt><trkpt lat="41.18569447061201" lon="15.006657219550991"><ele>325.0</ele><time>2026-05-04T16:34:19Z</time></trkpt><trkpt lat="41.185661509733286" lon="15.006759449203532"><ele>324.6666666666667</ele><time>2026-05-04T16:34:22Z</time></trkpt><trkpt lat="41.18569455769722" lon="15.006854029741321"><ele>324.3333333333333</ele><time>2026-05-04T16:34:25Z</time></trkpt><trkpt lat="41.185764485497785" lon="15.006823433803737"><ele>324.0</ele><time>2026-05-04T16:34:27Z</time></trkpt><trkpt lat="41.18585581189014" lon="15.006787389674134"><ele>327.7142857142857</ele><time>2026-05-04T16:34:29Z</time></trkpt><trkpt lat="41.185920288696884" lon="15.006775026099277"><ele>331.42857142857144</ele><time>2026-05-04T16:34:30Z</time></trkpt><trkpt lat="41.18599372610459" lon="15.006764464116651"><ele>335.1428571428571</ele><time>2026-05-04T16:34:31Z</time></trkpt><trkpt lat="41.186019145761975" lon="15.006636933774015"><ele>338.8571428571429</ele><time>2026-05-04T16:34:33Z</time></trkpt><trkpt lat="41.185988116789325" lon="15.006721375728928"><ele>342.57142857142856</ele><time>2026-05-04T16:34:48Z</time></trkpt><trkpt lat="41.185927891928294" lon="15.00676581841179"><ele>346.2857142857143</ele><time>2026-05-04T16:34:55Z</time></trkpt><trkpt lat="41.18586005800623" lon="15.006791818592879"><ele>350.0</ele><time>2026-05-04T16:34:59.999Z</time></trkpt><trkpt lat="41.18592124881023" lon="15.006769412884159"><ele>350.0</ele><time>2026-05-04T16:36:07Z</time></trkpt><trkpt lat="41.185979546983184" lon="15.00673098895737"><ele>350.0</ele><time>2026-05-04T16:36:26Z</time></trkpt><trkpt lat="41.1860177819957" lon="15.006652933751916"><ele>350.0</ele><time>2026-05-04T16:37:48.999Z</time></trkpt><trkpt lat="41.18599364851298" lon="15.006573122609035"><ele>350.0</ele><time>2026-05-04T16:40:46.999Z</time></trkpt><trkpt lat="41.1859840274008" lon="15.00643920292689"><ele>350.0</ele><time>2026-05-04T16:41:25.999Z</time></trkpt><trkpt lat="41.18597026467441" lon="15.006333063628382"><ele>350.0</ele><time>2026-05-04T16:41:28.999Z</time></trkpt><trkpt lat="41.185971809917625" lon="15.006227513833133"><ele>350.0</ele><time>2026-05-04T16:41:33.999Z</time></trkpt><trkpt lat="41.186031868983804" lon="15.006188172351493"><ele>350.0</ele><time>2026-05-04T16:41:35.999Z</time></trkpt><trkpt lat="41.18611635957418" lon="15.006195568667126"><ele>350.0</ele><time>2026-05-04T16:41:37.999Z</time></trkpt><trkpt lat="41.18618104615794" lon="15.006197821548392"><ele>350.0</ele><time>2026-05-04T16:41:39.999Z</time></trkpt><trkpt lat="41.18623735230018" lon="15.00625696083777"><ele>350.0</ele><time>2026-05-04T16:41:42.999Z</time></trkpt><trkpt lat="41.18617994742487" lon="15.006320470147921"><ele>350.0</ele><time>2026-05-04T16:41:45.999Z</time></trkpt><trkpt lat="41.18615829107018" lon="15.006410373180547"><ele>350.0</ele><time>2026-05-04T16:42:05.999Z</time></trkpt><trkpt lat="41.186192425418696" lon="15.00650363349995"><ele>350.0</ele><time>2026-05-04T16:42:08.999Z</time></trkpt><trkpt lat="41.18626517617972" lon="15.00651604591122"><ele>350.0</ele><time>2026-05-04T16:42:10.999Z</time></trkpt><trkpt lat="41.186370291764476" lon="15.006504729761295"><ele>350.0</ele><time>2026-05-04T16:42:12.999Z</time></trkpt><trkpt lat="41.186444865042354" lon="15.006506002102597"><ele>350.0</ele><time>2026-05-04T16:42:13.999Z</time></trkpt><trkpt lat="41.186521480889354" lon="15.006520707601549"><ele>350.0</ele><time>2026-05-04T16:42:14.999Z</time></trkpt><trkpt lat="41.18658921616472" lon="15.006540196989363"><ele>350.0</ele><time>2026-05-04T16:42:15.999Z</time></trkpt><trkpt lat="41.18665067201883" lon="15.006563852072615"><ele>352.42857142857144</ele><time>2026-05-04T16:42:16.999Z</time></trkpt><trkpt lat="41.18670389484173" lon="15.006614577117636"><ele>354.8571428571429</ele><time>2026-05-04T16:42:17.999Z</time></trkpt><trkpt lat="41.18676557650805" lon="15.006688766986658"><ele>357.2857142857143</ele><time>2026-05-04T16:42:21.999Z</time></trkpt><trkpt lat="41.18682725717649" lon="15.006736675368131"><ele>359.7142857142857</ele><time>2026-05-04T16:42:23.999Z</time></trkpt><trkpt lat="41.18689088550106" lon="15.006776026144934"><ele>362.14285714285717</ele><time>2026-05-04T16:42:25.999Z</time></trkpt><trkpt lat="41.18696155257271" lon="15.006810278164206"><ele>364.57142857142856</ele><time>2026-05-04T16:42:27.999Z</time></trkpt><trkpt lat="41.18702316440464" lon="15.006851195103703"><ele>367.0</ele><time>2026-05-04T16:42:28.999Z</time></trkpt><trkpt lat="41.18708265714933" lon="15.006898714191244"><ele>371.0</ele><time>2026-05-04T16:42:29.999Z</time></trkpt><trkpt lat="41.187141628611016" lon="15.006948740071003"><ele>375.0</ele><time>2026-05-04T16:42:30.999Z</time></trkpt><trkpt lat="41.18727189413027" lon="15.007006838135347"><ele>379.0</ele><time>2026-05-04T16:42:32.999Z</time></trkpt><trkpt lat="41.18737654957571" lon="15.007024213476607"><ele>383.0</ele><time>2026-05-04T16:42:33.999Z</time></trkpt><trkpt lat="41.187464065635545" lon="15.00705985262527"><ele>387.0</ele><time>2026-05-04T16:42:34.999Z</time></trkpt><trkpt lat="41.18751960617407" lon="15.007112770286339"><ele>387.6</ele><time>2026-05-04T16:42:35.999Z</time></trkpt><trkpt lat="41.187635593489496" lon="15.007168654087247"><ele>388.20000000000005</ele><time>2026-05-04T16:42:37.999Z</time></trkpt><trkpt lat="41.18774783945902" lon="15.007205182043725"><ele>388.8</ele><time>2026-05-04T16:42:40Z</time></trkpt><trkpt lat="41.18781891431278" lon="15.007221151953313"><ele>389.4</ele><time>2026-05-04T16:42:41Z</time></trkpt><trkpt lat="41.18789611514428" lon="15.007249821146"><ele>390.0</ele><time>2026-05-04T16:42:42Z</time></trkpt><trkpt lat="41.187961015370846" lon="15.00727856759265"><ele>390.0</ele><time>2026-05-04T16:42:43Z</time></trkpt><trkpt lat="41.1880409174898" lon="15.007319397432878"><ele>390.0</ele><time>2026-05-04T16:42:44Z</time></trkpt><trkpt lat="41.188119189521245" lon="15.00734838458845"><ele>390.0</ele><time>2026-05-04T16:42:45Z</time></trkpt><trkpt lat="41.188208709204694" lon="15.007372897558023"><ele>390.0</ele><time>2026-05-04T16:42:46Z</time></trkpt><trkpt lat="41.18828339841405" lon="15.00739588275832"><ele>390.0</ele><time>2026-05-04T16:42:47Z</time></trkpt><trkpt lat="41.18835605129053" lon="15.007413195152491"><ele>390.0</ele><time>2026-05-04T16:42:48Z</time></trkpt><trkpt lat="41.18846619197362" lon="15.007479255804956"><ele>393.1666666666667</ele><time>2026-05-04T16:42:50Z</time></trkpt><trkpt lat="41.18858331848003" lon="15.007500706318174"><ele>396.33333333333337</ele><time>2026-05-04T16:42:52Z</time></trkpt><trkpt lat="41.188653244379786" lon="15.007510582264482"><ele>399.5</ele><time>2026-05-04T16:42:53Z</time></trkpt><trkpt lat="41.18873785629248" lon="15.007512335000282"><ele>402.6666666666667</ele><time>2026-05-04T16:42:54Z</time></trkpt><trkpt lat="41.18881215615566" lon="15.007475942946828"><ele>405.83333333333337</ele><time>2026-05-04T16:42:56Z</time></trkpt><trkpt lat="41.18881573219092" lon="15.00737553171462"><ele>409.0</ele><time>2026-05-04T16:42:58Z</time></trkpt><trkpt lat="41.188810648106546" lon="15.007283175637681"><ele>409.00000000000006</ele><time>2026-05-04T16:43:01Z</time></trkpt><trkpt lat="41.1888221490999" lon="15.007160036045496"><ele>409.0</ele><time>2026-05-04T16:43:04Z</time></trkpt><trkpt lat="41.18882876120441" lon="15.007076512826057"><ele>409.0</ele><time>2026-05-04T16:43:06Z</time></trkpt><trkpt lat="41.18882020061081" lon="15.006974254982344"><ele>409.0</ele><time>2026-05-04T16:43:07Z</time></trkpt><trkpt lat="41.18880351908925" lon="15.006838543397954"><ele>409.00000000000006</ele><time>2026-05-04T16:43:10Z</time></trkpt><trkpt lat="41.1887688638082" lon="15.006702714666071"><ele>409.0</ele><time>2026-05-04T16:43:12Z</time></trkpt><trkpt lat="41.18877790733679" lon="15.006377063630115"><ele>408.83333333333337</ele><time>2026-05-04T16:43:13Z</time></trkpt><trkpt lat="41.18875632692529" lon="15.006285332887407"><ele>408.6666666666667</ele><time>2026-05-04T16:43:14Z</time></trkpt><trkpt lat="41.188744193428754" lon="15.006197878530555"><ele>408.5</ele><time>2026-05-04T16:43:15Z</time></trkpt><trkpt lat="41.18875522320398" lon="15.006081108040114"><ele>408.33333333333337</ele><time>2026-05-04T16:43:16Z</time></trkpt><trkpt lat="41.188739038820785" lon="15.005981398675605"><ele>408.1666666666667</ele><time>2026-05-04T16:43:17Z</time></trkpt><trkpt lat="41.188728700807566" lon="15.005880562628981"><ele>408.0</ele><time>2026-05-04T16:43:18Z</time></trkpt><trkpt lat="41.188709256275885" lon="15.00578541930665"><ele>407.5</ele><time>2026-05-04T16:43:19Z</time></trkpt><trkpt lat="41.18868064632412" lon="15.00568879341604"><ele>407.0</ele><time>2026-05-04T16:43:20Z</time></trkpt><trkpt lat="41.188652339992295" lon="15.005579139184979"><ele>406.5</ele><time>2026-05-04T16:43:21Z</time></trkpt><trkpt lat="41.18863513438599" lon="15.005478388399023"><ele>406.0</ele><time>2026-05-04T16:43:22Z</time></trkpt><trkpt lat="41.18864669268629" lon="15.005367715942874"><ele>405.5</ele><time>2026-05-04T16:43:23Z</time></trkpt><trkpt lat="41.188659215168926" lon="15.005235799601879"><ele>405.0</ele><time>2026-05-04T16:43:24Z</time></trkpt><trkpt lat="41.18864981762229" lon="15.005124613229926"><ele>405.0</ele><time>2026-05-04T16:43:25Z</time></trkpt><trkpt lat="41.188622308159935" lon="15.005016596205694"><ele>405.0</ele><time>2026-05-04T16:43:26Z</time></trkpt><trkpt lat="41.188620315692226" lon="15.004902375866704"><ele>405.0</ele><time>2026-05-04T16:43:27Z</time></trkpt><trkpt lat="41.18863305179008" lon="15.004801909007526"><ele>405.0</ele><time>2026-05-04T16:43:28Z</time></trkpt><trkpt lat="41.18865757121913" lon="15.004669260415017"><ele>405.0</ele><time>2026-05-04T16:43:28.999Z</time></trkpt><trkpt lat="41.18867462369007" lon="15.004560211859118"><ele>405.0</ele><time>2026-05-04T16:43:29.999Z</time></trkpt><trkpt lat="41.188708402002305" lon="15.004455667813124"><ele>404.8333333333333</ele><time>2026-05-04T16:43:30.999Z</time></trkpt><trkpt lat="41.188701314994056" lon="15.004330902245515"><ele>404.66666666666663</ele><time>2026-05-04T16:43:31.999Z</time></trkpt><trkpt lat="41.18869227767663" lon="15.004226383713505"><ele>404.5</ele><time>2026-05-04T16:43:32.999Z</time></trkpt><trkpt lat="41.18869388176482" lon="15.004112828814659"><ele>404.3333333333333</ele><time>2026-05-04T16:43:33.999Z</time></trkpt><trkpt lat="41.18869649811899" lon="15.004012040909695"><ele>404.16666666666663</ele><time>2026-05-04T16:43:34.999Z</time></trkpt><trkpt lat="41.188654366947915" lon="15.003878334668093"><ele>404.0</ele><time>2026-05-04T16:43:36.999Z</time></trkpt><trkpt lat="41.188624842136676" lon="15.003793874277248"><ele>405.6</ele><time>2026-05-04T16:43:37.999Z</time></trkpt><trkpt lat="41.18856906701226" lon="15.003648528211308"><ele>407.2</ele><time>2026-05-04T16:43:39.999Z</time></trkpt><trkpt lat="41.1885386947154" lon="15.003569012408882"><ele>408.8</ele><time>2026-05-04T16:43:40.999Z</time></trkpt><trkpt lat="41.188525525577894" lon="15.003472378979836"><ele>410.40000000000003</ele><time>2026-05-04T16:43:42.999Z</time></trkpt><trkpt lat="41.18861150072372" lon="15.003354077905332"><ele>412.0</ele><time>2026-05-04T16:43:44.999Z</time></trkpt><trkpt lat="41.188733575489856" lon="15.003286384101491"><ele>412.00000000000006</ele><time>2026-05-04T16:43:46.999Z</time></trkpt><trkpt lat="41.188799373237856" lon="15.003249654298724"><ele>412.0</ele><time>2026-05-04T16:43:48.999Z</time></trkpt><trkpt lat="41.18886741048153" lon="15.003208422933943"><ele>412.0</ele><time>2026-05-04T16:43:51.999Z</time></trkpt><trkpt lat="41.188803684495745" lon="15.003238821670626"><ele>412.0</ele><time>2026-05-04T16:44:55Z</time></trkpt><trkpt lat="41.18871367875251" lon="15.003267113176445"><ele>412.00000000000006</ele><time>2026-05-04T16:45:01Z</time></trkpt><trkpt lat="41.18861940384539" lon="15.003317972277321"><ele>412.0</ele><time>2026-05-04T16:45:03Z</time></trkpt><trkpt lat="41.18855644485875" lon="15.003400318980557"><ele>412.0</ele><time>2026-05-04T16:45:05Z</time></trkpt><trkpt lat="41.188471097379995" lon="15.003440883075147"><ele>412.0</ele><time>2026-05-04T16:45:08Z</time></trkpt><trkpt lat="41.18839333983723" lon="15.003384333355898"><ele>412.0</ele><time>2026-05-04T16:45:10Z</time></trkpt><trkpt lat="41.18828899253624" lon="15.003321002410285"><ele>412.0</ele><time>2026-05-04T16:45:12Z</time></trkpt><trkpt lat="41.18822296848363" lon="15.003261527874459"><ele>412.0</ele><time>2026-05-04T16:45:14Z</time></trkpt><trkpt lat="41.18816080226387" lon="15.00318030716124"><ele>414.6</ele><time>2026-05-04T16:45:16Z</time></trkpt><trkpt lat="41.18807931791632" lon="15.0030938407707"><ele>417.20000000000005</ele><time>2026-05-04T16:45:18Z</time></trkpt><trkpt lat="41.18799210719118" lon="15.003001612572177"><ele>419.8</ele><time>2026-05-04T16:45:20Z</time></trkpt><trkpt lat="41.18790694055959" lon="15.002914097281897"><ele>422.4</ele><time>2026-05-04T16:45:22Z</time></trkpt><trkpt lat="41.18781355563765" lon="15.002847832649064"><ele>425.0</ele><time>2026-05-04T16:45:24Z</time></trkpt><trkpt lat="41.18770054109022" lon="15.002802964908534"><ele>425.0</ele><time>2026-05-04T16:45:26Z</time></trkpt><trkpt lat="41.187602363861615" lon="15.002778739967926"><ele>425.0</ele><time>2026-05-04T16:45:28Z</time></trkpt><trkpt lat="41.18751499902823" lon="15.00273917880418"><ele>425.0</ele><time>2026-05-04T16:45:30Z</time></trkpt><trkpt lat="41.187437569234056" lon="15.002686119350047"><ele>425.0</ele><time>2026-05-04T16:45:32Z</time></trkpt><trkpt lat="41.18734920892779" lon="15.00263774627531"><ele>425.0</ele><time>2026-05-04T16:45:34Z</time></trkpt><trkpt lat="41.1872474895469" lon="15.002593368614733"><ele>425.8</ele><time>2026-05-04T16:45:36Z</time></trkpt><trkpt lat="41.18714799992287" lon="15.002524797174612"><ele>426.6</ele><time>2026-05-04T16:45:38Z</time></trkpt><trkpt lat="41.18706801755511" lon="15.002500939404712"><ele>427.4</ele><time>2026-05-04T16:45:39Z</time></trkpt><trkpt lat="41.18698878687562" lon="15.002462395081997"><ele>428.2</ele><time>2026-05-04T16:45:40Z</time></trkpt><trkpt lat="41.18690332833033" lon="15.002388345354817"><ele>429.0</ele><time>2026-05-04T16:45:41Z</time></trkpt><trkpt lat="41.186816417871654" lon="15.002333265339438"><ele>429.0</ele><time>2026-05-04T16:45:42Z</time></trkpt><trkpt lat="41.18674962244376" lon="15.002266297316075"><ele>429.0</ele><time>2026-05-04T16:45:43Z</time></trkpt><trkpt lat="41.186690351667764" lon="15.00218234745324"><ele>429.0</ele><time>2026-05-04T16:45:44Z</time></trkpt><trkpt lat="41.186655020531724" lon="15.00207539913283"><ele>429.0</ele><time>2026-05-04T16:45:45Z</time></trkpt><trkpt lat="41.186632050846605" lon="15.001960968815261"><ele>429.0</ele><time>2026-05-04T16:45:46Z</time></trkpt><trkpt lat="41.18659246799366" lon="15.001819293075558"><ele>429.2</ele><time>2026-05-04T16:45:47Z</time></trkpt><trkpt lat="41.18655843144671" lon="15.001658823621963"><ele>429.4</ele><time>2026-05-04T16:45:48Z</time></trkpt><trkpt lat="41.186517858613286" lon="15.001508666401188"><ele>429.6</ele><time>2026-05-04T16:45:49Z</time></trkpt><trkpt lat="41.18647781029642" lon="15.001374490847805"><ele>429.8</ele><time>2026-05-04T16:45:50Z</time></trkpt><trkpt lat="41.18645154232589" lon="15.001293503921248"><ele>430.0</ele><time>2026-05-04T16:45:51Z</time></trkpt><trkpt lat="41.186432455525676" lon="15.001204740017013"><ele>428.50000000000006</ele><time>2026-05-04T16:45:52Z</time></trkpt><trkpt lat="41.18642496958171" lon="15.001098907482273"><ele>427.0</ele><time>2026-05-04T16:45:53Z</time></trkpt><trkpt lat="41.186420813097584" lon="15.000981475463728"><ele>425.5</ele><time>2026-05-04T16:45:54Z</time></trkpt><trkpt lat="41.18638773752392" lon="15.000859662571887"><ele>424.0</ele><time>2026-05-04T16:45:55Z</time></trkpt><trkpt lat="41.18632978090362" lon="15.000747326799672"><ele>422.50000000000006</ele><time>2026-05-04T16:45:56Z</time></trkpt><trkpt lat="41.18627527190637" lon="15.000672157798718"><ele>421.0</ele><time>2026-05-04T16:45:57Z</time></trkpt><trkpt lat="41.18625265891133" lon="15.000589544155703"><ele>421.00000000000006</ele><time>2026-05-04T16:45:58Z</time></trkpt><trkpt lat="41.18629749510955" lon="15.000520761776311"><ele>421.0</ele><time>2026-05-04T16:45:59Z</time></trkpt><trkpt lat="41.18625814935519" lon="15.000359884552449"><ele>421.0</ele><time>2026-05-04T16:46:01Z</time></trkpt><trkpt lat="41.186210342823166" lon="15.000297103116525"><ele>421.0</ele><time>2026-05-04T16:46:02Z</time></trkpt><trkpt lat="41.186133317453425" lon="15.000257145606243"><ele>421.00000000000006</ele><time>2026-05-04T16:46:03Z</time></trkpt><trkpt lat="41.18605516366175" lon="15.00020501062377"><ele>421.0</ele><time>2026-05-04T16:46:04Z</time></trkpt><trkpt lat="41.18597322038707" lon="15.000125284933798"><ele>421.0</ele><time>2026-05-04T16:46:05Z</time></trkpt><trkpt lat="41.18590374294932" lon="15.000040037976973"><ele>421.0</ele><time>2026-05-04T16:46:06Z</time></trkpt><trkpt lat="41.18586766562652" lon="14.999916277481185"><ele>421.0</ele><time>2026-05-04T16:46:07Z</time></trkpt><trkpt lat="41.18583305982239" lon="14.99980382536847"><ele>421.0</ele><time>2026-05-04T16:46:08Z</time></trkpt><trkpt lat="41.18580102417902" lon="14.999679191041157"><ele>421.0</ele><time>2026-05-04T16:46:09Z</time></trkpt><trkpt lat="41.185772292270165" lon="14.999565895858618"><ele>421.00000000000006</ele><time>2026-05-04T16:46:10Z</time></trkpt><trkpt lat="41.185751331730835" lon="14.999424847664429"><ele>421.0</ele><time>2026-05-04T16:46:11Z</time></trkpt><trkpt lat="41.18571824689547" lon="14.99932557562738"><ele>421.0</ele><time>2026-05-04T16:46:12Z</time></trkpt><trkpt lat="41.18567498432578" lon="14.99925366125112"><ele>421.0</ele><time>2026-05-04T16:46:13Z</time></trkpt><trkpt lat="41.18562520688485" lon="14.999185154982028"><ele>421.00000000000006</ele><time>2026-05-04T16:46:14Z</time></trkpt><trkpt lat="41.18559149324967" lon="14.999110843345832"><ele>421.0</ele><time>2026-05-04T16:46:15Z</time></trkpt><trkpt lat="41.18563581493413" lon="14.99900448166851"><ele>421.0</ele><time>2026-05-04T16:46:17Z</time></trkpt><trkpt lat="41.18569076128449" lon="14.999110876385856"><ele>421.0</ele><time>2026-05-04T16:46:19Z</time></trkpt><trkpt lat="41.185812056256125" lon="14.999210637119736"><ele>421.0</ele><time>2026-05-04T16:46:21Z</time></trkpt><trkpt lat="41.18586203244442" lon="14.999300200781327"><ele>421.0</ele><time>2026-05-04T16:46:22Z</time></trkpt><trkpt lat="41.18591964645704" lon="14.999374481878375"><ele>421.0</ele><time>2026-05-04T16:46:23Z</time></trkpt><trkpt lat="41.18597296630302" lon="14.999443226397073"><ele>421.00000000000006</ele><time>2026-05-04T16:46:24Z</time></trkpt><trkpt lat="41.186040006898885" lon="14.999501013179154"><ele>421.0</ele><time>2026-05-04T16:46:25Z</time></trkpt><trkpt lat="41.18611515364965" lon="14.999539664599405"><ele>421.0</ele><time>2026-05-04T16:46:26Z</time></trkpt><trkpt lat="41.18619425448423" lon="14.999534600848923"><ele>421.0</ele><time>2026-05-04T16:46:27Z</time></trkpt><trkpt lat="41.18626780896402" lon="14.999521306464812"><ele>421.00000000000006</ele><time>2026-05-04T16:46:28Z</time></trkpt><trkpt lat="41.18635741530205" lon="14.999491018203754"><ele>421.0</ele><time>2026-05-04T16:46:29Z</time></trkpt><trkpt lat="41.18644505632056" lon="14.999482283918836"><ele>425.0</ele><time>2026-05-04T16:46:30Z</time></trkpt><trkpt lat="41.18653666005171" lon="14.999445623232301"><ele>429.0</ele><time>2026-05-04T16:46:31.001Z</time></trkpt><trkpt lat="41.18661455471953" lon="14.999381190088583"><ele>433.0</ele><time>2026-05-04T16:46:32.001Z</time></trkpt><trkpt lat="41.18670156018721" lon="14.999357576071791"><ele>437.0</ele><time>2026-05-04T16:46:33.001Z</time></trkpt><trkpt lat="41.18679012525574" lon="14.99931979159933"><ele>441.0</ele><time>2026-05-04T16:46:34.001Z</time></trkpt><trkpt lat="41.186868097713706" lon="14.999286834106952"><ele>441.0</ele><time>2026-05-04T16:46:35.001Z</time></trkpt><trkpt lat="41.18693617317291" lon="14.999259422131965"><ele>441.0</ele><time>2026-05-04T16:46:36.001Z</time></trkpt><trkpt lat="41.186997410645624" lon="14.99923626384482"><ele>441.0</ele><time>2026-05-04T16:46:37.001Z</time></trkpt><trkpt lat="41.18706974853013" lon="14.99920377950312"><ele>441.0</ele><time>2026-05-04T16:46:39.001Z</time></trkpt><trkpt lat="41.18711955896885" lon="14.999101549516856"><ele>441.0</ele><time>2026-05-04T16:48:01Z</time></trkpt><trkpt lat="41.187130202845026" lon="14.998952777303773"><ele>441.0</ele><time>2026-05-04T16:48:03Z</time></trkpt><trkpt lat="41.18713545609038" lon="14.99885801919445"><ele>440.6666666666667</ele><time>2026-05-04T16:48:04Z</time></trkpt><trkpt lat="41.187138528029976" lon="14.998763838683805"><ele>440.33333333333337</ele><time>2026-05-04T16:48:05Z</time></trkpt><trkpt lat="41.18715632474436" lon="14.998683164642179"><ele>440.0</ele><time>2026-05-04T16:48:06Z</time></trkpt><trkpt lat="41.187148882187" lon="14.998512487933372"><ele>439.6666666666667</ele><time>2026-05-04T16:48:08Z</time></trkpt><trkpt lat="41.187153272204874" lon="14.998422284495472"><ele>439.33333333333337</ele><time>2026-05-04T16:48:09Z</time></trkpt><trkpt lat="41.18713991499684" lon="14.998340445836119"><ele>439.0</ele><time>2026-05-04T16:48:10Z</time></trkpt><trkpt lat="41.18715864738124" lon="14.998233950395491"><ele>439.0</ele><time>2026-05-04T16:48:12Z</time></trkpt><trkpt lat="41.18720964400339" lon="14.998243623724203"><ele>439.0</ele><time>2026-05-04T16:56:57Z</time></trkpt><trkpt lat="41.18715977659982" lon="14.998325412347707"><ele>439.0</ele><time>2026-05-04T16:57:10Z</time></trkpt><trkpt lat="41.187166926060506" lon="14.998469360646448"><ele>439.0</ele><time>2026-05-04T16:57:12Z</time></trkpt><trkpt lat="41.18712510133981" lon="14.998606679237774"><ele>439.0</ele><time>2026-05-04T16:57:13Z</time></trkpt><trkpt lat="41.187120568284904" lon="14.998748527593422"><ele>439.4</ele><time>2026-05-04T16:57:14Z</time></trkpt><trkpt lat="41.1871271780992" lon="14.998872045774677"><ele>439.79999999999995</ele><time>2026-05-04T16:57:15Z</time></trkpt><trkpt lat="41.18713399599134" lon="14.999012985353332"><ele>440.20000000000005</ele><time>2026-05-04T16:57:16Z</time></trkpt><trkpt lat="41.18716210962275" lon="14.999134384597001"><ele>440.6</ele><time>2026-05-04T16:57:17Z</time></trkpt><trkpt lat="41.18719529374335" lon="14.999268525148233"><ele>441.0</ele><time>2026-05-04T16:57:18Z</time></trkpt><trkpt lat="41.187270769897275" lon="14.999389460166304"><ele>444.75</ele><time>2026-05-04T16:57:19Z</time></trkpt><trkpt lat="41.18735335131211" lon="14.99951208187222"><ele>448.5</ele><time>2026-05-04T16:57:20Z</time></trkpt><trkpt lat="41.18744851843717" lon="14.999654806065525"><ele>452.25</ele><time>2026-05-04T16:57:21Z</time></trkpt><trkpt lat="41.18753543271517" lon="14.999790505294824"><ele>456.0</ele><time>2026-05-04T16:57:22Z</time></trkpt><trkpt lat="41.187610085077615" lon="14.999902909025646"><ele>456.0</ele><time>2026-05-04T16:57:23Z</time></trkpt><trkpt lat="41.18771006058536" lon="15.000058532427973"><ele>456.0</ele><time>2026-05-04T16:57:24Z</time></trkpt><trkpt lat="41.18780732851633" lon="15.000209844334181"><ele>456.0</ele><time>2026-05-04T16:57:25Z</time></trkpt><trkpt lat="41.18788197906196" lon="15.000371673506281"><ele>456.0</ele><time>2026-05-04T16:57:26Z</time></trkpt><trkpt lat="41.187965940953" lon="15.000522616270711"><ele>456.0</ele><time>2026-05-04T16:57:27Z</time></trkpt><trkpt lat="41.18803590432468" lon="15.00066311270921"><ele>456.0</ele><time>2026-05-04T16:57:28Z</time></trkpt><trkpt lat="41.188099211433794" lon="15.000818719538014"><ele>456.0</ele><time>2026-05-04T16:57:29Z</time></trkpt><trkpt lat="41.188162657161705" lon="15.000950228300866"><ele>456.0</ele><time>2026-05-04T16:57:30Z</time></trkpt><trkpt lat="41.18824336939767" lon="15.001057696727582"><ele>458.75</ele><time>2026-05-04T16:57:31Z</time></trkpt><trkpt lat="41.188342392169474" lon="15.001147953321587"><ele>461.5</ele><time>2026-05-04T16:57:32Z</time></trkpt><trkpt lat="41.188449966171845" lon="15.001220665860663"><ele>464.25</ele><time>2026-05-04T16:57:33Z</time></trkpt><trkpt lat="41.18855810913456" lon="15.001298690159343"><ele>467.0</ele><time>2026-05-04T16:57:34Z</time></trkpt><trkpt lat="41.18867262689903" lon="15.001378213678027"><ele>467.0</ele><time>2026-05-04T16:57:35Z</time></trkpt><trkpt lat="41.18877422710552" lon="15.001479348382512"><ele>467.0</ele><time>2026-05-04T16:57:36Z</time></trkpt><trkpt lat="41.18887889577337" lon="15.001576673296531"><ele>467.0</ele><time>2026-05-04T16:57:37Z</time></trkpt><trkpt lat="41.18897834328379" lon="15.001658762622196"><ele>467.0</ele><time>2026-05-04T16:57:38Z</time></trkpt><trkpt lat="41.1890896736754" lon="15.001720139733681"><ele>465.0</ele><time>2026-05-04T16:57:39Z</time></trkpt><trkpt lat="41.18920818971408" lon="15.001771314138406"><ele>463.0</ele><time>2026-05-04T16:57:40Z</time></trkpt><trkpt lat="41.1893173614652" lon="15.001832995624843"><ele>461.0</ele><time>2026-05-04T16:57:41Z</time></trkpt><trkpt lat="41.189421295218835" lon="15.001897097755837"><ele>459.0</ele><time>2026-05-04T16:57:42Z</time></trkpt><trkpt lat="41.189532180898766" lon="15.001971586678545"><ele>459.0</ele><time>2026-05-04T16:57:43Z</time></trkpt><trkpt lat="41.189642470713096" lon="15.002044717039478"><ele>459.0</ele><time>2026-05-04T16:57:44Z</time></trkpt><trkpt lat="41.18974816867971" lon="15.002112057300003"><ele>459.0</ele><time>2026-05-04T16:57:45Z</time></trkpt><trkpt lat="41.18986082207523" lon="15.002171036804729"><ele>459.0</ele><time>2026-05-04T16:57:46Z</time></trkpt><trkpt lat="41.189970082735925" lon="15.002225687891208"><ele>457.4</ele><time>2026-05-04T16:57:47Z</time></trkpt><trkpt lat="41.19007310084568" lon="15.002280816193482"><ele>455.79999999999995</ele><time>2026-05-04T16:57:48Z</time></trkpt><trkpt lat="41.19016842008052" lon="15.002356900351455"><ele>454.20000000000005</ele><time>2026-05-04T16:57:49Z</time></trkpt><trkpt lat="41.19025626950881" lon="15.002423803229723"><ele>452.6</ele><time>2026-05-04T16:57:50Z</time></trkpt><trkpt lat="41.190347057768264" lon="15.002476982096658"><ele>451.0</ele><time>2026-05-04T16:57:51Z</time></trkpt><trkpt lat="41.19043149588567" lon="15.002548965451828"><ele>451.00000000000006</ele><time>2026-05-04T16:57:52Z</time></trkpt><trkpt lat="41.19051357491406" lon="15.002619382786175"><ele>451.0</ele><time>2026-05-04T16:57:53Z</time></trkpt><trkpt lat="41.190568018993694" lon="15.002706939655795"><ele>451.0</ele><time>2026-05-04T16:57:54Z</time></trkpt><trkpt lat="41.190622760026486" lon="15.002777623229687"><ele>451.0</ele><time>2026-05-04T16:57:55Z</time></trkpt><trkpt lat="41.1906673099409" lon="15.002841552918149"><ele>451.00000000000006</ele><time>2026-05-04T16:57:57Z</time></trkpt><trkpt lat="41.19075146001117" lon="15.00295800599049"><ele>451.0</ele><time>2026-05-04T16:58:29Z</time></trkpt><trkpt lat="41.19079099084101" lon="15.003039212817754"><ele>451.42857142857144</ele><time>2026-05-04T16:58:30Z</time></trkpt><trkpt lat="41.19082624474758" lon="15.003124378141843"><ele>451.8571428571429</ele><time>2026-05-04T16:58:31Z</time></trkpt><trkpt lat="41.19085483929197" lon="15.003202409665683"><ele>452.28571428571433</ele><time>2026-05-04T16:58:32Z</time></trkpt><trkpt lat="41.19087951331457" lon="15.003292731785784"><ele>452.7142857142857</ele><time>2026-05-04T16:58:33Z</time></trkpt><trkpt lat="41.19089996823949" lon="15.003390712270003"><ele>453.1428571428572</ele><time>2026-05-04T16:58:34Z</time></trkpt><trkpt lat="41.190903973518985" lon="15.003479569244357"><ele>453.5714285714286</ele><time>2026-05-04T16:58:35Z</time></trkpt><trkpt lat="41.19088317483709" lon="15.003581805503636"><ele>454.0</ele><time>2026-05-04T16:58:35.999Z</time></trkpt><trkpt lat="41.19083837502263" lon="15.003673636502233"><ele>454.0</ele><time>2026-05-04T16:58:36.999Z</time></trkpt><trkpt lat="41.1907798815469" lon="15.003756973924643"><ele>454.0</ele><time>2026-05-04T16:58:37.999Z</time></trkpt><trkpt lat="41.19071719935978" lon="15.003837267556973"><ele>454.0</ele><time>2026-05-04T16:58:38.999Z</time></trkpt><trkpt lat="41.190661863846564" lon="15.003939687056102"><ele>454.0</ele><time>2026-05-04T16:58:39.999Z</time></trkpt><trkpt lat="41.190628104954286" lon="15.00407379764104"><ele>454.0</ele><time>2026-05-04T16:58:40.999Z</time></trkpt><trkpt lat="41.19061642848122" lon="15.004223798579952"><ele>452.75</ele><time>2026-05-04T16:58:41.999Z</time></trkpt><trkpt lat="41.19061317671795" lon="15.004370783067944"><ele>451.5</ele><time>2026-05-04T16:58:42.999Z</time></trkpt><trkpt lat="41.19061063106117" lon="15.004526720676221"><ele>450.25</ele><time>2026-05-04T16:58:43.999Z</time></trkpt><trkpt lat="41.190605078675176" lon="15.00469096148598"><ele>449.0</ele><time>2026-05-04T16:58:44.999Z</time></trkpt><trkpt lat="41.190595030281195" lon="15.004859720070476"><ele>450.25</ele><time>2026-05-04T16:58:45.999Z</time></trkpt><trkpt lat="41.19058085791036" lon="15.00503802390501"><ele>451.5</ele><time>2026-05-04T16:58:46.999Z</time></trkpt><trkpt lat="41.1905684235498" lon="15.005219713043426"><ele>452.75</ele><time>2026-05-04T16:58:47.999Z</time></trkpt><trkpt lat="41.190561942426065" lon="15.005402227743701"><ele>454.0</ele><time>2026-05-04T16:58:48.999Z</time></trkpt><trkpt lat="41.19056105403398" lon="15.005581382476283"><ele>454.0</ele><time>2026-05-04T16:58:49.999Z</time></trkpt><trkpt lat="41.19058496430992" lon="15.005766583905562"><ele>454.0</ele><time>2026-05-04T16:58:50.999Z</time></trkpt><trkpt lat="41.19062682449336" lon="15.005957905568872"><ele>454.0</ele><time>2026-05-04T16:58:51.999Z</time></trkpt><trkpt lat="41.190674840078024" lon="15.006171073641099"><ele>463.6666666666667</ele><time>2026-05-04T16:58:52.999Z</time></trkpt><trkpt lat="41.190714541440904" lon="15.006408720169876"><ele>473.33333333333337</ele><time>2026-05-04T16:58:53.999Z</time></trkpt><trkpt lat="41.190738215899266" lon="15.006622369865902"><ele>483.0</ele><time>2026-05-04T16:58:54.999Z</time></trkpt><trkpt lat="41.1907302235391" lon="15.006786292564676"><ele>483.2</ele><time>2026-05-04T16:58:55.999Z</time></trkpt><trkpt lat="41.19071694298843" lon="15.006952852101632"><ele>483.4</ele><time>2026-05-04T16:58:56.999Z</time></trkpt><trkpt lat="41.19070831188366" lon="15.007090564260382"><ele>483.59999999999997</ele><time>2026-05-04T16:58:57.999Z</time></trkpt><trkpt lat="41.19071397884822" lon="15.007196842740507"><ele>483.79999999999995</ele><time>2026-05-04T16:58:58.999Z</time></trkpt><trkpt lat="41.19085037191199" lon="15.0072039510492"><ele>484.0</ele><time>2026-05-04T16:59:00.999Z</time></trkpt><trkpt lat="41.19092534262897" lon="15.007150501666088"><ele>484.0</ele><time>2026-05-04T16:59:02Z</time></trkpt><trkpt lat="41.190932854910955" lon="15.006982661553613"><ele>484.0</ele><time>2026-05-04T16:59:03Z</time></trkpt><trkpt lat="41.19093349520407" lon="15.006823655960154"><ele>484.0</ele><time>2026-05-04T16:59:04Z</time></trkpt><trkpt lat="41.19092063898043" lon="15.006657312553807"><ele>484.0</ele><time>2026-05-04T16:59:05Z</time></trkpt><trkpt lat="41.190932854571045" lon="15.006501517518918"><ele>483.79999999999995</ele><time>2026-05-04T16:59:06Z</time></trkpt><trkpt lat="41.19094648107642" lon="15.006341597807403"><ele>483.59999999999997</ele><time>2026-05-04T16:59:07Z</time></trkpt><trkpt lat="41.190981296325226" lon="15.00621620012222"><ele>483.4</ele><time>2026-05-04T16:59:08Z</time></trkpt><trkpt lat="41.19105357263549" lon="15.00614026645976"><ele>483.2</ele><time>2026-05-04T16:59:09Z</time></trkpt><trkpt lat="41.19112623456431" lon="15.006109499298036"><ele>483.0</ele><time>2026-05-04T16:59:10Z</time></trkpt><trkpt lat="41.19120184859561" lon="15.006158495989148"><ele>483.0</ele><time>2026-05-04T16:59:11Z</time></trkpt><trkpt lat="41.191311338462185" lon="15.006181050799857"><ele>482.99999999999994</ele><time>2026-05-04T16:59:12Z</time></trkpt><trkpt lat="41.19139151970868" lon="15.00623257942716"><ele>482.99999999999994</ele><time>2026-05-04T16:59:13Z</time></trkpt><trkpt lat="41.19143543440281" lon="15.006322783429946"><ele>483.0</ele><time>2026-05-04T16:59:14Z</time></trkpt><trkpt lat="41.19147058060624" lon="15.006441930225474"><ele>483.0</ele><time>2026-05-04T16:59:15Z</time></trkpt><trkpt lat="41.19151358342365" lon="15.006581451480102"><ele>486.25</ele><time>2026-05-04T16:59:16Z</time></trkpt><trkpt lat="41.191569869379435" lon="15.006728833740935"><ele>489.5</ele><time>2026-05-04T16:59:17Z</time></trkpt><trkpt lat="41.19161845781796" lon="15.006884443824939"><ele>492.75</ele><time>2026-05-04T16:59:18Z</time></trkpt><trkpt lat="41.19167622931099" lon="15.007039134052777"><ele>496.0</ele><time>2026-05-04T16:59:19Z</time></trkpt><trkpt lat="41.19172305435254" lon="15.007204075128287"><ele>496.0</ele><time>2026-05-04T16:59:20Z</time></trkpt><trkpt lat="41.19179936967539" lon="15.007362499039537"><ele>496.0</ele><time>2026-05-04T16:59:21Z</time></trkpt><trkpt lat="41.19185621700435" lon="15.007527176878547"><ele>496.0</ele><time>2026-05-04T16:59:22Z</time></trkpt><trkpt lat="41.19193145286952" lon="15.007678129914417"><ele>496.0</ele><time>2026-05-04T16:59:23Z</time></trkpt><trkpt lat="41.19203401011202" lon="15.007766926950787"><ele>496.0</ele><time>2026-05-04T16:59:24Z</time></trkpt><trkpt lat="41.192159070082695" lon="15.007832257530703"><ele>496.0</ele><time>2026-05-04T16:59:25Z</time></trkpt><trkpt lat="41.192288935373405" lon="15.007899063460208"><ele>496.0</ele><time>2026-05-04T16:59:26Z</time></trkpt><trkpt lat="41.192412040734126" lon="15.007983541965073"><ele>496.0</ele><time>2026-05-04T16:59:27Z</time></trkpt><trkpt lat="41.192523925875236" lon="15.008067060209331"><ele>496.0</ele><time>2026-05-04T16:59:28Z</time></trkpt><trkpt lat="41.19264529420077" lon="15.008166767568769"><ele>496.0</ele><time>2026-05-04T16:59:29Z</time></trkpt><trkpt lat="41.19274808912938" lon="15.008269822275123"><ele>496.0</ele><time>2026-05-04T16:59:30Z</time></trkpt><trkpt lat="41.192816714291304" lon="15.008382856389623"><ele>496.0</ele><time>2026-05-04T16:59:31Z</time></trkpt><trkpt lat="41.19287364778918" lon="15.008521372633387"><ele>500.5</ele><time>2026-05-04T16:59:32Z</time></trkpt><trkpt lat="41.192917219213236" lon="15.008671867577204"><ele>505.0</ele><time>2026-05-04T16:59:33Z</time></trkpt><trkpt lat="41.1929494897666" lon="15.008833738738428"><ele>509.5</ele><time>2026-05-04T16:59:34Z</time></trkpt><trkpt lat="41.192971884357064" lon="15.009006312159062"><ele>514.0</ele><time>2026-05-04T16:59:35Z</time></trkpt><trkpt lat="41.19297594333454" lon="15.009175947913462"><ele>517.0</ele><time>2026-05-04T16:59:36Z</time></trkpt><trkpt lat="41.192973607386406" lon="15.009348534350014"><ele>520.0</ele><time>2026-05-04T16:59:37Z</time></trkpt><trkpt lat="41.19293210137657" lon="15.009521823399218"><ele>523.0</ele><time>2026-05-04T16:59:38Z</time></trkpt><trkpt lat="41.192857722568526" lon="15.0096805915929"><ele>526.0</ele><time>2026-05-04T16:59:39Z</time></trkpt><trkpt lat="41.1928139106207" lon="15.009866142661135"><ele>527.5</ele><time>2026-05-04T16:59:40Z</time></trkpt><trkpt lat="41.19279017799916" lon="15.010048932599604"><ele>529.0</ele><time>2026-05-04T16:59:41Z</time></trkpt><trkpt lat="41.1927510933925" lon="15.010235543236385"><ele>530.5</ele><time>2026-05-04T16:59:42Z</time></trkpt><trkpt lat="41.19271361779156" lon="15.010404204912923"><ele>532.0</ele><time>2026-05-04T16:59:43Z</time></trkpt><trkpt lat="41.19270259860385" lon="15.010571926373759"><ele>532.0</ele><time>2026-05-04T16:59:44Z</time></trkpt><trkpt lat="41.19265669860751" lon="15.010743172896703"><ele>532.0</ele><time>2026-05-04T16:59:45Z</time></trkpt><trkpt lat="41.192623545028404" lon="15.010920502862568"><ele>532.0</ele><time>2026-05-04T16:59:46Z</time></trkpt><trkpt lat="41.192585946294656" lon="15.011088596440286"><ele>532.0</ele><time>2026-05-04T16:59:47Z</time></trkpt><trkpt lat="41.1925472321991" lon="15.01126126679919"><ele>532.25</ele><time>2026-05-04T16:59:48Z</time></trkpt><trkpt lat="41.19251848315201" lon="15.011432028229363"><ele>532.5</ele><time>2026-05-04T16:59:49Z</time></trkpt><trkpt lat="41.1925077898663" lon="15.01159673073681"><ele>532.75</ele><time>2026-05-04T16:59:50Z</time></trkpt><trkpt lat="41.19250680035972" lon="15.011763337601074"><ele>533.0</ele><time>2026-05-04T16:59:51Z</time></trkpt><trkpt lat="41.19250151750881" lon="15.011915095758594"><ele>533.1666666666666</ele><time>2026-05-04T16:59:52Z</time></trkpt><trkpt lat="41.19248613533086" lon="15.012021390228414"><ele>533.3333333333333</ele><time>2026-05-04T16:59:53Z</time></trkpt><trkpt lat="41.19241417109131" lon="15.012068229686063"><ele>533.5</ele><time>2026-05-04T16:59:55Z</time></trkpt><trkpt lat="41.19236083254241" lon="15.012018632836396"><ele>533.6666666666666</ele><time>2026-05-04T16:59:56Z</time></trkpt><trkpt lat="41.19233959807388" lon="15.011938260914137"><ele>533.8333333333334</ele><time>2026-05-04T16:59:57Z</time></trkpt><trkpt lat="41.19234709211151" lon="15.011829931315189"><ele>534.0</ele><time>2026-05-04T16:59:58Z</time></trkpt><trkpt lat="41.19236677208105" lon="15.011719133277813"><ele>533.8</ele><time>2026-05-04T16:59:59Z</time></trkpt><trkpt lat="41.19237989350336" lon="15.011607546201542"><ele>533.5999999999999</ele><time>2026-05-04T17:00:00Z</time></trkpt><trkpt lat="41.192384262324026" lon="15.011483498652458"><ele>533.4</ele><time>2026-05-04T17:00:01Z</time></trkpt><trkpt lat="41.19237388947784" lon="15.011373116243398"><ele>533.1999999999999</ele><time>2026-05-04T17:00:02Z</time></trkpt><trkpt lat="41.19238429021379" lon="15.011242804440105"><ele>533.0</ele><time>2026-05-04T17:00:03Z</time></trkpt><trkpt lat="41.192392736711184" lon="15.011092738821766"><ele>533.0</ele><time>2026-05-04T17:00:04Z</time></trkpt><trkpt lat="41.19239471804075" lon="15.010948552863422"><ele>533.0</ele><time>2026-05-04T17:00:05Z</time></trkpt><trkpt lat="41.192395330423174" lon="15.010815342640468"><ele>533.0</ele><time>2026-05-04T17:00:06Z</time></trkpt><trkpt lat="41.19238812346896" lon="15.010705313972743"><ele>533.0</ele><time>2026-05-04T17:00:07Z</time></trkpt><trkpt lat="41.192348756571526" lon="15.010631091253199"><ele>533.0</ele><time>2026-05-04T17:00:08Z</time></trkpt><trkpt lat="41.19227593219961" lon="15.010591884864128"><ele>533.0</ele><time>2026-05-04T17:00:09Z</time></trkpt><trkpt lat="41.19219936724738" lon="15.010592050079412"><ele>530.8</ele><time>2026-05-04T17:00:10Z</time></trkpt><trkpt lat="41.19213751295921" lon="15.010662611911398"><ele>528.5999999999999</ele><time>2026-05-04T17:00:11Z</time></trkpt><trkpt lat="41.192086333737514" lon="15.01075735806473"><ele>526.4000000000001</ele><time>2026-05-04T17:00:12Z</time></trkpt><trkpt lat="41.19202975816642" lon="15.010869868312065"><ele>524.2</ele><time>2026-05-04T17:00:13Z</time></trkpt><trkpt lat="41.191972616456916" lon="15.010992550589423"><ele>522.0</ele><time>2026-05-04T17:00:14Z</time></trkpt><trkpt lat="41.19191836760302" lon="15.011128209605207"><ele>522.0</ele><time>2026-05-04T17:00:15Z</time></trkpt><trkpt lat="41.19185749540971" lon="15.011268884354134"><ele>522.0</ele><time>2026-05-04T17:00:16Z</time></trkpt><trkpt lat="41.191791816910744" lon="15.01140731971127"><ele>522.0</ele><time>2026-05-04T17:00:17Z</time></trkpt><trkpt lat="41.191727986849436" lon="15.011555837091247"><ele>522.0</ele><time>2026-05-04T17:00:18Z</time></trkpt><trkpt lat="41.191677103274" lon="15.011704749794676"><ele>525.75</ele><time>2026-05-04T17:00:19Z</time></trkpt><trkpt lat="41.19164526050218" lon="15.011870234460094"><ele>529.5</ele><time>2026-05-04T17:00:20Z</time></trkpt><trkpt lat="41.191637516345686" lon="15.012045787808942"><ele>533.25</ele><time>2026-05-04T17:00:21Z</time></trkpt><trkpt lat="41.19164743000016" lon="15.01223653908439"><ele>537.0</ele><time>2026-05-04T17:00:22Z</time></trkpt><trkpt lat="41.191660095780605" lon="15.012420915694403"><ele>539.0</ele><time>2026-05-04T17:00:23Z</time></trkpt><trkpt lat="41.19165488945047" lon="15.01261522639936"><ele>541.0</ele><time>2026-05-04T17:00:24Z</time></trkpt><trkpt lat="41.191669788073135" lon="15.012803731991232"><ele>543.0</ele><time>2026-05-04T17:00:25Z</time></trkpt><trkpt lat="41.191666909501336" lon="15.013007044357973"><ele>545.0</ele><time>2026-05-04T17:00:26Z</time></trkpt><trkpt lat="41.19164104856772" lon="15.013193447227218"><ele>546.25</ele><time>2026-05-04T17:00:27Z</time></trkpt><trkpt lat="41.19162468392848" lon="15.01337599622096"><ele>547.5</ele><time>2026-05-04T17:00:28Z</time></trkpt><trkpt lat="41.19160512902093" lon="15.013564817495025"><ele>548.75</ele><time>2026-05-04T17:00:29Z</time></trkpt><trkpt lat="41.19158692960966" lon="15.013746439163068"><ele>550.0</ele><time>2026-05-04T17:00:30Z</time></trkpt><trkpt lat="41.19158420515309" lon="15.013914340632295"><ele>550.0</ele><time>2026-05-04T17:00:31Z</time></trkpt><trkpt lat="41.19159916759492" lon="15.014075813886658"><ele>550.0</ele><time>2026-05-04T17:00:32Z</time></trkpt><trkpt lat="41.191652901082094" lon="15.01422752393931"><ele>550.0</ele><time>2026-05-04T17:00:33Z</time></trkpt><trkpt lat="41.19172429303368" lon="15.014356113315122"><ele>550.0</ele><time>2026-05-04T17:00:34Z</time></trkpt><trkpt lat="41.191814128957056" lon="15.014461628205144"><ele>550.25</ele><time>2026-05-04T17:00:35Z</time></trkpt><trkpt lat="41.19190340187126" lon="15.014575652597419"><ele>550.5</ele><time>2026-05-04T17:00:36Z</time></trkpt><trkpt lat="41.19196965516912" lon="15.01473210660099"><ele>550.75</ele><time>2026-05-04T17:00:37Z</time></trkpt><trkpt lat="41.19199486937336" lon="15.014872116313294"><ele>551.0</ele><time>2026-05-04T17:00:38Z</time></trkpt><trkpt lat="41.19202087522747" lon="15.01502571121218"><ele>548.25</ele><time>2026-05-04T17:00:39Z</time></trkpt><trkpt lat="41.19204812546161" lon="15.015186736426374"><ele>545.5</ele><time>2026-05-04T17:00:40Z</time></trkpt><trkpt lat="41.19207619876183" lon="15.015350667848903"><ele>542.75</ele><time>2026-05-04T17:00:41Z</time></trkpt><trkpt lat="41.19212835683216" lon="15.015531764299947"><ele>540.0</ele><time>2026-05-04T17:00:42Z</time></trkpt><trkpt lat="41.19216510664882" lon="15.015704990171978"><ele>537.25</ele><time>2026-05-04T17:00:43Z</time></trkpt><trkpt lat="41.19219207077373" lon="15.015884612940772"><ele>534.5</ele><time>2026-05-04T17:00:44Z</time></trkpt><trkpt lat="41.192216461692844" lon="15.016060821052678"><ele>531.75</ele><time>2026-05-04T17:00:45Z</time></trkpt><trkpt lat="41.19222869511793" lon="15.016235269393631"><ele>529.0</ele><time>2026-05-04T17:00:46Z</time></trkpt><trkpt lat="41.19221100666922" lon="15.016412277957656"><ele>529.0</ele><time>2026-05-04T17:00:47Z</time></trkpt><trkpt lat="41.192176942360824" lon="15.016591958018207"><ele>529.0</ele><time>2026-05-04T17:00:48Z</time></trkpt><trkpt lat="41.1921372597878" lon="15.016774257484496"><ele>529.0</ele><time>2026-05-04T17:00:49Z</time></trkpt><trkpt lat="41.19210953799399" lon="15.016968070811213"><ele>529.0</ele><time>2026-05-04T17:00:50Z</time></trkpt><trkpt lat="41.19206690718765" lon="15.017148340951348"><ele>528.5</ele><time>2026-05-04T17:00:51Z</time></trkpt><trkpt lat="41.19203554726505" lon="15.017339398526406"><ele>528.0</ele><time>2026-05-04T17:00:51.999Z</time></trkpt><trkpt lat="41.19202148187925" lon="15.017528451214295"><ele>527.5</ele><time>2026-05-04T17:00:52.999Z</time></trkpt><trkpt lat="41.19202257442668" lon="15.01771767241141"><ele>527.0</ele><time>2026-05-04T17:00:53.999Z</time></trkpt><trkpt lat="41.19203167052023" lon="15.0179065435072"><ele>529.0</ele><time>2026-05-04T17:00:54.999Z</time></trkpt><trkpt lat="41.19203615829561" lon="15.01809646452239"><ele>531.0</ele><time>2026-05-04T17:00:55.999Z</time></trkpt><trkpt lat="41.1920094036388" lon="15.018285993373746"><ele>533.0</ele><time>2026-05-04T17:00:56.999Z</time></trkpt><trkpt lat="41.19198814904743" lon="15.018478825239821"><ele>535.0</ele><time>2026-05-04T17:00:57.999Z</time></trkpt><trkpt lat="41.19196799190441" lon="15.018664918831986"><ele>535.75</ele><time>2026-05-04T17:00:58.999Z</time></trkpt><trkpt lat="41.19195090022484" lon="15.018835335121196"><ele>536.5</ele><time>2026-05-04T17:00:59.999Z</time></trkpt><trkpt lat="41.191934028882606" lon="15.019003554616141"><ele>537.25</ele><time>2026-05-04T17:01:00.999Z</time></trkpt><trkpt lat="41.19191531982642" lon="15.019171451116632"><ele>538.0</ele><time>2026-05-04T17:01:01.999Z</time></trkpt><trkpt lat="41.19189574308912" lon="15.019338974893184"><ele>537.8</ele><time>2026-05-04T17:01:02.999Z</time></trkpt><trkpt lat="41.1918783990038" lon="15.019495122121658"><ele>537.5999999999999</ele><time>2026-05-04T17:01:03.999Z</time></trkpt><trkpt lat="41.19185659189759" lon="15.019644055905633"><ele>537.4000000000001</ele><time>2026-05-04T17:01:04.999Z</time></trkpt><trkpt lat="41.19186240355782" lon="15.019781183446732"><ele>537.2</ele><time>2026-05-04T17:01:05.999Z</time></trkpt><trkpt lat="41.191899460700824" lon="15.01990775777248"><ele>537.0</ele><time>2026-05-04T17:01:06.999Z</time></trkpt><trkpt lat="41.191962509972754" lon="15.020088514015217"><ele>537.0</ele><time>2026-05-04T17:01:08Z</time></trkpt><trkpt lat="41.19203224044914" lon="15.020194002067067"><ele>537.0</ele><time>2026-05-04T17:01:09Z</time></trkpt><trkpt lat="41.19210481133344" lon="15.020335771917974"><ele>537.0</ele><time>2026-05-04T17:01:10Z</time></trkpt><trkpt lat="41.19217568051441" lon="15.020481188174545"><ele>537.0</ele><time>2026-05-04T17:01:11Z</time></trkpt><trkpt lat="41.19225350087056" lon="15.02063951174521"><ele>537.0</ele><time>2026-05-04T17:01:12Z</time></trkpt><trkpt lat="41.192315908383385" lon="15.020796902691576"><ele>537.0</ele><time>2026-05-04T17:01:13Z</time></trkpt><trkpt lat="41.19233838286701" lon="15.020968933892664"><ele>537.0</ele><time>2026-05-04T17:01:14Z</time></trkpt><trkpt lat="41.19235669211784" lon="15.021129118359559"><ele>537.0</ele><time>2026-05-04T17:01:15Z</time></trkpt><trkpt lat="41.19239439020569" lon="15.021286878629525"><ele>539.25</ele><time>2026-05-04T17:01:16Z</time></trkpt><trkpt lat="41.192417509960805" lon="15.021438706928665"><ele>541.5</ele><time>2026-05-04T17:01:17Z</time></trkpt><trkpt lat="41.192436124072444" lon="15.021602678676567"><ele>543.75</ele><time>2026-05-04T17:01:18Z</time></trkpt><trkpt lat="41.19244793484057" lon="15.021763945158654"><ele>546.0</ele><time>2026-05-04T17:01:19Z</time></trkpt><trkpt lat="41.19245107356088" lon="15.021935224786134"><ele>546.25</ele><time>2026-05-04T17:01:20Z</time></trkpt><trkpt lat="41.19245286703068" lon="15.022102397296795"><ele>546.5</ele><time>2026-05-04T17:01:21Z</time></trkpt><trkpt lat="41.192456198297" lon="15.022266090149273"><ele>546.75</ele><time>2026-05-04T17:01:22Z</time></trkpt><trkpt lat="41.19245799402165" lon="15.022439149396329"><ele>547.0</ele><time>2026-05-04T17:01:23Z</time></trkpt><trkpt lat="41.192448528845354" lon="15.022597014516569"><ele>548.75</ele><time>2026-05-04T17:01:24Z</time></trkpt><trkpt lat="41.19244303809741" lon="15.022752358922688"><ele>550.5</ele><time>2026-05-04T17:01:25Z</time></trkpt><trkpt lat="41.192439816800245" lon="15.022929082071865"><ele>552.25</ele><time>2026-05-04T17:01:26Z</time></trkpt><trkpt lat="41.1924280665116" lon="15.023093107827288"><ele>554.0</ele><time>2026-05-04T17:01:27Z</time></trkpt><trkpt lat="41.19242806393857" lon="15.023262337957247"><ele>553.5</ele><time>2026-05-04T17:01:28Z</time></trkpt><trkpt lat="41.19243072932393" lon="15.023429442572533"><ele>553.0</ele><time>2026-05-04T17:01:29Z</time></trkpt><trkpt lat="41.19242723945181" lon="15.023600143175152"><ele>552.5</ele><time>2026-05-04T17:01:30Z</time></trkpt><trkpt lat="41.192430226624566" lon="15.023768184357362"><ele>552.0</ele><time>2026-05-04T17:01:31Z</time></trkpt><trkpt lat="41.19243717587881" lon="15.023937409868351"><ele>552.0</ele><time>2026-05-04T17:01:32Z</time></trkpt><trkpt lat="41.19244359300485" lon="15.0241011876375"><ele>552.0</ele><time>2026-05-04T17:01:33Z</time></trkpt><trkpt lat="41.19245542245031" lon="15.024261138293872"><ele>552.0</ele><time>2026-05-04T17:01:34Z</time></trkpt><trkpt lat="41.19247549479915" lon="15.024418167931838"><ele>552.0</ele><time>2026-05-04T17:01:35Z</time></trkpt><trkpt lat="41.19250024112076" lon="15.024558151485117"><ele>552.0</ele><time>2026-05-04T17:01:36Z</time></trkpt><trkpt lat="41.19251826665536" lon="15.024687545390522"><ele>552.0</ele><time>2026-05-04T17:01:37Z</time></trkpt><trkpt lat="41.19252193447678" lon="15.02480055210942"><ele>552.0</ele><time>2026-05-04T17:01:38Z</time></trkpt><trkpt lat="41.19253372984547" lon="15.024895460189908"><ele>552.0</ele><time>2026-05-04T17:01:39Z</time></trkpt><trkpt lat="41.19249651796741" lon="15.024965546446527"><ele>552.0</ele><time>2026-05-04T17:01:42Z</time></trkpt><trkpt lat="41.19242140574081" lon="15.024978944552588"><ele>552.0</ele><time>2026-05-04T17:01:43Z</time></trkpt><trkpt lat="41.19234887414787" lon="15.025015997474872"><ele>549.4</ele><time>2026-05-04T17:01:44Z</time></trkpt><trkpt lat="41.19225478244485" lon="15.025048953953764"><ele>546.8000000000001</ele><time>2026-05-04T17:01:45Z</time></trkpt><trkpt lat="41.192147381951536" lon="15.025064901829044"><ele>544.2</ele><time>2026-05-04T17:01:46Z</time></trkpt><trkpt lat="41.192051100197375" lon="15.025063701534583"><ele>541.6</ele><time>2026-05-04T17:01:47Z</time></trkpt><trkpt lat="41.191940718801185" lon="15.025092285359833"><ele>539.0</ele><time>2026-05-04T17:01:48Z</time></trkpt><trkpt lat="41.191841286922916" lon="15.025091687587805"><ele>539.0</ele><time>2026-05-04T17:01:49Z</time></trkpt><trkpt lat="41.19173884954678" lon="15.025070168542207"><ele>539.0</ele><time>2026-05-04T17:01:50Z</time></trkpt><trkpt lat="41.19164459218195" lon="15.02508461017374"><ele>539.0</ele><time>2026-05-04T17:01:51Z</time></trkpt><trkpt lat="41.19154427254228" lon="15.025078266239472"><ele>539.0</ele><time>2026-05-04T17:01:52Z</time></trkpt><trkpt lat="41.19144229673467" lon="15.025072885970845"><ele>539.0</ele><time>2026-05-04T17:01:53Z</time></trkpt><trkpt lat="41.19133025287845" lon="15.02507139098817"><ele>533.8</ele><time>2026-05-04T17:01:54Z</time></trkpt><trkpt lat="41.19122760786345" lon="15.025065943342973"><ele>528.5999999999999</ele><time>2026-05-04T17:01:55Z</time></trkpt><trkpt lat="41.191135123963925" lon="15.025068241360135"><ele>523.4</ele><time>2026-05-04T17:01:56Z</time></trkpt><trkpt lat="41.19103764509291" lon="15.02507021625641"><ele>518.1999999999999</ele><time>2026-05-04T17:01:57Z</time></trkpt><trkpt lat="41.1909594265306" lon="15.025071248696804"><ele>513.0</ele><time>2026-05-04T17:01:58Z</time></trkpt><trkpt lat="41.19088038338022" lon="15.025089273588762"><ele>513.0</ele><time>2026-05-04T17:01:59Z</time></trkpt><trkpt lat="41.190796859133435" lon="15.025058642246256"><ele>513.0</ele><time>2026-05-04T17:02:00Z</time></trkpt><trkpt lat="41.19072300195357" lon="15.025019831784999"><ele>513.0</ele><time>2026-05-04T17:02:01Z</time></trkpt><trkpt lat="41.19065726668463" lon="15.02496174204681"><ele>513.0</ele><time>2026-05-04T17:02:02Z</time></trkpt><trkpt lat="41.1905924729158" lon="15.02492638481321"><ele>513.0</ele><time>2026-05-04T17:02:03Z</time></trkpt><trkpt lat="41.19052167010943" lon="15.02492991292334"><ele>513.0</ele><time>2026-05-04T17:02:04Z</time></trkpt><trkpt lat="41.190453589052865" lon="15.024965152338982"><ele>508.6666666666667</ele><time>2026-05-04T17:02:05Z</time></trkpt><trkpt lat="41.19039050664039" lon="15.025035128659221"><ele>504.33333333333337</ele><time>2026-05-04T17:02:06Z</time></trkpt><trkpt lat="41.19034521582862" lon="15.025128611400273"><ele>500.0</ele><time>2026-05-04T17:02:07Z</time></trkpt><trkpt lat="41.1903088218508" lon="15.025220313670872"><ele>495.6666666666667</ele><time>2026-05-04T17:02:08Z</time></trkpt><trkpt lat="41.190267406978634" lon="15.02530842630437"><ele>491.33333333333337</ele><time>2026-05-04T17:02:09Z</time></trkpt><trkpt lat="41.190290939507705" lon="15.025422424729035"><ele>487.0</ele><time>2026-05-04T17:02:10Z</time></trkpt><trkpt lat="41.190324919243515" lon="15.02550668909795"><ele>487.00000000000006</ele><time>2026-05-04T17:02:11Z</time></trkpt><trkpt lat="41.19037454322755" lon="15.02558937696784"><ele>487.0</ele><time>2026-05-04T17:02:12Z</time></trkpt><trkpt lat="41.190417552321755" lon="15.025658555724542"><ele>487.0</ele><time>2026-05-04T17:02:13Z</time></trkpt><trkpt lat="41.19047415800058" lon="15.025770148771187"><ele>487.0</ele><time>2026-05-04T17:02:15Z</time></trkpt><trkpt lat="41.19051507133767" lon="15.025870424973544"><ele>487.00000000000006</ele><time>2026-05-04T17:02:17Z</time></trkpt><trkpt lat="41.19054241849868" lon="15.02600290247181"><ele>487.0</ele><time>2026-05-04T17:02:20Z</time></trkpt><trkpt lat="41.190576834808674" lon="15.026110802471324"><ele>486.40000000000003</ele><time>2026-05-04T17:02:21Z</time></trkpt><trkpt lat="41.19058248632037" lon="15.02624419990261"><ele>485.80000000000007</ele><time>2026-05-04T17:02:22Z</time></trkpt><trkpt lat="41.19060031534772" lon="15.026388969221443"><ele>485.2</ele><time>2026-05-04T17:02:23Z</time></trkpt><trkpt lat="41.19063305355569" lon="15.026538471345514"><ele>484.6</ele><time>2026-05-04T17:02:24Z</time></trkpt><trkpt lat="41.19064826242305" lon="15.026680656764164"><ele>484.0</ele><time>2026-05-04T17:02:25Z</time></trkpt><trkpt lat="41.19066623610758" lon="15.026821060369475"><ele>485.2</ele><time>2026-05-04T17:02:26Z</time></trkpt><trkpt lat="41.19068074953416" lon="15.02695615788058"><ele>486.4</ele><time>2026-05-04T17:02:27Z</time></trkpt><trkpt lat="41.190664919016506" lon="15.027096298226164"><ele>487.6</ele><time>2026-05-04T17:02:28Z</time></trkpt><trkpt lat="41.19065599904877" lon="15.027240938320809"><ele>488.8</ele><time>2026-05-04T17:02:29Z</time></trkpt><trkpt lat="41.19066538964618" lon="15.027392264327837"><ele>490.0</ele><time>2026-05-04T17:02:30Z</time></trkpt><trkpt lat="41.190662348056684" lon="15.027529249692146"><ele>498.4</ele><time>2026-05-04T17:02:31Z</time></trkpt><trkpt lat="41.19067800184307" lon="15.027664424440928"><ele>506.8</ele><time>2026-05-04T17:02:32Z</time></trkpt><trkpt lat="41.190735674707184" lon="15.027771359396684"><ele>515.2</ele><time>2026-05-04T17:02:33Z</time></trkpt><trkpt lat="41.19079949410362" lon="15.027887606593026"><ele>523.6</ele><time>2026-05-04T17:02:34Z</time></trkpt><trkpt lat="41.19085486231936" lon="15.028005075485968"><ele>532.0</ele><time>2026-05-04T17:02:35Z</time></trkpt><trkpt lat="41.19088137115235" lon="15.028130322875857"><ele>532.0</ele><time>2026-05-04T17:02:36Z</time></trkpt><trkpt lat="41.19092212661151" lon="15.028242526687881"><ele>532.0</ele><time>2026-05-04T17:02:37Z</time></trkpt><trkpt lat="41.190972131366046" lon="15.028338293495738"><ele>532.0</ele><time>2026-05-04T17:02:38Z</time></trkpt><trkpt lat="41.19101650235395" lon="15.028408808422721"><ele>532.0</ele><time>2026-05-04T17:02:39Z</time></trkpt><trkpt lat="41.19109588121517" lon="15.028506635536079"><ele>532.0</ele><time>2026-05-04T17:02:41Z</time></trkpt><trkpt lat="41.19103876690956" lon="15.028567854567607"><ele>532.0</ele><time>2026-05-04T17:02:43Z</time></trkpt><trkpt lat="41.19096169129447" lon="15.028482229401206"><ele>532.0</ele><time>2026-05-04T17:02:45Z</time></trkpt><trkpt lat="41.19090121463838" lon="15.028420070576841"><ele>532.0</ele><time>2026-05-04T17:02:46Z</time></trkpt><trkpt lat="41.190833547494044" lon="15.028354126062338"><ele>532.0</ele><time>2026-05-04T17:02:47Z</time></trkpt><trkpt lat="41.19078000165819" lon="15.028286790834954"><ele>532.0</ele><time>2026-05-04T17:02:48Z</time></trkpt><trkpt lat="41.19072215610829" lon="15.028209084946806"><ele>532.0</ele><time>2026-05-04T17:02:49Z</time></trkpt><trkpt lat="41.190677649500046" lon="15.028114871899867"><ele>532.0</ele><time>2026-05-04T17:02:50Z</time></trkpt><trkpt lat="41.19063618043585" lon="15.028021818493347"><ele>524.2</ele><time>2026-05-04T17:02:51Z</time></trkpt><trkpt lat="41.1905851568186" lon="15.027941937510532"><ele>516.4000000000001</ele><time>2026-05-04T17:02:52Z</time></trkpt><trkpt lat="41.19053542468025" lon="15.0278703189971"><ele>508.59999999999997</ele><time>2026-05-04T17:02:53Z</time></trkpt><trkpt lat="41.19046975635078" lon="15.027804732678053"><ele>500.79999999999995</ele><time>2026-05-04T17:02:54Z</time></trkpt><trkpt lat="41.190377258816184" lon="15.027726126160022"><ele>493.0</ele><time>2026-05-04T17:02:55Z</time></trkpt><trkpt lat="41.1902762365277" lon="15.027656546290377"><ele>493.0</ele><time>2026-05-04T17:02:55.999Z</time></trkpt><trkpt lat="41.190171883310825" lon="15.027578841404772"><ele>493.0</ele><time>2026-05-04T17:02:56.999Z</time></trkpt><trkpt lat="41.19004779650639" lon="15.02749086802198"><ele>493.0</ele><time>2026-05-04T17:02:57.999Z</time></trkpt><trkpt lat="41.18992723796275" lon="15.027407040987546"><ele>493.0</ele><time>2026-05-04T17:02:58.999Z</time></trkpt><trkpt lat="41.18978219891805" lon="15.027320223141045"><ele>486.6666666666667</ele><time>2026-05-04T17:02:59.999Z</time></trkpt><trkpt lat="41.18963641298054" lon="15.02724968548103"><ele>480.33333333333337</ele><time>2026-05-04T17:03:00.999Z</time></trkpt><trkpt lat="41.18948543607883" lon="15.027177483524081"><ele>474.0</ele><time>2026-05-04T17:03:01.999Z</time></trkpt><trkpt lat="41.18933862437638" lon="15.027099553819449"><ele>474.0</ele><time>2026-05-04T17:03:02.999Z</time></trkpt><trkpt lat="41.18918980050295" lon="15.027045184866854"><ele>474.0</ele><time>2026-05-04T17:03:03.999Z</time></trkpt><trkpt lat="41.189055040361964" lon="15.02698866783405"><ele>474.0</ele><time>2026-05-04T17:03:04.999Z</time></trkpt><trkpt lat="41.18892640414534" lon="15.026917524597726"><ele>474.0</ele><time>2026-05-04T17:03:05.999Z</time></trkpt><trkpt lat="41.18880105692571" lon="15.02683645157521"><ele>473.2</ele><time>2026-05-04T17:03:06.999Z</time></trkpt><trkpt lat="41.18867899626705" lon="15.026772447951458"><ele>472.4</ele><time>2026-05-04T17:03:07.999Z</time></trkpt><trkpt lat="41.18856375157174" lon="15.02673134192152"><ele>471.6</ele><time>2026-05-04T17:03:08.999Z</time></trkpt><trkpt lat="41.188474151948384" lon="15.02670387474382"><ele>470.8</ele><time>2026-05-04T17:03:09.999Z</time></trkpt><trkpt lat="41.188390429746846" lon="15.026664179870656"><ele>470.0</ele><time>2026-05-04T17:03:10.999Z</time></trkpt><trkpt lat="41.188315387057365" lon="15.0266187966449"><ele>467.49999999999994</ele><time>2026-05-04T17:03:11.999Z</time></trkpt><trkpt lat="41.18823803585671" lon="15.026572479167813"><ele>465.0</ele><time>2026-05-04T17:03:12.999Z</time></trkpt><trkpt lat="41.18816286892186" lon="15.026517783744652"><ele>462.5</ele><time>2026-05-04T17:03:14Z</time></trkpt><trkpt lat="41.18810197421912" lon="15.026451659560031"><ele>460.0</ele><time>2026-05-04T17:03:15Z</time></trkpt><trkpt lat="41.18803301364554" lon="15.02637175941811"><ele>457.49999999999994</ele><time>2026-05-04T17:03:16Z</time></trkpt><trkpt lat="41.187959967223364" lon="15.026290146747396"><ele>455.0</ele><time>2026-05-04T17:03:17Z</time></trkpt><trkpt lat="41.18789565833597" lon="15.026212773873427"><ele>452.8</ele><time>2026-05-04T17:03:18Z</time></trkpt><trkpt lat="41.187827073084094" lon="15.026141498118296"><ele>450.6</ele><time>2026-05-04T17:03:19Z</time></trkpt><trkpt lat="41.18774739128684" lon="15.026083117457075"><ele>448.4</ele><time>2026-05-04T17:03:20Z</time></trkpt><trkpt lat="41.187659175963375" lon="15.026021051072325"><ele>446.2</ele><time>2026-05-04T17:03:21Z</time></trkpt><trkpt lat="41.187567054955025" lon="15.025984269113568"><ele>444.0</ele><time>2026-05-04T17:03:22Z</time></trkpt><trkpt lat="41.18748606082233" lon="15.025954165546784"><ele>444.0</ele><time>2026-05-04T17:03:23Z</time></trkpt><trkpt lat="41.18739763901775" lon="15.025907165645396"><ele>444.0</ele><time>2026-05-04T17:03:24Z</time></trkpt><trkpt lat="41.18732441781259" lon="15.025878130031156"><ele>444.0</ele><time>2026-05-04T17:03:25Z</time></trkpt><trkpt lat="41.187253355091094" lon="15.025858846817423"><ele>444.0</ele><time>2026-05-04T17:03:26Z</time></trkpt><trkpt lat="41.18718687271708" lon="15.02584100199297"><ele>444.0</ele><time>2026-05-04T17:03:27Z</time></trkpt><trkpt lat="41.18712306110874" lon="15.025815912027456"><ele>444.0</ele><time>2026-05-04T17:03:28Z</time></trkpt><trkpt lat="41.187016613093625" lon="15.02577491897924"><ele>437.4</ele><time>2026-05-04T17:03:30Z</time></trkpt><trkpt lat="41.18690538939281" lon="15.025690133057322"><ele>430.79999999999995</ele><time>2026-05-04T17:03:32Z</time></trkpt><trkpt lat="41.18684293094908" lon="15.02564285841734"><ele>424.20000000000005</ele><time>2026-05-04T17:03:33Z</time></trkpt><trkpt lat="41.18678057557494" lon="15.025570071889433"><ele>417.6</ele><time>2026-05-04T17:03:34Z</time></trkpt><trkpt lat="41.186659096798635" lon="15.025494378506224"><ele>411.0</ele><time>2026-05-04T17:03:36Z</time></trkpt><trkpt lat="41.186594052441954" lon="15.025437829940905"><ele>411.0</ele><time>2026-05-04T17:03:37Z</time></trkpt><trkpt lat="41.186524786144076" lon="15.025390525367792"><ele>411.0</ele><time>2026-05-04T17:03:38Z</time></trkpt><trkpt lat="41.18645232443611" lon="15.025343771287712"><ele>411.0</ele><time>2026-05-04T17:03:39Z</time></trkpt><trkpt lat="41.18638056881047" lon="15.025294787650132"><ele>411.0</ele><time>2026-05-04T17:03:40Z</time></trkpt><trkpt lat="41.186314286939876" lon="15.02526409396412"><ele>411.0</ele><time>2026-05-04T17:03:41Z</time></trkpt><trkpt lat="41.18624303564422" lon="15.025233857470617"><ele>411.0</ele><time>2026-05-04T17:03:42Z</time></trkpt><trkpt lat="41.18615814837136" lon="15.025192400557842"><ele>408.0</ele><time>2026-05-04T17:03:43Z</time></trkpt><trkpt lat="41.186077149319296" lon="15.025155317999836"><ele>405.0</ele><time>2026-05-04T17:03:44Z</time></trkpt><trkpt lat="41.185993582098476" lon="15.025120981746687"><ele>402.0</ele><time>2026-05-04T17:03:45Z</time></trkpt><trkpt lat="41.185919458055764" lon="15.025092768928522"><ele>399.0</ele><time>2026-05-04T17:03:46Z</time></trkpt><trkpt lat="41.185841625741084" lon="15.02506434866536"><ele>396.0</ele><time>2026-05-04T17:03:47Z</time></trkpt><trkpt lat="41.1857649282484" lon="15.025039250746142"><ele>393.0</ele><time>2026-05-04T17:03:48Z</time></trkpt><trkpt lat="41.185703884732504" lon="15.024996404854882"><ele>388.3333333333333</ele><time>2026-05-04T17:03:49Z</time></trkpt><trkpt lat="41.185631039175604" lon="15.024969184869844"><ele>383.6666666666667</ele><time>2026-05-04T17:03:50Z</time></trkpt><trkpt lat="41.185566141187515" lon="15.02494032065256"><ele>379.0</ele><time>2026-05-04T17:03:51Z</time></trkpt><trkpt lat="41.18548231354936" lon="15.02492438633161"><ele>374.33333333333337</ele><time>2026-05-04T17:03:52Z</time></trkpt><trkpt lat="41.18541043428081" lon="15.024875140462438"><ele>369.6666666666667</ele><time>2026-05-04T17:03:53Z</time></trkpt><trkpt lat="41.18534006191712" lon="15.02484259188492"><ele>365.0</ele><time>2026-05-04T17:03:54Z</time></trkpt><trkpt lat="41.1852657310022" lon="15.024809554095103"><ele>365.0</ele><time>2026-05-04T17:03:55Z</time></trkpt><trkpt lat="41.18518847149432" lon="15.024763879499707"><ele>365.0</ele><time>2026-05-04T17:03:56Z</time></trkpt><trkpt lat="41.18511348603197" lon="15.024780628378126"><ele>365.0</ele><time>2026-05-04T17:03:57Z</time></trkpt><trkpt lat="41.18503444340737" lon="15.02480116206641"><ele>365.0</ele><time>2026-05-04T17:03:58Z</time></trkpt><trkpt lat="41.18495300633946" lon="15.02482661211887"><ele>365.0</ele><time>2026-05-04T17:03:59Z</time></trkpt><trkpt lat="41.1848233924673" lon="15.024832988654108"><ele>360.83333333333337</ele><time>2026-05-04T17:04:01Z</time></trkpt><trkpt lat="41.18473876905669" lon="15.024850434542966"><ele>356.6666666666667</ele><time>2026-05-04T17:04:02Z</time></trkpt><trkpt lat="41.18465221441916" lon="15.02486827842031"><ele>352.5</ele><time>2026-05-04T17:04:03Z</time></trkpt><trkpt lat="41.18457705608982" lon="15.024924049775219"><ele>348.3333333333333</ele><time>2026-05-04T17:04:04Z</time></trkpt><trkpt lat="41.18450363223275" lon="15.024941048799647"><ele>344.16666666666663</ele><time>2026-05-04T17:04:05Z</time></trkpt><trkpt lat="41.184429686680566" lon="15.024944014130554"><ele>340.0</ele><time>2026-05-04T17:04:06Z</time></trkpt><trkpt lat="41.184362154646216" lon="15.02494587442182"><ele>340.0</ele><time>2026-05-04T17:04:07Z</time></trkpt><trkpt lat="41.18429564799597" lon="15.024943760916695"><ele>340.0</ele><time>2026-05-04T17:04:08Z</time></trkpt><trkpt lat="41.18417863277435" lon="15.024927429889951"><ele>340.0</ele><time>2026-05-04T17:04:10Z</time></trkpt><trkpt lat="41.18406161983906" lon="15.024842421139141"><ele>340.0</ele><time>2026-05-04T17:04:12Z</time></trkpt><trkpt lat="41.18398060808544" lon="15.024802982326259"><ele>340.0</ele><time>2026-05-04T17:04:13Z</time></trkpt><trkpt lat="41.18390164079259" lon="15.024771876721836"><ele>338.0</ele><time>2026-05-04T17:04:14Z</time></trkpt><trkpt lat="41.18381459139475" lon="15.024752927559582"><ele>336.0</ele><time>2026-05-04T17:04:15Z</time></trkpt><trkpt lat="41.18373017794219" lon="15.02474161155229"><ele>334.0</ele><time>2026-05-04T17:04:16Z</time></trkpt><trkpt lat="41.18365143330228" lon="15.02472495503"><ele>332.0</ele><time>2026-05-04T17:04:17Z</time></trkpt><trkpt lat="41.18358630820636" lon="15.024687586978338"><ele>330.0</ele><time>2026-05-04T17:04:18Z</time></trkpt><trkpt lat="41.18354415742111" lon="15.024621313671382"><ele>328.0</ele><time>2026-05-04T17:04:19Z</time></trkpt><trkpt lat="41.18348629110218" lon="15.02454715238067"><ele>328.0</ele><time>2026-05-04T17:04:20Z</time></trkpt><trkpt lat="41.18343191394796" lon="15.024480860042734"><ele>328.0</ele><time>2026-05-04T17:04:21Z</time></trkpt><trkpt lat="41.183366556175486" lon="15.024441034727078"><ele>328.0</ele><time>2026-05-04T17:04:22Z</time></trkpt><trkpt lat="41.1832732953851" lon="15.024465250808772"><ele>328.0</ele><time>2026-05-04T17:04:25Z</time></trkpt><trkpt lat="41.18319343737972" lon="15.024430922717489"><ele>328.0</ele><time>2026-05-04T17:04:29Z</time></trkpt><trkpt lat="41.18311728142802" lon="15.024442123069049"><ele>328.0</ele><time>2026-05-04T17:04:32Z</time></trkpt><trkpt lat="41.18307050001784" lon="15.02452824667802"><ele>330.0</ele><time>2026-05-04T17:04:34Z</time></trkpt><trkpt lat="41.183011247647386" lon="15.024610255996778"><ele>332.0</ele><time>2026-05-04T17:04:36Z</time></trkpt><trkpt lat="41.18297649874216" lon="15.024690219369617"><ele>334.0</ele><time>2026-05-04T17:04:44Z</time></trkpt><trkpt lat="41.1829076717005" lon="15.02467315768793"><ele>336.0</ele><time>2026-05-04T17:04:50Z</time></trkpt><trkpt lat="41.18308538888297" lon="15.024894534261165"><ele>335.20000000000005</ele><time>2026-05-04T17:06:28.999Z</time></trkpt><trkpt lat="41.18316208844283" lon="15.025012191903821"><ele>334.40000000000003</ele><time>2026-05-04T17:06:29.999Z</time></trkpt><trkpt lat="41.18324594467135" lon="15.025129949184073"><ele>333.6</ele><time>2026-05-04T17:06:30.999Z</time></trkpt><trkpt lat="41.18330342398068" lon="15.025214468793967"><ele>332.8</ele><time>2026-05-04T17:06:31.999Z</time></trkpt><trkpt lat="41.18337076807254" lon="15.025289562267549"><ele>332.0</ele><time>2026-05-04T17:06:45.999Z</time></trkpt><trkpt lat="41.18345495202651" lon="15.025391815298219"><ele>330.6666666666667</ele><time>2026-05-04T17:06:46.999Z</time></trkpt><trkpt lat="41.183548573015145" lon="15.025527552307365"><ele>329.3333333333333</ele><time>2026-05-04T17:06:47.999Z</time></trkpt><trkpt lat="41.183640653602545" lon="15.025705719736054"><ele>328.0</ele><time>2026-05-04T17:06:48.999Z</time></trkpt><trkpt lat="41.18373250028399" lon="15.025910878850839"><ele>330.66666666666663</ele><time>2026-05-04T17:06:49.999Z</time></trkpt><trkpt lat="41.18379014785425" lon="15.026109302726889"><ele>333.3333333333333</ele><time>2026-05-04T17:06:50.999Z</time></trkpt><trkpt lat="41.18383954994616" lon="15.026303342200109"><ele>336.0</ele><time>2026-05-04T17:06:51.999Z</time></trkpt><trkpt lat="41.18389032861945" lon="15.026479140695319"><ele>336.0</ele><time>2026-05-04T17:06:52.999Z</time></trkpt><trkpt lat="41.18396393225823" lon="15.02661945019572"><ele>336.0</ele><time>2026-05-04T17:06:53.999Z</time></trkpt><trkpt lat="41.184053533832866" lon="15.02671134491724"><ele>336.0</ele><time>2026-05-04T17:06:54.999Z</time></trkpt><trkpt lat="41.18414195880981" lon="15.026786554586073"><ele>336.0</ele><time>2026-05-04T17:06:55.999Z</time></trkpt><trkpt lat="41.184226245786896" lon="15.026888669548255"><ele>336.25</ele><time>2026-05-04T17:06:56.999Z</time></trkpt><trkpt lat="41.18432264938511" lon="15.026962343433604"><ele>336.5</ele><time>2026-05-04T17:06:57.999Z</time></trkpt><trkpt lat="41.18445177445189" lon="15.027084296653683"><ele>336.75</ele><time>2026-05-04T17:06:58.999Z</time></trkpt><trkpt lat="41.18455061508742" lon="15.02722511940004"><ele>337.0</ele><time>2026-05-04T17:06:59.999Z</time></trkpt><trkpt lat="41.1846311918287" lon="15.027303812201207"><ele>337.0</ele><time>2026-05-04T17:07:00.999Z</time></trkpt><trkpt lat="41.18472753660414" lon="15.027437805006286"><ele>337.0</ele><time>2026-05-04T17:07:01.999Z</time></trkpt><trkpt lat="41.18477698055064" lon="15.027556664483656"><ele>337.0</ele><time>2026-05-04T17:07:02.999Z</time></trkpt><trkpt lat="41.18480012148681" lon="15.027701541900225"><ele>337.0</ele><time>2026-05-04T17:07:03.999Z</time></trkpt><trkpt lat="41.184800234224845" lon="15.02783870327105"><ele>339.25</ele><time>2026-05-04T17:07:04.999Z</time></trkpt><trkpt lat="41.184774777282804" lon="15.028019053454232"><ele>341.5</ele><time>2026-05-04T17:07:05.999Z</time></trkpt><trkpt lat="41.18476509259929" lon="15.028199106260528"><ele>343.75</ele><time>2026-05-04T17:07:06.999Z</time></trkpt><trkpt lat="41.18478727768231" lon="15.028400222227283"><ele>346.0</ele><time>2026-05-04T17:07:07.999Z</time></trkpt><trkpt lat="41.184824646792464" lon="15.028533255416017"><ele>349.5</ele><time>2026-05-04T17:07:08.999Z</time></trkpt><trkpt lat="41.184827973511055" lon="15.02865984295803"><ele>353.0</ele><time>2026-05-04T17:07:09.999Z</time></trkpt><trkpt lat="41.18481470554626" lon="15.028827631750843"><ele>356.5</ele><time>2026-05-04T17:07:10.999Z</time></trkpt><trkpt lat="41.18477169664667" lon="15.029049782562202"><ele>360.0</ele><time>2026-05-04T17:07:11.999Z</time></trkpt><trkpt lat="41.1847472065245" lon="15.029197566944507"><ele>358.6</ele><time>2026-05-04T17:07:12.999Z</time></trkpt><trkpt lat="41.18482707786698" lon="15.029337842276993"><ele>357.2</ele><time>2026-05-04T17:07:14.999Z</time></trkpt><trkpt lat="41.18489743193853" lon="15.029316576781001"><ele>355.79999999999995</ele><time>2026-05-04T17:07:17.999Z</time></trkpt><trkpt lat="41.184973070698426" lon="15.029402938423676"><ele>354.4</ele><time>2026-05-04T17:07:21.999Z</time></trkpt><trkpt lat="41.18503708104358" lon="15.029462060310658"><ele>353.0</ele><time>2026-05-04T17:07:23.999Z</time></trkpt><trkpt lat="41.1851251009884" lon="15.02949228447696"><ele>353.0</ele><time>2026-05-04T17:07:26Z</time></trkpt><trkpt lat="41.18521469748455" lon="15.029533408470357"><ele>353.0</ele><time>2026-05-04T17:07:28Z</time></trkpt><trkpt lat="41.18527066480774" lon="15.02957674937365"><ele>353.0</ele><time>2026-05-04T17:07:30Z</time></trkpt><trkpt lat="41.18535117750566" lon="15.029578765758206"><ele>353.0</ele><time>2026-05-04T17:07:34Z</time></trkpt><trkpt lat="41.18547641377192" lon="15.029579147969777"><ele>353.0</ele><time>2026-05-04T17:08:01Z</time></trkpt><trkpt lat="41.18546575621136" lon="15.029704168625376"><ele>353.0</ele><time>2026-05-04T17:08:18Z</time></trkpt><trkpt lat="41.18545594623044" lon="15.02981837969601"><ele>353.0</ele><time>2026-05-04T17:08:34Z</time></trkpt><trkpt lat="41.185375908748426" lon="15.029849159231881"><ele>353.0</ele><time>2026-05-04T17:08:36Z</time></trkpt><trkpt lat="41.18528870661754" lon="15.029849760120783"><ele>353.0</ele><time>2026-05-04T17:08:38Z</time></trkpt><trkpt lat="41.18522515562103" lon="15.029834736414985"><ele>353.0</ele><time>2026-05-04T17:08:39Z</time></trkpt><trkpt lat="41.18514537698294" lon="15.029798974068687"><ele>353.0</ele><time>2026-05-04T17:08:40Z</time></trkpt><trkpt lat="41.18506459773836" lon="15.029824276458381"><ele>353.0</ele><time>2026-05-04T17:08:41Z</time></trkpt><trkpt lat="41.18500674405513" lon="15.029885800745932"><ele>353.0</ele><time>2026-05-04T17:08:41.999Z</time></trkpt><trkpt lat="41.18494663147084" lon="15.029964704334636"><ele>353.0</ele><time>2026-05-04T17:08:42.999Z</time></trkpt><trkpt lat="41.184890421156325" lon="15.030058752512746"><ele>353.0</ele><time>2026-05-04T17:08:43.999Z</time></trkpt><trkpt lat="41.18482105352969" lon="15.030166387157657"><ele>353.0</ele><time>2026-05-04T17:08:44.999Z</time></trkpt><trkpt lat="41.184773477519435" lon="15.030251325102872"><ele>353.0</ele><time>2026-05-04T17:08:45.999Z</time></trkpt><trkpt lat="41.18475409284307" lon="15.030335265595445"><ele>353.6666666666667</ele><time>2026-05-04T17:08:46.999Z</time></trkpt><trkpt lat="41.18469231685976" lon="15.03042919407511"><ele>354.33333333333337</ele><time>2026-05-04T17:08:48.999Z</time></trkpt><trkpt lat="41.18476312766382" lon="15.030450224381719"><ele>355.0</ele><time>2026-05-04T17:08:51.999Z</time></trkpt><trkpt lat="41.18484367989068" lon="15.0303785307308"><ele>355.6666666666667</ele><time>2026-05-04T17:08:53.999Z</time></trkpt><trkpt lat="41.18490937089098" lon="15.03034377358884"><ele>356.3333333333333</ele><time>2026-05-04T17:08:54.999Z</time></trkpt><trkpt lat="41.184980207987415" lon="15.030298049726966"><ele>357.0</ele><time>2026-05-04T17:08:55.999Z</time></trkpt><trkpt lat="41.18507567662815" lon="15.030283931726844"><ele>357.0</ele><time>2026-05-04T17:08:57.999Z</time></trkpt><trkpt lat="41.18507589265713" lon="15.030404865426588"><ele>357.0</ele><time>2026-05-04T17:08:59.999Z</time></trkpt><trkpt lat="41.18505226080093" lon="15.030495624506392"><ele>357.0</ele><time>2026-05-04T17:09:00.999Z</time></trkpt><trkpt lat="41.18497974703462" lon="15.030552004371259"><ele>357.0</ele><time>2026-05-04T17:09:02.999Z</time></trkpt><trkpt lat="41.18490187060682" lon="15.030672312207763"><ele>357.0</ele><time>2026-05-04T17:09:04.999Z</time></trkpt><trkpt lat="41.18484743262902" lon="15.03074998397877"><ele>357.0</ele><time>2026-05-04T17:09:05.999Z</time></trkpt><trkpt lat="41.18479715832352" lon="15.030810093694008"><ele>359.8</ele><time>2026-05-04T17:09:06.999Z</time></trkpt><trkpt lat="41.1847694575989" lon="15.030896716123438"><ele>362.6</ele><time>2026-05-04T17:09:07.999Z</time></trkpt><trkpt lat="41.18474615120225" lon="15.031002157427338"><ele>365.40000000000003</ele><time>2026-05-04T17:09:08.999Z</time></trkpt><trkpt lat="41.18469797177126" lon="15.031066398728814"><ele>368.20000000000005</ele><time>2026-05-04T17:09:09.999Z</time></trkpt><trkpt lat="41.184603731223454" lon="15.031146858368256"><ele>371.0</ele><time>2026-05-04T17:09:11.999Z</time></trkpt><trkpt lat="41.18452660554014" lon="15.031295820137782"><ele>371.0</ele><time>2026-05-04T17:09:13.999Z</time></trkpt><trkpt lat="41.18448452763115" lon="15.031408848507827"><ele>371.0</ele><time>2026-05-04T17:09:14.999Z</time></trkpt><trkpt lat="41.18443372567219" lon="15.031459107169766"><ele>371.0</ele><time>2026-05-04T17:09:15.999Z</time></trkpt><trkpt lat="41.18436703418582" lon="15.03149886794104"><ele>371.0</ele><time>2026-05-04T17:09:16.999Z</time></trkpt><trkpt lat="41.18430043794585" lon="15.031559418704628"><ele>371.0</ele><time>2026-05-04T17:09:17.999Z</time></trkpt><trkpt lat="41.184231447629955" lon="15.031614541385524"><ele>371.0</ele><time>2026-05-04T17:09:18.999Z</time></trkpt><trkpt lat="41.18412895180315" lon="15.031665234301645"><ele>374.1666666666667</ele><time>2026-05-04T17:09:19.999Z</time></trkpt><trkpt lat="41.18406133242805" lon="15.03172605727183"><ele>377.33333333333337</ele><time>2026-05-04T17:09:20.999Z</time></trkpt><trkpt lat="41.18398599934264" lon="15.031776582508412"><ele>380.5</ele><time>2026-05-04T17:09:23.999Z</time></trkpt><trkpt lat="41.18392147602979" lon="15.031815524836293"><ele>383.6666666666667</ele><time>2026-05-04T17:09:24.999Z</time></trkpt><trkpt lat="41.18385651068796" lon="15.031808273273972"><ele>386.8333333333333</ele><time>2026-05-04T17:09:27.999Z</time></trkpt><trkpt lat="41.1837898690086" lon="15.031838061053001"><ele>390.0</ele><time>2026-05-04T17:09:29.999Z</time></trkpt><trkpt lat="41.18369248772931" lon="15.031933787084126"><ele>390.0</ele><time>2026-05-04T17:09:32Z</time></trkpt><trkpt lat="41.1836967149035" lon="15.032018990035182"><ele>390.0</ele><time>2026-05-04T17:09:34Z</time></trkpt><trkpt lat="41.1836840311714" lon="15.032106416252516"><ele>390.0</ele><time>2026-05-04T17:10:40Z</time></trkpt><trkpt lat="41.18360839181142" lon="15.032157095748941"><ele>390.0</ele><time>2026-05-04T17:10:42Z</time></trkpt><trkpt lat="41.18349949411914" lon="15.032184537535057"><ele>390.0</ele><time>2026-05-04T17:10:44Z</time></trkpt><trkpt lat="41.1834252657152" lon="15.03218125122519"><ele>390.0</ele><time>2026-05-04T17:10:45Z</time></trkpt><trkpt lat="41.18340240478262" lon="15.03232393775084"><ele>390.0</ele><time>2026-05-04T17:10:47Z</time></trkpt><trkpt lat="41.18339293772751" lon="15.032431049758936"><ele>390.0</ele><time>2026-05-04T17:10:49Z</time></trkpt><trkpt lat="41.18340148845417" lon="15.032572398801292"><ele>390.0</ele><time>2026-05-04T17:10:50Z</time></trkpt><trkpt lat="41.18340072709063" lon="15.032695206552264"><ele>390.0</ele><time>2026-05-04T17:10:51Z</time></trkpt><trkpt lat="41.18339052381603" lon="15.032831102398797"><ele>390.0</ele><time>2026-05-04T17:10:52Z</time></trkpt><trkpt lat="41.18337979830237" lon="15.032941317735867"><ele>393.6</ele><time>2026-05-04T17:10:53Z</time></trkpt><trkpt lat="41.18336874296808" lon="15.033079856148204"><ele>397.2</ele><time>2026-05-04T17:10:54Z</time></trkpt><trkpt lat="41.183358777147596" lon="15.033203293524696"><ele>400.79999999999995</ele><time>2026-05-04T17:10:55Z</time></trkpt><trkpt lat="41.18334887686231" lon="15.033318217954497"><ele>404.4</ele><time>2026-05-04T17:10:56Z</time></trkpt><trkpt lat="41.18333466635077" lon="15.033448369386573"><ele>408.0</ele><time>2026-05-04T17:10:57Z</time></trkpt><trkpt lat="41.1833434006532" lon="15.033564782347268"><ele>410.8571428571429</ele><time>2026-05-04T17:10:58Z</time></trkpt><trkpt lat="41.18336606939452" lon="15.033657330611742"><ele>413.7142857142857</ele><time>2026-05-04T17:10:59Z</time></trkpt><trkpt lat="41.18341597042417" lon="15.033731906270226"><ele>416.57142857142856</ele><time>2026-05-04T17:11:00Z</time></trkpt><trkpt lat="41.183470532821815" lon="15.033788288889804"><ele>419.42857142857144</ele><time>2026-05-04T17:11:01Z</time></trkpt><trkpt lat="41.18352023079711" lon="15.033881168672346"><ele>422.2857142857143</ele><time>2026-05-04T17:11:02Z</time></trkpt><trkpt lat="41.183532670910715" lon="15.033973914090643"><ele>425.14285714285717</ele><time>2026-05-04T17:11:03Z</time></trkpt><trkpt lat="41.183510377571366" lon="15.03406747755498"><ele>428.0</ele><time>2026-05-04T17:11:04Z</time></trkpt><trkpt lat="41.18346968743292" lon="15.03415973087601"><ele>432.4</ele><time>2026-05-04T17:11:05Z</time></trkpt><trkpt lat="41.183426607392114" lon="15.03425395951164"><ele>436.79999999999995</ele><time>2026-05-04T17:11:06Z</time></trkpt><trkpt lat="41.183395750629" lon="15.034352158227444"><ele>441.2</ele><time>2026-05-04T17:11:07Z</time></trkpt><trkpt lat="41.18335425908261" lon="15.034486276129845"><ele>445.6</ele><time>2026-05-04T17:11:09Z</time></trkpt><trkpt lat="41.18332108023632" lon="15.034564532897493"><ele>450.0</ele><time>2026-05-04T17:11:10Z</time></trkpt><trkpt lat="41.18327363246114" lon="15.034746603741631"><ele>450.0</ele><time>2026-05-04T17:11:12Z</time></trkpt><trkpt lat="41.18324398801117" lon="15.034842583457685"><ele>450.0</ele><time>2026-05-04T17:11:13Z</time></trkpt><trkpt lat="41.18321120396235" lon="15.03493742903684"><ele>450.0</ele><time>2026-05-04T17:11:14Z</time></trkpt><trkpt lat="41.183197160661" lon="15.035026911014961"><ele>450.0</ele><time>2026-05-04T17:11:14.999Z</time></trkpt><trkpt lat="41.183183514821685" lon="15.035182360608985"><ele>450.0</ele><time>2026-05-04T17:11:16.999Z</time></trkpt><trkpt lat="41.18319318377672" lon="15.035275411758477"><ele>450.0</ele><time>2026-05-04T17:11:17.999Z</time></trkpt><trkpt lat="41.18321503634945" lon="15.035358634285823"><ele>453.6</ele><time>2026-05-04T17:11:18.999Z</time></trkpt><trkpt lat="41.18327711477101" lon="15.035493164444068"><ele>457.2</ele><time>2026-05-04T17:11:20.999Z</time></trkpt><trkpt lat="41.18332188941595" lon="15.035625744855176"><ele>460.79999999999995</ele><time>2026-05-04T17:11:22.999Z</time></trkpt><trkpt lat="41.18327385869281" lon="15.035735998268672"><ele>464.4</ele><time>2026-05-04T17:11:24.999Z</time></trkpt><trkpt lat="41.18320129242454" lon="15.035826507451526"><ele>468.0</ele><time>2026-05-04T17:11:26.999Z</time></trkpt><trkpt lat="41.18313851113106" lon="15.035935260473105"><ele>468.5</ele><time>2026-05-04T17:11:28.999Z</time></trkpt><trkpt lat="41.1830465207652" lon="15.036047405726801"><ele>469.0</ele><time>2026-05-04T17:11:30.999Z</time></trkpt><trkpt lat="41.182987671992585" lon="15.036103499823154"><ele>469.5</ele><time>2026-05-04T17:11:31.999Z</time></trkpt><trkpt lat="41.182935148252675" lon="15.036162570841572"><ele>470.0</ele><time>2026-05-04T17:11:32.999Z</time></trkpt><trkpt lat="41.18288842913776" lon="15.036227968061871"><ele>470.5</ele><time>2026-05-04T17:11:33.999Z</time></trkpt><trkpt lat="41.18284249429787" lon="15.036305238210671"><ele>471.0</ele><time>2026-05-04T17:11:34.999Z</time></trkpt><trkpt lat="41.18279866852362" lon="15.036399031900322"><ele>471.0</ele><time>2026-05-04T17:11:35.999Z</time></trkpt><trkpt lat="41.18276166401728" lon="15.03649321451938"><ele>471.0</ele><time>2026-05-04T17:11:36.999Z</time></trkpt><trkpt lat="41.182730592941546" lon="15.036594562822737"><ele>471.0</ele><time>2026-05-04T17:11:38Z</time></trkpt><trkpt lat="41.1827139054347" lon="15.036704603214222"><ele>471.0</ele><time>2026-05-04T17:11:39Z</time></trkpt><trkpt lat="41.18269808818861" lon="15.0368138789004"><ele>471.0</ele><time>2026-05-04T17:11:40Z</time></trkpt><trkpt lat="41.182681479492544" lon="15.036922393440497"><ele>471.0</ele><time>2026-05-04T17:11:41Z</time></trkpt><trkpt lat="41.18266045987186" lon="15.037030091155858"><ele>472.0</ele><time>2026-05-04T17:11:42Z</time></trkpt><trkpt lat="41.18262956836076" lon="15.037142468672803"><ele>473.0</ele><time>2026-05-04T17:11:43Z</time></trkpt><trkpt lat="41.18259668801197" lon="15.037237089579229"><ele>474.0</ele><time>2026-05-04T17:11:44Z</time></trkpt><trkpt lat="41.18254023023159" lon="15.03730373935064"><ele>475.0</ele><time>2026-05-04T17:11:45Z</time></trkpt><trkpt lat="41.18246260248197" lon="15.037355990362846"><ele>476.0</ele><time>2026-05-04T17:11:46Z</time></trkpt><trkpt lat="41.18238227188126" lon="15.037385020316611"><ele>477.0</ele><time>2026-05-04T17:11:47Z</time></trkpt><trkpt lat="41.18230783885339" lon="15.037455118732746"><ele>481.0</ele><time>2026-05-04T17:11:48Z</time></trkpt><trkpt lat="41.18223029161094" lon="15.03754819471625"><ele>485.0</ele><time>2026-05-04T17:11:49Z</time></trkpt><trkpt lat="41.18214798857733" lon="15.037666239821577"><ele>489.0</ele><time>2026-05-04T17:11:50Z</time></trkpt><trkpt lat="41.18206234718763" lon="15.037795062229545"><ele>493.0</ele><time>2026-05-04T17:11:51Z</time></trkpt><trkpt lat="41.181972229506925" lon="15.037920943092635"><ele>493.0</ele><time>2026-05-04T17:11:52Z</time></trkpt><trkpt lat="41.181876805828864" lon="15.03805032865208"><ele>493.0</ele><time>2026-05-04T17:11:53Z</time></trkpt><trkpt lat="41.18177347020071" lon="15.038186591894059"><ele>493.0</ele><time>2026-05-04T17:11:54Z</time></trkpt><trkpt lat="41.1816804628314" lon="15.038312740442443"><ele>493.0</ele><time>2026-05-04T17:11:55Z</time></trkpt><trkpt lat="41.1815972856335" lon="15.038440244694542"><ele>495.79999999999995</ele><time>2026-05-04T17:11:56Z</time></trkpt><trkpt lat="41.181516542272234" lon="15.038578731834749"><ele>498.59999999999997</ele><time>2026-05-04T17:11:57Z</time></trkpt><trkpt lat="41.181449905954985" lon="15.038693093215038"><ele>501.40000000000003</ele><time>2026-05-04T17:11:58Z</time></trkpt><trkpt lat="41.18140785564119" lon="15.038805602432184"><ele>504.20000000000005</ele><time>2026-05-04T17:11:59Z</time></trkpt><trkpt lat="41.18139051419415" lon="15.03891942450753"><ele>507.0</ele><time>2026-05-04T17:12:00Z</time></trkpt><trkpt lat="41.18139036676886" lon="15.039019615961726"><ele>511.20000000000005</ele><time>2026-05-04T17:12:01Z</time></trkpt><trkpt lat="41.18136923481354" lon="15.039172007958035"><ele>515.4000000000001</ele><time>2026-05-04T17:12:03Z</time></trkpt><trkpt lat="41.18127686077051" lon="15.03929357555008"><ele>519.5999999999999</ele><time>2026-05-04T17:12:05Z</time></trkpt><trkpt lat="41.18120653813654" lon="15.039354982501603"><ele>523.8</ele><time>2026-05-04T17:12:06Z</time></trkpt><trkpt lat="41.18113150744744" lon="15.039391467475108"><ele>528.0</ele><time>2026-05-04T17:12:07Z</time></trkpt><trkpt lat="41.18104273666754" lon="15.039414487375481"><ele>528.0</ele><time>2026-05-04T17:12:08Z</time></trkpt><trkpt lat="41.180941942600725" lon="15.039435518864394"><ele>528.0</ele><time>2026-05-04T17:12:09Z</time></trkpt><trkpt lat="41.1808124182216" lon="15.03944785699367"><ele>528.0</ele><time>2026-05-04T17:12:10Z</time></trkpt><trkpt lat="41.180685956774084" lon="15.039469565235859"><ele>528.0</ele><time>2026-05-04T17:12:11Z</time></trkpt><trkpt lat="41.180560331976906" lon="15.039499377929003"><ele>530.0</ele><time>2026-05-04T17:12:12Z</time></trkpt><trkpt lat="41.18042828904212" lon="15.039508331394334"><ele>532.0</ele><time>2026-05-04T17:12:13Z</time></trkpt><trkpt lat="41.180303785526824" lon="15.03951235310249"><ele>534.0</ele><time>2026-05-04T17:12:14Z</time></trkpt><trkpt lat="41.18019094634201" lon="15.03948214633966"><ele>536.0</ele><time>2026-05-04T17:12:15Z</time></trkpt><trkpt lat="41.18008178246006" lon="15.039453278154015"><ele>536.0</ele><time>2026-05-04T17:12:16Z</time></trkpt><trkpt lat="41.18000613659292" lon="15.039439546774773"><ele>536.0</ele><time>2026-05-04T17:12:17Z</time></trkpt><trkpt lat="41.17993350241223" lon="15.039438716386979"><ele>536.0</ele><time>2026-05-04T17:12:18Z</time></trkpt><trkpt lat="41.179865719608635" lon="15.039454957873614"><ele>536.0</ele><time>2026-05-04T17:12:19Z</time></trkpt><trkpt lat="41.179792497284204" lon="15.03938647140856"><ele>536.0</ele><time>2026-05-04T17:12:21Z</time></trkpt><trkpt lat="41.179694129712786" lon="15.0394023810166"><ele>536.0</ele><time>2026-05-04T17:12:23Z</time></trkpt><trkpt lat="41.17963016635221" lon="15.03944951453495"><ele>535.6666666666666</ele><time>2026-05-04T17:12:24Z</time></trkpt><trkpt lat="41.179548856482135" lon="15.039490344073693"><ele>535.3333333333333</ele><time>2026-05-04T17:12:25Z</time></trkpt><trkpt lat="41.179478231854546" lon="15.039551561417692"><ele>535.0</ele><time>2026-05-04T17:12:26Z</time></trkpt><trkpt lat="41.17940868956257" lon="15.039615357570232"><ele>534.6666666666666</ele><time>2026-05-04T17:12:27Z</time></trkpt><trkpt lat="41.17933016849376" lon="15.039690380718191"><ele>534.3333333333334</ele><time>2026-05-04T17:12:28Z</time></trkpt><trkpt lat="41.17925583098883" lon="15.039763004215676"><ele>534.0</ele><time>2026-05-04T17:12:29Z</time></trkpt><trkpt lat="41.179181908600384" lon="15.039838499536284"><ele>534.0</ele><time>2026-05-04T17:12:30Z</time></trkpt><trkpt lat="41.179108377661834" lon="15.039911266642354"><ele>534.0</ele><time>2026-05-04T17:12:31Z</time></trkpt><trkpt lat="41.17902910131688" lon="15.039978999889243"><ele>534.0</ele><time>2026-05-04T17:12:32Z</time></trkpt><trkpt lat="41.17895558638144" lon="15.040038904251324"><ele>534.0</ele><time>2026-05-04T17:12:33Z</time></trkpt><trkpt lat="41.17887636678526" lon="15.040105032536738"><ele>534.0</ele><time>2026-05-04T17:12:34Z</time></trkpt><trkpt lat="41.17880923197459" lon="15.040163795169972"><ele>534.0</ele><time>2026-05-04T17:12:35Z</time></trkpt><trkpt lat="41.17874908252946" lon="15.040230540437612"><ele>532.3333333333334</ele><time>2026-05-04T17:12:36Z</time></trkpt><trkpt lat="41.178697515717666" lon="15.040304837819942"><ele>530.6666666666666</ele><time>2026-05-04T17:12:37Z</time></trkpt><trkpt lat="41.17864537369286" lon="15.040380584627584"><ele>529.0</ele><time>2026-05-04T17:12:38Z</time></trkpt><trkpt lat="41.17859173712717" lon="15.04045855000831"><ele>527.3333333333333</ele><time>2026-05-04T17:12:39Z</time></trkpt><trkpt lat="41.1785321077188" lon="15.040544738837912"><ele>525.6666666666666</ele><time>2026-05-04T17:12:40Z</time></trkpt><trkpt lat="41.17848437746003" lon="15.040645613034892"><ele>524.0</ele><time>2026-05-04T17:12:41Z</time></trkpt><trkpt lat="41.178418248502" lon="15.040735114081441"><ele>524.1666666666666</ele><time>2026-05-04T17:12:42Z</time></trkpt><trkpt lat="41.17834327540734" lon="15.040799882455666"><ele>524.3333333333333</ele><time>2026-05-04T17:12:43Z</time></trkpt><trkpt lat="41.17828001025641" lon="15.040851250167023"><ele>524.5</ele><time>2026-05-04T17:12:44Z</time></trkpt><trkpt lat="41.17821379555593" lon="15.040868366904922"><ele>524.6666666666666</ele><time>2026-05-04T17:12:45Z</time></trkpt><trkpt lat="41.178142672500464" lon="15.040869575328312"><ele>524.8333333333334</ele><time>2026-05-04T17:12:46Z</time></trkpt><trkpt lat="41.17805072981888" lon="15.040753237902358"><ele>525.0</ele><time>2026-05-04T17:12:48Z</time></trkpt><trkpt lat="41.177932015461955" lon="15.04070415460378"><ele>522.5</ele><time>2026-05-04T17:12:50Z</time></trkpt><trkpt lat="41.17786505475789" lon="15.040671165982491"><ele>520.0</ele><time>2026-05-04T17:12:51Z</time></trkpt><trkpt lat="41.17777432584507" lon="15.040595177136497"><ele>517.5</ele><time>2026-05-04T17:12:53Z</time></trkpt><trkpt lat="41.17779298375973" lon="15.0404783031022"><ele>515.0</ele><time>2026-05-04T17:12:55Z</time></trkpt><trkpt lat="41.17772340632614" lon="15.04038734929427"><ele>512.5</ele><time>2026-05-04T17:12:57Z</time></trkpt><trkpt lat="41.177663339622164" lon="15.040318963371805"><ele>510.0</ele><time>2026-05-04T17:12:58Z</time></trkpt><trkpt lat="41.177235387238476" lon="15.04067190378684"><ele>510.0</ele><time>2026-05-04T17:12:59Z</time></trkpt><trkpt lat="41.17719178190469" lon="15.040605649816976"><ele>510.0</ele><time>2026-05-04T17:13:00Z</time></trkpt><trkpt lat="41.17711222730993" lon="15.040508620608634"><ele>510.0</ele><time>2026-05-04T17:13:02Z</time></trkpt><trkpt lat="41.17701416929452" lon="15.040488788947437"><ele>510.0</ele><time>2026-05-04T17:13:03Z</time></trkpt><trkpt lat="41.17692766968074" lon="15.040484356799862"><ele>510.0</ele><time>2026-05-04T17:13:04Z</time></trkpt><trkpt lat="41.17684469286813" lon="15.040468818140091"><ele>510.0</ele><time>2026-05-04T17:13:05Z</time></trkpt><trkpt lat="41.17674775810063" lon="15.040314924020064"><ele>510.0</ele><time>2026-05-04T17:13:07Z</time></trkpt><trkpt lat="41.17667455848948" lon="15.040248944226985"><ele>510.0</ele><time>2026-05-04T17:13:08Z</time></trkpt><trkpt lat="41.17659868894704" lon="15.040194325855667"><ele>510.0</ele><time>2026-05-04T17:13:09Z</time></trkpt><trkpt lat="41.1765291143391" lon="15.040119600742516"><ele>510.0</ele><time>2026-05-04T17:13:10Z</time></trkpt><trkpt lat="41.1764373469257" lon="15.040063621883657"><ele>510.0</ele><time>2026-05-04T17:13:11Z</time></trkpt><trkpt lat="41.17633986444624" lon="15.0400274255823"><ele>512.0</ele><time>2026-05-04T17:13:12Z</time></trkpt><trkpt lat="41.17622393226224" lon="15.03998583257837"><ele>514.0</ele><time>2026-05-04T17:13:13Z</time></trkpt><trkpt lat="41.17614096534218" lon="15.039945754170258"><ele>516.0</ele><time>2026-05-04T17:13:14Z</time></trkpt><trkpt lat="41.17607677048654" lon="15.039911326061567"><ele>518.0</ele><time>2026-05-04T17:13:15Z</time></trkpt><trkpt lat="41.17600359790705" lon="15.039852741688469"><ele>520.0</ele><time>2026-05-04T17:13:17Z</time></trkpt><trkpt lat="41.17594937243298" lon="15.039752603282025"><ele>520.0</ele><time>2026-05-04T17:13:19Z</time></trkpt><trkpt lat="41.17590541039514" lon="15.039613196942124"><ele>520.0</ele><time>2026-05-04T17:13:20.999Z</time></trkpt><trkpt lat="41.17590390760642" lon="15.039501678650582"><ele>520.0</ele><time>2026-05-04T17:13:21.999Z</time></trkpt><trkpt lat="41.17589072491372" lon="15.039397172911452"><ele>520.0</ele><time>2026-05-04T17:13:22.999Z</time></trkpt><trkpt lat="41.175875867779524" lon="15.039298798259336"><ele>520.0</ele><time>2026-05-04T17:13:23.999Z</time></trkpt><trkpt lat="41.17586581003044" lon="15.039125061763068"><ele>521.2</ele><time>2026-05-04T17:13:25.999Z</time></trkpt><trkpt lat="41.17584331461625" lon="15.03903445366334"><ele>522.4</ele><time>2026-05-04T17:13:26.999Z</time></trkpt><trkpt lat="41.175824900481516" lon="15.03888991661906"><ele>523.6</ele><time>2026-05-04T17:13:27.999Z</time></trkpt><trkpt lat="41.17576945813169" lon="15.038792984805996"><ele>524.8</ele><time>2026-05-04T17:13:28.999Z</time></trkpt><trkpt lat="41.17570720655251" lon="15.038673474494631"><ele>526.0</ele><time>2026-05-04T17:13:29.999Z</time></trkpt><trkpt lat="41.17565419463803" lon="15.0385655746535"><ele>526.0</ele><time>2026-05-04T17:13:30.999Z</time></trkpt><trkpt lat="41.175597172860975" lon="15.038461324569298"><ele>526.0</ele><time>2026-05-04T17:13:31.999Z</time></trkpt><trkpt lat="41.175554099547405" lon="15.038371685545505"><ele>526.0</ele><time>2026-05-04T17:13:32.999Z</time></trkpt><trkpt lat="41.17553456071146" lon="15.03828128361009"><ele>526.0</ele><time>2026-05-04T17:13:33.999Z</time></trkpt><trkpt lat="41.17546313139571" lon="15.0382006240321"><ele>526.0</ele><time>2026-05-04T17:13:34.999Z</time></trkpt><trkpt lat="41.17538348502429" lon="15.038168036719178"><ele>526.0</ele><time>2026-05-04T17:13:35.999Z</time></trkpt><trkpt lat="41.175295060301124" lon="15.038137536566571"><ele>521.8</ele><time>2026-05-04T17:13:36.999Z</time></trkpt><trkpt lat="41.175189122077725" lon="15.038117362417374"><ele>517.6</ele><time>2026-05-04T17:13:37.999Z</time></trkpt><trkpt lat="41.17508638839403" lon="15.038098267591844"><ele>513.4</ele><time>2026-05-04T17:13:38.999Z</time></trkpt><trkpt lat="41.174972142818675" lon="15.03810341288227"><ele>509.2</ele><time>2026-05-04T17:13:39.999Z</time></trkpt><trkpt lat="41.17487088609212" lon="15.038124708119629"><ele>505.0</ele><time>2026-05-04T17:13:40.999Z</time></trkpt><trkpt lat="41.174775167565464" lon="15.03814471793474"><ele>505.0</ele><time>2026-05-04T17:13:41.999Z</time></trkpt><trkpt lat="41.174672018074276" lon="15.038137614012333"><ele>505.0</ele><time>2026-05-04T17:13:42.999Z</time></trkpt><trkpt lat="41.17458270928123" lon="15.038136361293867"><ele>505.0</ele><time>2026-05-04T17:13:44Z</time></trkpt><trkpt lat="41.17447137331229" lon="15.038147123924993"><ele>505.0</ele><time>2026-05-04T17:13:45Z</time></trkpt><trkpt lat="41.174357308712935" lon="15.038168754486284"><ele>505.0</ele><time>2026-05-04T17:13:46Z</time></trkpt><trkpt lat="41.17427658601082" lon="15.038163588971338"><ele>505.0</ele><time>2026-05-04T17:13:47Z</time></trkpt><trkpt lat="41.174209034397514" lon="15.038117440124934"><ele>505.0</ele><time>2026-05-04T17:13:48Z</time></trkpt><trkpt lat="41.17411424753907" lon="15.03808235603394"><ele>505.0</ele><time>2026-05-04T17:13:49Z</time></trkpt><trkpt lat="41.17402692222886" lon="15.038037656258181"><ele>505.0</ele><time>2026-05-04T17:13:50Z</time></trkpt><trkpt lat="41.17394162938789" lon="15.038002436360633"><ele>505.0</ele><time>2026-05-04T17:13:51Z</time></trkpt><trkpt lat="41.17384802281575" lon="15.03796141432807"><ele>506.83333333333337</ele><time>2026-05-04T17:13:52Z</time></trkpt><trkpt lat="41.17374476696299" lon="15.037920745492606"><ele>508.6666666666667</ele><time>2026-05-04T17:13:53Z</time></trkpt><trkpt lat="41.173680025684114" lon="15.037889568299649"><ele>510.5</ele><time>2026-05-04T17:13:54Z</time></trkpt><trkpt lat="41.17358986510868" lon="15.037863490900557"><ele>512.3333333333334</ele><time>2026-05-04T17:13:55Z</time></trkpt><trkpt lat="41.17349767021495" lon="15.037832825618136"><ele>514.1666666666666</ele><time>2026-05-04T17:13:56Z</time></trkpt><trkpt lat="41.173429976793905" lon="15.037808748560185"><ele>516.0</ele><time>2026-05-04T17:13:57Z</time></trkpt><trkpt lat="41.17334881908309" lon="15.03780421261238"><ele>516.0</ele><time>2026-05-04T17:13:58Z</time></trkpt><trkpt lat="41.17325112057865" lon="15.037807983319551"><ele>516.0</ele><time>2026-05-04T17:13:59Z</time></trkpt><trkpt lat="41.173166333050524" lon="15.03782401350589"><ele>516.0</ele><time>2026-05-04T17:14:00Z</time></trkpt><trkpt lat="41.173082724885035" lon="15.037853385838908"><ele>516.0</ele><time>2026-05-04T17:14:01Z</time></trkpt><trkpt lat="41.17300593228608" lon="15.037876638649074"><ele>516.0</ele><time>2026-05-04T17:14:02Z</time></trkpt><trkpt lat="41.17291401242114" lon="15.037914587596662"><ele>516.0</ele><time>2026-05-04T17:14:03Z</time></trkpt><trkpt lat="41.17282517355485" lon="15.037932687031343"><ele>518.5</ele><time>2026-05-04T17:14:04Z</time></trkpt><trkpt lat="41.172745520141255" lon="15.037952050807771"><ele>521.0</ele><time>2026-05-04T17:14:05Z</time></trkpt><trkpt lat="41.17265879885249" lon="15.037967677949615"><ele>523.5</ele><time>2026-05-04T17:14:06Z</time></trkpt><trkpt lat="41.17258802629604" lon="15.037980782416685"><ele>526.0</ele><time>2026-05-04T17:14:07Z</time></trkpt><trkpt lat="41.172471569906456" lon="15.037980702730389"><ele>528.5</ele><time>2026-05-04T17:14:09Z</time></trkpt><trkpt lat="41.1723924590388" lon="15.038009488582611"><ele>531.0</ele><time>2026-05-04T17:14:11Z</time></trkpt><trkpt lat="41.17230113847213" lon="15.038009244819923"><ele>531.0</ele><time>2026-05-04T17:14:14Z</time></trkpt><trkpt lat="41.172264213659886" lon="15.03793855719591"><ele>531.0</ele><time>2026-05-04T17:14:17Z</time></trkpt><trkpt lat="41.17227152696329" lon="15.037823337608852"><ele>531.0</ele><time>2026-05-04T17:14:21Z</time></trkpt><trkpt lat="41.17233682019901" lon="15.037763482271778"><ele>531.0</ele><time>2026-05-04T17:14:23Z</time></trkpt><trkpt lat="41.17242953312573" lon="15.03774530332441"><ele>531.0</ele><time>2026-05-04T17:14:25Z</time></trkpt><trkpt lat="41.172488504549044" lon="15.03771261196943"><ele>531.0</ele><time>2026-05-04T17:14:27Z</time></trkpt><trkpt lat="41.172519657166625" lon="15.037630741816953"><ele>531.0</ele><time>2026-05-04T17:14:30Z</time></trkpt><trkpt lat="41.172475247584686" lon="15.03753227088008"><ele>531.0</ele><time>2026-05-04T17:14:34Z</time></trkpt><trkpt lat="41.172482601724134" lon="15.037439922532277"><ele>531.0</ele><time>2026-05-04T17:14:36Z</time></trkpt><trkpt lat="41.17247388709197" lon="15.037329109055449"><ele>531.0</ele><time>2026-05-04T17:14:38Z</time></trkpt><trkpt lat="41.17252118315394" lon="15.037252195532327"><ele>531.0</ele><time>2026-05-04T17:14:49Z</time></trkpt><trkpt lat="41.17257064220225" lon="15.037156143337251"><ele>531.0</ele><time>2026-05-04T17:15:10.999Z</time></trkpt><trkpt lat="41.17257901756194" lon="15.037050804490097"><ele>531.2</ele><time>2026-05-04T17:15:15.999Z</time></trkpt><trkpt lat="41.172592843989115" lon="15.036899905528152"><ele>531.4000000000001</ele><time>2026-05-04T17:15:17.999Z</time></trkpt><trkpt lat="41.17261308729661" lon="15.036762060206234"><ele>531.6</ele><time>2026-05-04T17:15:19.999Z</time></trkpt><trkpt lat="41.17267049007462" lon="15.03669484078612"><ele>531.8000000000001</ele><time>2026-05-04T17:15:22.999Z</time></trkpt><trkpt lat="41.17273716041573" lon="15.03659735026547"><ele>532.0</ele><time>2026-05-04T17:15:24.999Z</time></trkpt><trkpt lat="41.17276876785897" lon="15.036494182130143"><ele>533.0</ele><time>2026-05-04T17:15:26.999Z</time></trkpt><trkpt lat="41.172775952741496" lon="15.03634871321851"><ele>534.0</ele><time>2026-05-04T17:15:28.999Z</time></trkpt><trkpt lat="41.1727616212907" lon="15.036247541636287"><ele>535.0</ele><time>2026-05-04T17:15:29.999Z</time></trkpt><trkpt lat="41.17273930719532" lon="15.036148514009204"><ele>536.0</ele><time>2026-05-04T17:15:30.999Z</time></trkpt><trkpt lat="41.172717302836844" lon="15.036063652106545"><ele>537.0</ele><time>2026-05-04T17:15:31.999Z</time></trkpt><trkpt lat="41.17272721884371" lon="15.035941840228414"><ele>538.0</ele><time>2026-05-04T17:15:33.999Z</time></trkpt><trkpt lat="41.172718231782255" lon="15.035818505112168"><ele>537.3333333333334</ele><time>2026-05-04T17:15:34.999Z</time></trkpt><trkpt lat="41.1727061050292" lon="15.035629239641166"><ele>536.6666666666667</ele><time>2026-05-04T17:15:36.999Z</time></trkpt><trkpt lat="41.172718927489896" lon="15.035541287023939"><ele>536.0</ele><time>2026-05-04T17:15:37.999Z</time></trkpt><trkpt lat="41.172713900441984" lon="15.035456187362437"><ele>535.3333333333334</ele><time>2026-05-04T17:15:38.999Z</time></trkpt><trkpt lat="41.17270206733797" lon="15.035367801913182"><ele>534.6666666666666</ele><time>2026-05-04T17:15:40.999Z</time></trkpt><trkpt lat="41.17266729803198" lon="15.035242562637698"><ele>534.0</ele><time>2026-05-04T17:15:42.999Z</time></trkpt><trkpt lat="41.172635436017806" lon="15.035163385361153"><ele>534.0</ele><time>2026-05-04T17:15:43.999Z</time></trkpt><trkpt lat="41.17256805588455" lon="15.035058991326908"><ele>534.0</ele><time>2026-05-04T17:15:47.999Z</time></trkpt><trkpt lat="41.172503657519414" lon="15.03498512983151"><ele>534.0</ele><time>2026-05-04T17:15:51Z</time></trkpt><trkpt lat="41.17245346317707" lon="15.034928894601958"><ele>534.0</ele><time>2026-05-04T17:15:53Z</time></trkpt><trkpt lat="41.17237626670416" lon="15.034869980224267"><ele>534.0</ele><time>2026-05-04T17:15:56Z</time></trkpt><trkpt lat="41.17231133302342" lon="15.034819001593041"><ele>534.0</ele><time>2026-05-04T17:15:59Z</time></trkpt><trkpt lat="41.172246536570476" lon="15.034773539782364"><ele>532.5</ele><time>2026-05-04T17:16:02Z</time></trkpt><trkpt lat="41.172189583215385" lon="15.034720642337914"><ele>531.0</ele><time>2026-05-04T17:16:05Z</time></trkpt><trkpt lat="41.171551240836116" lon="15.034575756144923"><ele>534.0</ele><time>2026-05-04T17:16:08Z</time></trkpt><trkpt lat="41.17149018207609" lon="15.03455172209968"><ele>537.0</ele><time>2026-05-04T17:16:09Z</time></trkpt><trkpt lat="41.17138276647127" lon="15.03453795413128"><ele>540.0</ele><time>2026-05-04T17:16:11Z</time></trkpt><trkpt lat="41.17133748327235" lon="15.034607009016407"><ele>543.0</ele><time>2026-05-04T17:16:13Z</time></trkpt><trkpt lat="41.17131830717534" lon="15.034697057953597"><ele>546.0</ele><time>2026-05-04T17:20:50Z</time></trkpt><trkpt lat="41.171303187298456" lon="15.034870254168462"><ele>549.0</ele><time>2026-05-04T17:20:52Z</time></trkpt><trkpt lat="41.17129902728095" lon="15.034983434165182"><ele>549.1666666666666</ele><time>2026-05-04T17:20:53Z</time></trkpt><trkpt lat="41.17128367141886" lon="15.035076951836375"><ele>549.3333333333334</ele><time>2026-05-04T17:20:54Z</time></trkpt><trkpt lat="41.17126163230312" lon="15.03515876225189"><ele>549.5</ele><time>2026-05-04T17:20:55Z</time></trkpt><trkpt lat="41.17121443239105" lon="15.035243196015525"><ele>549.6666666666667</ele><time>2026-05-04T17:20:57Z</time></trkpt><trkpt lat="41.17113946359208" lon="15.035298780551601"><ele>549.8333333333334</ele><time>2026-05-04T17:21:02Z</time></trkpt><trkpt lat="41.17118035420307" lon="15.03544333075637"><ele>550.0</ele><time>2026-05-04T17:21:03Z</time></trkpt><trkpt lat="41.171187777642594" lon="15.035555171566543"><ele>550.0</ele><time>2026-05-04T17:21:04Z</time></trkpt><trkpt lat="41.17120150208106" lon="15.035675496261973"><ele>550.0</ele><time>2026-05-04T17:21:05Z</time></trkpt><trkpt lat="41.171215137549815" lon="15.035807676516926"><ele>550.0</ele><time>2026-05-04T17:21:06Z</time></trkpt><trkpt lat="41.171233571953344" lon="15.035948338813041"><ele>550.0</ele><time>2026-05-04T17:21:07Z</time></trkpt><trkpt lat="41.17124896335873" lon="15.036109694620922"><ele>550.0</ele><time>2026-05-04T17:21:08Z</time></trkpt><trkpt lat="41.17127037304529" lon="15.036287077739706"><ele>548.0</ele><time>2026-05-04T17:21:09Z</time></trkpt><trkpt lat="41.17128778196291" lon="15.03646627880899"><ele>546.0</ele><time>2026-05-04T17:21:10Z</time></trkpt><trkpt lat="41.1713141419579" lon="15.03665720406198"><ele>544.0</ele><time>2026-05-04T17:21:11Z</time></trkpt><trkpt lat="41.171345104651586" lon="15.036854408573781"><ele>542.0</ele><time>2026-05-04T17:21:12Z</time></trkpt><trkpt lat="41.17137269848201" lon="15.03703614164007"><ele>540.75</ele><time>2026-05-04T17:21:13Z</time></trkpt><trkpt lat="41.17140579650622" lon="15.037219583074823"><ele>539.5</ele><time>2026-05-04T17:21:13.999Z</time></trkpt><trkpt lat="41.17144124246903" lon="15.037392643094606"><ele>538.25</ele><time>2026-05-04T17:21:14.999Z</time></trkpt><trkpt lat="41.17147858356056" lon="15.037568275734264"><ele>537.0</ele><time>2026-05-04T17:21:15.999Z</time></trkpt><trkpt lat="41.17151777552905" lon="15.037740952733769"><ele>539.5</ele><time>2026-05-04T17:21:16.999Z</time></trkpt><trkpt lat="41.17153658875365" lon="15.03791854171744"><ele>542.0</ele><time>2026-05-04T17:21:17.999Z</time></trkpt><trkpt lat="41.17156680844212" lon="15.038065328038648"><ele>544.5</ele><time>2026-05-04T17:21:18.999Z</time></trkpt><trkpt lat="41.17160802987575" lon="15.038225347577608"><ele>547.0</ele><time>2026-05-04T17:21:19.999Z</time></trkpt><trkpt lat="41.17165966944152" lon="15.03837711137172"><ele>547.75</ele><time>2026-05-04T17:21:20.999Z</time></trkpt><trkpt lat="41.17171974184838" lon="15.038515227754488"><ele>548.5</ele><time>2026-05-04T17:21:21.999Z</time></trkpt><trkpt lat="41.17178898833167" lon="15.03864499179446"><ele>549.25</ele><time>2026-05-04T17:21:22.999Z</time></trkpt><trkpt lat="41.171860659417796" lon="15.038761700213426"><ele>550.0</ele><time>2026-05-04T17:21:23.999Z</time></trkpt><trkpt lat="41.171934826470135" lon="15.038867410810418"><ele>550.0</ele><time>2026-05-04T17:21:24.999Z</time></trkpt><trkpt lat="41.172011823469866" lon="15.038970138872585"><ele>550.0</ele><time>2026-05-04T17:21:25.999Z</time></trkpt><trkpt lat="41.17209736973306" lon="15.039064938318107"><ele>550.0</ele><time>2026-05-04T17:21:26.999Z</time></trkpt><trkpt lat="41.17219720764807" lon="15.039173627777647"><ele>550.0</ele><time>2026-05-04T17:21:27.999Z</time></trkpt><trkpt lat="41.1722836428783" lon="15.039270793869486"><ele>552.2</ele><time>2026-05-04T17:21:28.999Z</time></trkpt><trkpt lat="41.172363717288874" lon="15.03936313168598"><ele>554.4</ele><time>2026-05-04T17:21:29.999Z</time></trkpt><trkpt lat="41.17241955027236" lon="15.039453114546534"><ele>556.6</ele><time>2026-05-04T17:21:30.999Z</time></trkpt><trkpt lat="41.17245910236836" lon="15.039552486771763"><ele>558.8</ele><time>2026-05-04T17:21:31.999Z</time></trkpt><trkpt lat="41.172472598731034" lon="15.03968542170941"><ele>561.0</ele><time>2026-05-04T17:21:32.999Z</time></trkpt><trkpt lat="41.17247072792742" lon="15.039820401170328"><ele>561.0</ele><time>2026-05-04T17:21:33.999Z</time></trkpt><trkpt lat="41.172464807101804" lon="15.039962800125839"><ele>561.0</ele><time>2026-05-04T17:21:34.999Z</time></trkpt><trkpt lat="41.17247353660974" lon="15.040104414940123"><ele>561.0</ele><time>2026-05-04T17:21:35.999Z</time></trkpt><trkpt lat="41.17248835569714" lon="15.040241776659636"><ele>561.0</ele><time>2026-05-04T17:21:36.999Z</time></trkpt><trkpt lat="41.17250052390879" lon="15.040388214078169"><ele>561.0</ele><time>2026-05-04T17:21:37.999Z</time></trkpt><trkpt lat="41.17252464182389" lon="15.040532685714842"><ele>561.25</ele><time>2026-05-04T17:21:38.999Z</time></trkpt><trkpt lat="41.17255018053642" lon="15.040696155726486"><ele>561.5</ele><time>2026-05-04T17:21:39.999Z</time></trkpt><trkpt lat="41.172582840928996" lon="15.040846429115637"><ele>561.75</ele><time>2026-05-04T17:21:40.999Z</time></trkpt><trkpt lat="41.172609339018905" lon="15.041023099520741"><ele>562.0</ele><time>2026-05-04T17:21:41.999Z</time></trkpt><trkpt lat="41.17263869161704" lon="15.041202855650964"><ele>562.6666666666667</ele><time>2026-05-04T17:21:42.999Z</time></trkpt><trkpt lat="41.17267334087138" lon="15.041402294202701"><ele>563.3333333333334</ele><time>2026-05-04T17:21:43.999Z</time></trkpt><trkpt lat="41.17270913279653" lon="15.041610205324131"><ele>564.0</ele><time>2026-05-04T17:21:44.999Z</time></trkpt><trkpt lat="41.17275067323401" lon="15.041838522563232"><ele>564.3333333333334</ele><time>2026-05-04T17:21:45.999Z</time></trkpt><trkpt lat="41.172789650674794" lon="15.042082054462877"><ele>564.6666666666667</ele><time>2026-05-04T17:21:46.999Z</time></trkpt><trkpt lat="41.172877370954566" lon="15.0423160549305"><ele>565.0</ele><time>2026-05-04T17:21:47.999Z</time></trkpt><trkpt lat="41.172983526144726" lon="15.042541856156749"><ele>563.3333333333334</ele><time>2026-05-04T17:21:48.999Z</time></trkpt><trkpt lat="41.17310594623338" lon="15.042736462245992"><ele>561.6666666666666</ele><time>2026-05-04T17:21:49.999Z</time></trkpt><trkpt lat="41.17324317284257" lon="15.042920844151329"><ele>560.0</ele><time>2026-05-04T17:21:50.999Z</time></trkpt><trkpt lat="41.17337548624151" lon="15.043090571114515"><ele>565.3333333333333</ele><time>2026-05-04T17:21:51.999Z</time></trkpt><trkpt lat="41.173492971894866" lon="15.043257598228797"><ele>570.6666666666666</ele><time>2026-05-04T17:21:52.999Z</time></trkpt><trkpt lat="41.17359363500507" lon="15.043434288785914"><ele>576.0</ele><time>2026-05-04T17:21:53.999Z</time></trkpt><trkpt lat="41.17367111281879" lon="15.043616040106658"><ele>576.0</ele><time>2026-05-04T17:21:54.999Z</time></trkpt><trkpt lat="41.173709919842466" lon="15.043805884942923"><ele>576.0</ele><time>2026-05-04T17:21:55.999Z</time></trkpt><trkpt lat="41.17375403589188" lon="15.043998641856525"><ele>576.0</ele><time>2026-05-04T17:21:56.999Z</time></trkpt><trkpt lat="41.173827207552826" lon="15.04416539067717"><ele>576.0</ele><time>2026-05-04T17:21:57.999Z</time></trkpt><trkpt lat="41.17393388672328" lon="15.044310442799096"><ele>583.0</ele><time>2026-05-04T17:21:58.999Z</time></trkpt><trkpt lat="41.17405698756919" lon="15.044437685648031"><ele>590.0</ele><time>2026-05-04T17:21:59.999Z</time></trkpt><trkpt lat="41.17419279139496" lon="15.044546331922428"><ele>597.0</ele><time>2026-05-04T17:22:00.999Z</time></trkpt><trkpt lat="41.17432256308667" lon="15.044649875663875"><ele>597.0</ele><time>2026-05-04T17:22:01.999Z</time></trkpt><trkpt lat="41.17445093785105" lon="15.044756941629721"><ele>597.0</ele><time>2026-05-04T17:22:02.999Z</time></trkpt><trkpt lat="41.174582348164826" lon="15.044864156045957"><ele>597.0</ele><time>2026-05-04T17:22:03.999Z</time></trkpt><trkpt lat="41.17470372363305" lon="15.044992903857645"><ele>599.0</ele><time>2026-05-04T17:22:04.999Z</time></trkpt><trkpt lat="41.17482727453295" lon="15.045102112847843"><ele>601.0</ele><time>2026-05-04T17:22:05.999Z</time></trkpt><trkpt lat="41.17495573241073" lon="15.045213472903628"><ele>603.0</ele><time>2026-05-04T17:22:06.999Z</time></trkpt><trkpt lat="41.17508247959025" lon="15.045318725534772"><ele>603.0</ele><time>2026-05-04T17:22:08Z</time></trkpt><trkpt lat="41.175211213515645" lon="15.045411846284344"><ele>603.0</ele><time>2026-05-04T17:22:09Z</time></trkpt><trkpt lat="41.17533508803317" lon="15.04549390709145"><ele>603.0</ele><time>2026-05-04T17:22:10Z</time></trkpt><trkpt lat="41.17545929460671" lon="15.045553893140765"><ele>603.0</ele><time>2026-05-04T17:22:11Z</time></trkpt><trkpt lat="41.17556005119102" lon="15.045644227075435"><ele>603.0</ele><time>2026-05-04T17:22:12Z</time></trkpt><trkpt lat="41.175664911609445" lon="15.045702332882579"><ele>603.0</ele><time>2026-05-04T17:22:13Z</time></trkpt><trkpt lat="41.17574616344677" lon="15.045778611597457"><ele>603.0</ele><time>2026-05-04T17:22:14Z</time></trkpt><trkpt lat="41.175799953892835" lon="15.045849067763962"><ele>603.0</ele><time>2026-05-04T17:22:15Z</time></trkpt><trkpt lat="41.175883774282276" lon="15.045910213209488"><ele>603.0</ele><time>2026-05-04T17:22:17Z</time></trkpt><trkpt lat="41.175939954030454" lon="15.045960937573792"><ele>604.3333333333334</ele><time>2026-05-04T17:22:20Z</time></trkpt><trkpt lat="41.17596779529837" lon="15.046050029407363"><ele>605.6666666666667</ele><time>2026-05-04T17:22:22Z</time></trkpt><trkpt lat="41.17602984646034" lon="15.046140167668254"><ele>607.0</ele><time>2026-05-04T17:22:26Z</time></trkpt><trkpt lat="41.17626996088506" lon="15.04577191927354"><ele>611.0</ele><time>2026-05-04T17:22:28Z</time></trkpt><trkpt lat="41.17629529924665" lon="15.045691250234887"><ele>611.0</ele><time>2026-05-04T17:22:30Z</time></trkpt><trkpt lat="41.176264400165294" lon="15.045610643440229"><ele>611.0</ele><time>2026-05-04T17:22:38Z</time></trkpt></trkseg></trk></gpx>